<?xml version="1.0" encoding="UTF-8" standalone="no" ?>
<gpx xmlns="http://www.topografix.com/GPX/1/1" xmlns:xsi="http://www.w3.org/2001/XMLSchema-instance" xsi:schemaLocation="http://www.topografix.com/GPX/1/1 http://www.topografix.com/GPX/1/1/gpx.xsd" version="1.1" creator="VisuGPX - https://www.visugpx.com">
  <metadata>
    <name>beynes mauldre </name>
    <desc><![CDATA[AVF Antony, section randonnée
Beynes Mauldre ]]></desc>
  </metadata>
  <trk>
    <name><![CDATA[Track 073]]></name>
    <desc><![CDATA[17 sept. 2017  9:56 am]]></desc>
    <trkseg>
      <trkpt lat="48.85646" lon="1.87566">
        <ele>42.991</ele>
        <time>2017-09-17T07:56:37.000Z</time>
      </trkpt>
      <trkpt lat="48.85647" lon="1.87566">
        <ele>42.997</ele>
        <time>2017-09-17T07:56:38.071Z</time>
      </trkpt>
      <trkpt lat="48.85656" lon="1.87571">
        <ele>43.086</ele>
        <time>2017-09-17T07:56:45.914Z</time>
      </trkpt>
      <trkpt lat="48.85665" lon="1.87578">
        <ele>43.551</ele>
        <time>2017-09-17T07:56:53.000Z</time>
      </trkpt>
      <trkpt lat="48.85665" lon="1.87578">
        <ele>44.456</ele>
        <time>2017-09-17T07:56:59.000Z</time>
      </trkpt>
      <trkpt lat="48.85665" lon="1.87578">
        <ele>45.132</ele>
        <time>2017-09-17T07:57:13.000Z</time>
      </trkpt>
      <trkpt lat="48.85665" lon="1.87578">
        <ele>45.093</ele>
        <time>2017-09-17T07:57:23.523Z</time>
      </trkpt>
      <trkpt lat="48.85674" lon="1.87577">
        <ele>44.715</ele>
        <time>2017-09-17T07:57:34.882Z</time>
      </trkpt>
      <trkpt lat="48.85683" lon="1.8757">
        <ele>44.374</ele>
        <time>2017-09-17T07:57:42.697Z</time>
      </trkpt>
      <trkpt lat="48.85692" lon="1.87563">
        <ele>44.097</ele>
        <time>2017-09-17T07:57:50.323Z</time>
      </trkpt>
      <trkpt lat="48.85702" lon="1.87559">
        <ele>43.919</ele>
        <time>2017-09-17T07:57:57.624Z</time>
      </trkpt>
      <trkpt lat="48.8571" lon="1.87551">
        <ele>43.786</ele>
        <time>2017-09-17T07:58:04.201Z</time>
      </trkpt>
      <trkpt lat="48.85718" lon="1.87543">
        <ele>43.595</ele>
        <time>2017-09-17T07:58:10.947Z</time>
      </trkpt>
      <trkpt lat="48.85727" lon="1.87536">
        <ele>43.438</ele>
        <time>2017-09-17T07:58:18.269Z</time>
      </trkpt>
      <trkpt lat="48.85737" lon="1.87537">
        <ele>43.45</ele>
        <time>2017-09-17T07:58:26.250Z</time>
      </trkpt>
      <trkpt lat="48.8574" lon="1.87552">
        <ele>43.589</ele>
        <time>2017-09-17T07:58:34.591Z</time>
      </trkpt>
      <trkpt lat="48.85743" lon="1.87565">
        <ele>43.855</ele>
        <time>2017-09-17T07:58:41.601Z</time>
      </trkpt>
      <trkpt lat="48.85747" lon="1.87578">
        <ele>44.298</ele>
        <time>2017-09-17T07:58:48.381Z</time>
      </trkpt>
      <trkpt lat="48.85754" lon="1.87589">
        <ele>44.786</ele>
        <time>2017-09-17T07:58:55.887Z</time>
      </trkpt>
      <trkpt lat="48.85761" lon="1.87601">
        <ele>45.12</ele>
        <time>2017-09-17T07:59:03.196Z</time>
      </trkpt>
      <trkpt lat="48.85768" lon="1.8761">
        <ele>45.359</ele>
        <time>2017-09-17T07:59:10.570Z</time>
      </trkpt>
      <trkpt lat="48.85778" lon="1.87611">
        <ele>45.75</ele>
        <time>2017-09-17T07:59:19.345Z</time>
      </trkpt>
      <trkpt lat="48.85788" lon="1.87608">
        <ele>46.374</ele>
        <time>2017-09-17T07:59:27.643Z</time>
      </trkpt>
      <trkpt lat="48.85798" lon="1.87607">
        <ele>47.013</ele>
        <time>2017-09-17T07:59:34.907Z</time>
      </trkpt>
      <trkpt lat="48.85808" lon="1.87604">
        <ele>47.473</ele>
        <time>2017-09-17T07:59:41.069Z</time>
      </trkpt>
      <trkpt lat="48.85817" lon="1.87603">
        <ele>47.752</ele>
        <time>2017-09-17T07:59:46.970Z</time>
      </trkpt>
      <trkpt lat="48.85826" lon="1.87601">
        <ele>47.969</ele>
        <time>2017-09-17T07:59:53.183Z</time>
      </trkpt>
      <trkpt lat="48.85836" lon="1.87597">
        <ele>48.202</ele>
        <time>2017-09-17T07:59:59.531Z</time>
      </trkpt>
      <trkpt lat="48.85845" lon="1.87596">
        <ele>48.431</ele>
        <time>2017-09-17T08:00:05.865Z</time>
      </trkpt>
      <trkpt lat="48.85852" lon="1.87605">
        <ele>48.639</ele>
        <time>2017-09-17T08:00:12.884Z</time>
      </trkpt>
      <trkpt lat="48.85856" lon="1.87619">
        <ele>48.845</ele>
        <time>2017-09-17T08:00:20.564Z</time>
      </trkpt>
      <trkpt lat="48.85856" lon="1.87634">
        <ele>49.107</ele>
        <time>2017-09-17T08:00:28.048Z</time>
      </trkpt>
      <trkpt lat="48.85851" lon="1.87647">
        <ele>49.483</ele>
        <time>2017-09-17T08:00:36.188Z</time>
      </trkpt>
      <trkpt lat="48.85844" lon="1.87658">
        <ele>49.96</ele>
        <time>2017-09-17T08:00:44.245Z</time>
      </trkpt>
      <trkpt lat="48.85838" lon="1.87668">
        <ele>50.58</ele>
        <time>2017-09-17T08:00:51.885Z</time>
      </trkpt>
      <trkpt lat="48.85833" lon="1.87679">
        <ele>51.465</ele>
        <time>2017-09-17T08:01:00.100Z</time>
      </trkpt>
      <trkpt lat="48.85827" lon="1.8769">
        <ele>52.592</ele>
        <time>2017-09-17T08:01:09.051Z</time>
      </trkpt>
      <trkpt lat="48.85821" lon="1.87702">
        <ele>53.786</ele>
        <time>2017-09-17T08:01:18.119Z</time>
      </trkpt>
      <trkpt lat="48.85814" lon="1.87712">
        <ele>54.95</ele>
        <time>2017-09-17T08:01:27.279Z</time>
      </trkpt>
      <trkpt lat="48.85808" lon="1.87725">
        <ele>56.193</ele>
        <time>2017-09-17T08:01:36.714Z</time>
      </trkpt>
      <trkpt lat="48.85809" lon="1.87738">
        <ele>57.539</ele>
        <time>2017-09-17T08:01:45.502Z</time>
      </trkpt>
      <trkpt lat="48.85812" lon="1.87753">
        <ele>58.869</ele>
        <time>2017-09-17T08:01:54.700Z</time>
      </trkpt>
      <trkpt lat="48.85814" lon="1.87766">
        <ele>60.177</ele>
        <time>2017-09-17T08:02:03.272Z</time>
      </trkpt>
      <trkpt lat="48.85818" lon="1.87779">
        <ele>61.518</ele>
        <time>2017-09-17T08:02:11.914Z</time>
      </trkpt>
      <trkpt lat="48.85823" lon="1.87793">
        <ele>62.833</ele>
        <time>2017-09-17T08:02:20.724Z</time>
      </trkpt>
      <trkpt lat="48.85826" lon="1.87806">
        <ele>64.09</ele>
        <time>2017-09-17T08:02:29.000Z</time>
      </trkpt>
      <trkpt lat="48.85826" lon="1.87806">
        <ele>65.157</ele>
        <time>2017-09-17T08:02:38.000Z</time>
      </trkpt>
      <trkpt lat="48.85826" lon="1.87806">
        <ele>65.692</ele>
        <time>2017-09-17T08:02:57.512Z</time>
      </trkpt>
      <trkpt lat="48.85835" lon="1.87809">
        <ele>65.614</ele>
        <time>2017-09-17T08:03:10.464Z</time>
      </trkpt>
      <trkpt lat="48.85845" lon="1.87808">
        <ele>65.731</ele>
        <time>2017-09-17T08:03:20.469Z</time>
      </trkpt>
      <trkpt lat="48.85854" lon="1.87807">
        <ele>66.685</ele>
        <time>2017-09-17T08:03:29.833Z</time>
      </trkpt>
      <trkpt lat="48.85864" lon="1.87806">
        <ele>67.902</ele>
        <time>2017-09-17T08:03:38.657Z</time>
      </trkpt>
      <trkpt lat="48.85873" lon="1.87803">
        <ele>68.582</ele>
        <time>2017-09-17T08:03:45.852Z</time>
      </trkpt>
      <trkpt lat="48.85883" lon="1.87801">
        <ele>68.702</ele>
        <time>2017-09-17T08:03:53.863Z</time>
      </trkpt>
      <trkpt lat="48.85893" lon="1.878">
        <ele>68.559</ele>
        <time>2017-09-17T08:04:02.228Z</time>
      </trkpt>
      <trkpt lat="48.85902" lon="1.87796">
        <ele>68.405</ele>
        <time>2017-09-17T08:04:09.552Z</time>
      </trkpt>
      <trkpt lat="48.85911" lon="1.87794">
        <ele>68.353</ele>
        <time>2017-09-17T08:04:16.712Z</time>
      </trkpt>
      <trkpt lat="48.8592" lon="1.87791">
        <ele>68.394</ele>
        <time>2017-09-17T08:04:24.408Z</time>
      </trkpt>
      <trkpt lat="48.8593" lon="1.87789">
        <ele>68.451</ele>
        <time>2017-09-17T08:04:32.396Z</time>
      </trkpt>
      <trkpt lat="48.85939" lon="1.87788">
        <ele>68.493</ele>
        <time>2017-09-17T08:04:40.416Z</time>
      </trkpt>
      <trkpt lat="48.85948" lon="1.87786">
        <ele>68.556</ele>
        <time>2017-09-17T08:04:48.853Z</time>
      </trkpt>
      <trkpt lat="48.85957" lon="1.87784">
        <ele>68.698</ele>
        <time>2017-09-17T08:04:57.709Z</time>
      </trkpt>
      <trkpt lat="48.85967" lon="1.87782">
        <ele>68.963</ele>
        <time>2017-09-17T08:05:06.016Z</time>
      </trkpt>
      <trkpt lat="48.85976" lon="1.87781">
        <ele>69.323</ele>
        <time>2017-09-17T08:05:13.974Z</time>
      </trkpt>
      <trkpt lat="48.85985" lon="1.8778">
        <ele>69.713</ele>
        <time>2017-09-17T08:05:21.860Z</time>
      </trkpt>
      <trkpt lat="48.85995" lon="1.87781">
        <ele>70.086</ele>
        <time>2017-09-17T08:05:30.620Z</time>
      </trkpt>
      <trkpt lat="48.86004" lon="1.87784">
        <ele>70.4</ele>
        <time>2017-09-17T08:05:38.788Z</time>
      </trkpt>
      <trkpt lat="48.86013" lon="1.87788">
        <ele>70.609</ele>
        <time>2017-09-17T08:05:46.753Z</time>
      </trkpt>
      <trkpt lat="48.86021" lon="1.87797">
        <ele>70.702</ele>
        <time>2017-09-17T08:05:55.701Z</time>
      </trkpt>
      <trkpt lat="48.8603" lon="1.87802">
        <ele>70.921</ele>
        <time>2017-09-17T08:06:04.545Z</time>
      </trkpt>
      <trkpt lat="48.86039" lon="1.87806">
        <ele>71.477</ele>
        <time>2017-09-17T08:06:12.628Z</time>
      </trkpt>
      <trkpt lat="48.86049" lon="1.87809">
        <ele>72.176</ele>
        <time>2017-09-17T08:06:20.657Z</time>
      </trkpt>
      <trkpt lat="48.86058" lon="1.87811">
        <ele>72.718</ele>
        <time>2017-09-17T08:06:27.804Z</time>
      </trkpt>
      <trkpt lat="48.86068" lon="1.87812">
        <ele>72.958</ele>
        <time>2017-09-17T08:06:35.585Z</time>
      </trkpt>
      <trkpt lat="48.86078" lon="1.87812">
        <ele>72.872</ele>
        <time>2017-09-17T08:06:43.490Z</time>
      </trkpt>
      <trkpt lat="48.86087" lon="1.87811">
        <ele>72.585</ele>
        <time>2017-09-17T08:06:51.248Z</time>
      </trkpt>
      <trkpt lat="48.86096" lon="1.8781">
        <ele>72.127</ele>
        <time>2017-09-17T08:06:58.456Z</time>
      </trkpt>
      <trkpt lat="48.86106" lon="1.87809">
        <ele>71.466</ele>
        <time>2017-09-17T08:07:05.444Z</time>
      </trkpt>
      <trkpt lat="48.86115" lon="1.87808">
        <ele>70.746</ele>
        <time>2017-09-17T08:07:12.318Z</time>
      </trkpt>
      <trkpt lat="48.86124" lon="1.87806">
        <ele>70.188</ele>
        <time>2017-09-17T08:07:19.393Z</time>
      </trkpt>
      <trkpt lat="48.86134" lon="1.87804">
        <ele>69.864</ele>
        <time>2017-09-17T08:07:27.170Z</time>
      </trkpt>
      <trkpt lat="48.86143" lon="1.87801">
        <ele>69.716</ele>
        <time>2017-09-17T08:07:34.971Z</time>
      </trkpt>
      <trkpt lat="48.86152" lon="1.87798">
        <ele>69.657</ele>
        <time>2017-09-17T08:07:42.853Z</time>
      </trkpt>
      <trkpt lat="48.86162" lon="1.87796">
        <ele>69.68</ele>
        <time>2017-09-17T08:07:51.099Z</time>
      </trkpt>
      <trkpt lat="48.86171" lon="1.87792">
        <ele>69.832</ele>
        <time>2017-09-17T08:07:58.797Z</time>
      </trkpt>
      <trkpt lat="48.8618" lon="1.8779">
        <ele>70.067</ele>
        <time>2017-09-17T08:08:06.555Z</time>
      </trkpt>
      <trkpt lat="48.8619" lon="1.87788">
        <ele>70.29</ele>
        <time>2017-09-17T08:08:14.576Z</time>
      </trkpt>
      <trkpt lat="48.862" lon="1.87785">
        <ele>70.484</ele>
        <time>2017-09-17T08:08:22.808Z</time>
      </trkpt>
      <trkpt lat="48.86209" lon="1.87783">
        <ele>70.688</ele>
        <time>2017-09-17T08:08:30.655Z</time>
      </trkpt>
      <trkpt lat="48.86219" lon="1.8778">
        <ele>70.994</ele>
        <time>2017-09-17T08:08:38.490Z</time>
      </trkpt>
      <trkpt lat="48.86229" lon="1.87776">
        <ele>71.474</ele>
        <time>2017-09-17T08:08:46.564Z</time>
      </trkpt>
      <trkpt lat="48.86238" lon="1.87772">
        <ele>72</ele>
        <time>2017-09-17T08:08:54.475Z</time>
      </trkpt>
      <trkpt lat="48.86247" lon="1.87771">
        <ele>72.534</ele>
        <time>2017-09-17T08:09:01.517Z</time>
      </trkpt>
      <trkpt lat="48.86257" lon="1.87769">
        <ele>73.128</ele>
        <time>2017-09-17T08:09:08.607Z</time>
      </trkpt>
      <trkpt lat="48.86266" lon="1.87767">
        <ele>73.608</ele>
        <time>2017-09-17T08:09:15.556Z</time>
      </trkpt>
      <trkpt lat="48.86275" lon="1.87763">
        <ele>73.82</ele>
        <time>2017-09-17T08:09:22.521Z</time>
      </trkpt>
      <trkpt lat="48.86284" lon="1.87759">
        <ele>73.909</ele>
        <time>2017-09-17T08:09:30.188Z</time>
      </trkpt>
      <trkpt lat="48.86293" lon="1.87755">
        <ele>74.006</ele>
        <time>2017-09-17T08:09:38.068Z</time>
      </trkpt>
      <trkpt lat="48.86303" lon="1.87753">
        <ele>74.11</ele>
        <time>2017-09-17T08:09:45.995Z</time>
      </trkpt>
      <trkpt lat="48.86313" lon="1.8775">
        <ele>74.192</ele>
        <time>2017-09-17T08:09:54.102Z</time>
      </trkpt>
      <trkpt lat="48.86323" lon="1.87747">
        <ele>74.27</ele>
        <time>2017-09-17T08:10:02.009Z</time>
      </trkpt>
      <trkpt lat="48.86332" lon="1.87743">
        <ele>74.364</ele>
        <time>2017-09-17T08:10:09.110Z</time>
      </trkpt>
      <trkpt lat="48.86341" lon="1.87739">
        <ele>74.468</ele>
        <time>2017-09-17T08:10:16.876Z</time>
      </trkpt>
      <trkpt lat="48.86351" lon="1.87734">
        <ele>74.636</ele>
        <time>2017-09-17T08:10:24.853Z</time>
      </trkpt>
      <trkpt lat="48.8636" lon="1.87729">
        <ele>74.988</ele>
        <time>2017-09-17T08:10:32.642Z</time>
      </trkpt>
      <trkpt lat="48.86369" lon="1.87726">
        <ele>75.474</ele>
        <time>2017-09-17T08:10:40.576Z</time>
      </trkpt>
      <trkpt lat="48.86379" lon="1.87723">
        <ele>75.936</ele>
        <time>2017-09-17T08:10:49.212Z</time>
      </trkpt>
      <trkpt lat="48.86388" lon="1.87721">
        <ele>76.402</ele>
        <time>2017-09-17T08:10:56.711Z</time>
      </trkpt>
      <trkpt lat="48.86397" lon="1.87718">
        <ele>76.911</ele>
        <time>2017-09-17T08:11:03.784Z</time>
      </trkpt>
      <trkpt lat="48.86406" lon="1.87714">
        <ele>77.333</ele>
        <time>2017-09-17T08:11:10.584Z</time>
      </trkpt>
      <trkpt lat="48.86415" lon="1.8771">
        <ele>77.713</ele>
        <time>2017-09-17T08:11:17.672Z</time>
      </trkpt>
      <trkpt lat="48.86423" lon="1.87706">
        <ele>78.224</ele>
        <time>2017-09-17T08:11:24.548Z</time>
      </trkpt>
      <trkpt lat="48.86433" lon="1.87703">
        <ele>78.854</ele>
        <time>2017-09-17T08:11:32.187Z</time>
      </trkpt>
      <trkpt lat="48.86443" lon="1.87702">
        <ele>79.54</ele>
        <time>2017-09-17T08:11:40.107Z</time>
      </trkpt>
      <trkpt lat="48.86452" lon="1.87702">
        <ele>80.271</ele>
        <time>2017-09-17T08:11:47.925Z</time>
      </trkpt>
      <trkpt lat="48.86461" lon="1.87701">
        <ele>80.998</ele>
        <time>2017-09-17T08:11:55.830Z</time>
      </trkpt>
      <trkpt lat="48.8647" lon="1.87701">
        <ele>81.677</ele>
        <time>2017-09-17T08:12:03.634Z</time>
      </trkpt>
      <trkpt lat="48.8648" lon="1.87701">
        <ele>82.296</ele>
        <time>2017-09-17T08:12:11.863Z</time>
      </trkpt>
      <trkpt lat="48.8649" lon="1.87702">
        <ele>82.901</ele>
        <time>2017-09-17T08:12:19.875Z</time>
      </trkpt>
      <trkpt lat="48.86499" lon="1.87703">
        <ele>83.456</ele>
        <time>2017-09-17T08:12:27.429Z</time>
      </trkpt>
      <trkpt lat="48.86508" lon="1.87704">
        <ele>83.78</ele>
        <time>2017-09-17T08:12:35.360Z</time>
      </trkpt>
      <trkpt lat="48.86517" lon="1.87705">
        <ele>83.808</ele>
        <time>2017-09-17T08:12:43.570Z</time>
      </trkpt>
      <trkpt lat="48.86527" lon="1.87706">
        <ele>83.583</ele>
        <time>2017-09-17T08:12:51.605Z</time>
      </trkpt>
      <trkpt lat="48.86536" lon="1.87707">
        <ele>83.193</ele>
        <time>2017-09-17T08:12:59.432Z</time>
      </trkpt>
      <trkpt lat="48.86545" lon="1.87709">
        <ele>82.856</ele>
        <time>2017-09-17T08:13:07.376Z</time>
      </trkpt>
      <trkpt lat="48.86555" lon="1.87711">
        <ele>82.695</ele>
        <time>2017-09-17T08:13:15.500Z</time>
      </trkpt>
      <trkpt lat="48.86565" lon="1.87714">
        <ele>82.633</ele>
        <time>2017-09-17T08:13:23.513Z</time>
      </trkpt>
      <trkpt lat="48.86574" lon="1.87717">
        <ele>82.573</ele>
        <time>2017-09-17T08:13:31.534Z</time>
      </trkpt>
      <trkpt lat="48.86584" lon="1.87719">
        <ele>82.399</ele>
        <time>2017-09-17T08:13:38.799Z</time>
      </trkpt>
      <trkpt lat="48.86593" lon="1.87722">
        <ele>82.082</ele>
        <time>2017-09-17T08:13:45.637Z</time>
      </trkpt>
      <trkpt lat="48.86602" lon="1.87725">
        <ele>81.682</ele>
        <time>2017-09-17T08:13:53.302Z</time>
      </trkpt>
      <trkpt lat="48.86611" lon="1.87729">
        <ele>81.259</ele>
        <time>2017-09-17T08:14:00.671Z</time>
      </trkpt>
      <trkpt lat="48.86621" lon="1.87735">
        <ele>80.753</ele>
        <time>2017-09-17T08:14:08.328Z</time>
      </trkpt>
      <trkpt lat="48.8663" lon="1.8774">
        <ele>80.072</ele>
        <time>2017-09-17T08:14:15.536Z</time>
      </trkpt>
      <trkpt lat="48.86638" lon="1.87747">
        <ele>79.245</ele>
        <time>2017-09-17T08:14:22.690Z</time>
      </trkpt>
      <trkpt lat="48.86646" lon="1.87755">
        <ele>78.449</ele>
        <time>2017-09-17T08:14:29.478Z</time>
      </trkpt>
      <trkpt lat="48.86655" lon="1.87763">
        <ele>77.894</ele>
        <time>2017-09-17T08:14:37.239Z</time>
      </trkpt>
      <trkpt lat="48.86663" lon="1.8777">
        <ele>77.629</ele>
        <time>2017-09-17T08:14:44.207Z</time>
      </trkpt>
      <trkpt lat="48.86671" lon="1.87777">
        <ele>77.433</ele>
        <time>2017-09-17T08:14:51.261Z</time>
      </trkpt>
      <trkpt lat="48.8668" lon="1.87785">
        <ele>77.122</ele>
        <time>2017-09-17T08:14:59.019Z</time>
      </trkpt>
      <trkpt lat="48.86688" lon="1.87792">
        <ele>76.679</ele>
        <time>2017-09-17T08:15:06.171Z</time>
      </trkpt>
      <trkpt lat="48.86696" lon="1.878">
        <ele>76.156</ele>
        <time>2017-09-17T08:15:13.190Z</time>
      </trkpt>
      <trkpt lat="48.86705" lon="1.87806">
        <ele>75.671</ele>
        <time>2017-09-17T08:15:20.854Z</time>
      </trkpt>
      <trkpt lat="48.86714" lon="1.87813">
        <ele>75.355</ele>
        <time>2017-09-17T08:15:29.000Z</time>
      </trkpt>
      <trkpt lat="48.86714" lon="1.87813">
        <ele>75.216</ele>
        <time>2017-09-17T08:15:32.000Z</time>
      </trkpt>
      <trkpt lat="48.86714" lon="1.87813">
        <ele>75.184</ele>
        <time>2017-09-17T08:17:49.569Z</time>
      </trkpt>
      <trkpt lat="48.86726" lon="1.87824">
        <ele>75.185</ele>
        <time>2017-09-17T08:18:09.374Z</time>
      </trkpt>
      <trkpt lat="48.86734" lon="1.87832">
        <ele>75.088</ele>
        <time>2017-09-17T08:18:18.033Z</time>
      </trkpt>
      <trkpt lat="48.86743" lon="1.8784">
        <ele>74.852</ele>
        <time>2017-09-17T08:18:26.512Z</time>
      </trkpt>
      <trkpt lat="48.86752" lon="1.87848">
        <ele>74.666</ele>
        <time>2017-09-17T08:18:34.538Z</time>
      </trkpt>
      <trkpt lat="48.86761" lon="1.87855">
        <ele>74.739</ele>
        <time>2017-09-17T08:18:42.521Z</time>
      </trkpt>
      <trkpt lat="48.86769" lon="1.87863">
        <ele>75.038</ele>
        <time>2017-09-17T08:18:50.094Z</time>
      </trkpt>
      <trkpt lat="48.86777" lon="1.87871">
        <ele>75.448</ele>
        <time>2017-09-17T08:18:58.078Z</time>
      </trkpt>
      <trkpt lat="48.86786" lon="1.87878">
        <ele>75.913</ele>
        <time>2017-09-17T08:19:05.731Z</time>
      </trkpt>
      <trkpt lat="48.86798" lon="1.87888">
        <ele>76.38</ele>
        <time>2017-09-17T08:19:15.852Z</time>
      </trkpt>
      <trkpt lat="48.86806" lon="1.87895">
        <ele>76.807</ele>
        <time>2017-09-17T08:19:22.874Z</time>
      </trkpt>
      <trkpt lat="48.86815" lon="1.87902">
        <ele>77.176</ele>
        <time>2017-09-17T08:19:30.524Z</time>
      </trkpt>
      <trkpt lat="48.86823" lon="1.87909">
        <ele>77.472</ele>
        <time>2017-09-17T08:19:37.372Z</time>
      </trkpt>
      <trkpt lat="48.86831" lon="1.87917">
        <ele>77.7</ele>
        <time>2017-09-17T08:19:44.337Z</time>
      </trkpt>
      <trkpt lat="48.86838" lon="1.87924">
        <ele>77.866</ele>
        <time>2017-09-17T08:19:51.017Z</time>
      </trkpt>
      <trkpt lat="48.86847" lon="1.87931">
        <ele>78.018</ele>
        <time>2017-09-17T08:19:57.979Z</time>
      </trkpt>
      <trkpt lat="48.86856" lon="1.87938">
        <ele>78.215</ele>
        <time>2017-09-17T08:20:05.683Z</time>
      </trkpt>
      <trkpt lat="48.86864" lon="1.87945">
        <ele>78.432</ele>
        <time>2017-09-17T08:20:12.562Z</time>
      </trkpt>
      <trkpt lat="48.86873" lon="1.87953">
        <ele>78.672</ele>
        <time>2017-09-17T08:20:20.273Z</time>
      </trkpt>
      <trkpt lat="48.86881" lon="1.8796">
        <ele>78.944</ele>
        <time>2017-09-17T08:20:27.166Z</time>
      </trkpt>
      <trkpt lat="48.86889" lon="1.87966">
        <ele>79.171</ele>
        <time>2017-09-17T08:20:34.026Z</time>
      </trkpt>
      <trkpt lat="48.86897" lon="1.87973">
        <ele>79.304</ele>
        <time>2017-09-17T08:20:41.799Z</time>
      </trkpt>
      <trkpt lat="48.86905" lon="1.87981">
        <ele>79.36</ele>
        <time>2017-09-17T08:20:49.300Z</time>
      </trkpt>
      <trkpt lat="48.86914" lon="1.87988">
        <ele>79.315</ele>
        <time>2017-09-17T08:20:57.255Z</time>
      </trkpt>
      <trkpt lat="48.86923" lon="1.87995">
        <ele>79.192</ele>
        <time>2017-09-17T08:21:05.197Z</time>
      </trkpt>
      <trkpt lat="48.86931" lon="1.88003">
        <ele>79.069</ele>
        <time>2017-09-17T08:21:12.422Z</time>
      </trkpt>
      <trkpt lat="48.86941" lon="1.88009">
        <ele>78.978</ele>
        <time>2017-09-17T08:21:19.605Z</time>
      </trkpt>
      <trkpt lat="48.86949" lon="1.88017">
        <ele>78.889</ele>
        <time>2017-09-17T08:21:26.874Z</time>
      </trkpt>
      <trkpt lat="48.86958" lon="1.88024">
        <ele>78.78</ele>
        <time>2017-09-17T08:21:33.854Z</time>
      </trkpt>
      <trkpt lat="48.86968" lon="1.8803">
        <ele>78.711</ele>
        <time>2017-09-17T08:21:40.965Z</time>
      </trkpt>
      <trkpt lat="48.86976" lon="1.88036">
        <ele>78.746</ele>
        <time>2017-09-17T08:21:47.296Z</time>
      </trkpt>
      <trkpt lat="48.86984" lon="1.88043">
        <ele>78.841</ele>
        <time>2017-09-17T08:21:54.070Z</time>
      </trkpt>
      <trkpt lat="48.86992" lon="1.88047">
        <ele>78.867</ele>
        <time>2017-09-17T08:22:01.014Z</time>
      </trkpt>
      <trkpt lat="48.87002" lon="1.8805">
        <ele>78.768</ele>
        <time>2017-09-17T08:22:08.502Z</time>
      </trkpt>
      <trkpt lat="48.8701" lon="1.88057">
        <ele>78.638</ele>
        <time>2017-09-17T08:22:15.841Z</time>
      </trkpt>
      <trkpt lat="48.8702" lon="1.8806">
        <ele>78.525</ele>
        <time>2017-09-17T08:22:23.505Z</time>
      </trkpt>
      <trkpt lat="48.87029" lon="1.88065">
        <ele>78.397</ele>
        <time>2017-09-17T08:22:31.144Z</time>
      </trkpt>
      <trkpt lat="48.87039" lon="1.88068">
        <ele>78.286</ele>
        <time>2017-09-17T08:22:37.954Z</time>
      </trkpt>
      <trkpt lat="48.87048" lon="1.88071">
        <ele>78.216</ele>
        <time>2017-09-17T08:22:44.643Z</time>
      </trkpt>
      <trkpt lat="48.87057" lon="1.88077">
        <ele>78.125</ele>
        <time>2017-09-17T08:22:51.636Z</time>
      </trkpt>
      <trkpt lat="48.87066" lon="1.8808">
        <ele>77.99</ele>
        <time>2017-09-17T08:22:58.528Z</time>
      </trkpt>
      <trkpt lat="48.87075" lon="1.88084">
        <ele>77.839</ele>
        <time>2017-09-17T08:23:06.422Z</time>
      </trkpt>
      <trkpt lat="48.87083" lon="1.8809">
        <ele>77.691</ele>
        <time>2017-09-17T08:23:14.540Z</time>
      </trkpt>
      <trkpt lat="48.87092" lon="1.88096">
        <ele>77.482</ele>
        <time>2017-09-17T08:23:22.275Z</time>
      </trkpt>
      <trkpt lat="48.87102" lon="1.88096">
        <ele>77.093</ele>
        <time>2017-09-17T08:23:29.621Z</time>
      </trkpt>
      <trkpt lat="48.87111" lon="1.88094">
        <ele>76.495</ele>
        <time>2017-09-17T08:23:36.369Z</time>
      </trkpt>
      <trkpt lat="48.8712" lon="1.88091">
        <ele>75.775</ele>
        <time>2017-09-17T08:23:43.793Z</time>
      </trkpt>
      <trkpt lat="48.8713" lon="1.88088">
        <ele>74.925</ele>
        <time>2017-09-17T08:23:51.708Z</time>
      </trkpt>
      <trkpt lat="48.87139" lon="1.88087">
        <ele>73.95</ele>
        <time>2017-09-17T08:23:59.410Z</time>
      </trkpt>
      <trkpt lat="48.87149" lon="1.88084">
        <ele>72.963</ele>
        <time>2017-09-17T08:24:07.606Z</time>
      </trkpt>
      <trkpt lat="48.87158" lon="1.88086">
        <ele>72.056</ele>
        <time>2017-09-17T08:24:14.761Z</time>
      </trkpt>
      <trkpt lat="48.87168" lon="1.88087">
        <ele>71.225</ele>
        <time>2017-09-17T08:24:22.142Z</time>
      </trkpt>
      <trkpt lat="48.87177" lon="1.88087">
        <ele>70.429</ele>
        <time>2017-09-17T08:24:28.670Z</time>
      </trkpt>
      <trkpt lat="48.87187" lon="1.8809">
        <ele>69.689</ele>
        <time>2017-09-17T08:24:35.717Z</time>
      </trkpt>
      <trkpt lat="48.87195" lon="1.88095">
        <ele>69.014</ele>
        <time>2017-09-17T08:24:42.010Z</time>
      </trkpt>
      <trkpt lat="48.87204" lon="1.88099">
        <ele>68.347</ele>
        <time>2017-09-17T08:24:48.346Z</time>
      </trkpt>
      <trkpt lat="48.87214" lon="1.88102">
        <ele>67.672</ele>
        <time>2017-09-17T08:24:55.817Z</time>
      </trkpt>
      <trkpt lat="48.87223" lon="1.88108">
        <ele>66.966</ele>
        <time>2017-09-17T08:25:03.922Z</time>
      </trkpt>
      <trkpt lat="48.87233" lon="1.88113">
        <ele>66.066</ele>
        <time>2017-09-17T08:25:12.245Z</time>
      </trkpt>
      <trkpt lat="48.87242" lon="1.88118">
        <ele>64.974</ele>
        <time>2017-09-17T08:25:19.000Z</time>
      </trkpt>
      <trkpt lat="48.87242" lon="1.88118">
        <ele>64.05</ele>
        <time>2017-09-17T08:25:24.000Z</time>
      </trkpt>
      <trkpt lat="48.87242" lon="1.88118">
        <ele>63.635</ele>
        <time>2017-09-17T08:25:24.100Z</time>
      </trkpt>
      <trkpt lat="48.87251" lon="1.88125">
        <ele>63.659</ele>
        <time>2017-09-17T08:25:37.954Z</time>
      </trkpt>
      <trkpt lat="48.8726" lon="1.88129">
        <ele>63.45</ele>
        <time>2017-09-17T08:25:47.353Z</time>
      </trkpt>
      <trkpt lat="48.87269" lon="1.88131">
        <ele>62.402</ele>
        <time>2017-09-17T08:25:56.849Z</time>
      </trkpt>
      <trkpt lat="48.87279" lon="1.88131">
        <ele>60.76</ele>
        <time>2017-09-17T08:26:05.896Z</time>
      </trkpt>
      <trkpt lat="48.87288" lon="1.88136">
        <ele>59.024</ele>
        <time>2017-09-17T08:26:16.043Z</time>
      </trkpt>
      <trkpt lat="48.87298" lon="1.88135">
        <ele>57.264</ele>
        <time>2017-09-17T08:26:26.560Z</time>
      </trkpt>
      <trkpt lat="48.87307" lon="1.88138">
        <ele>55.385</ele>
        <time>2017-09-17T08:26:36.064Z</time>
      </trkpt>
      <trkpt lat="48.87315" lon="1.8813">
        <ele>53.423</ele>
        <time>2017-09-17T08:26:44.412Z</time>
      </trkpt>
      <trkpt lat="48.87315" lon="1.88114">
        <ele>51.691</ele>
        <time>2017-09-17T08:26:53.000Z</time>
      </trkpt>
      <trkpt lat="48.87315" lon="1.881">
        <ele>50.512</ele>
        <time>2017-09-17T08:26:59.036Z</time>
      </trkpt>
      <trkpt lat="48.87319" lon="1.88087">
        <ele>49.873</ele>
        <time>2017-09-17T08:27:05.487Z</time>
      </trkpt>
      <trkpt lat="48.87323" lon="1.88074">
        <ele>49.549</ele>
        <time>2017-09-17T08:27:11.867Z</time>
      </trkpt>
      <trkpt lat="48.87326" lon="1.88061">
        <ele>49.332</ele>
        <time>2017-09-17T08:27:18.763Z</time>
      </trkpt>
      <trkpt lat="48.87329" lon="1.88048">
        <ele>49.105</ele>
        <time>2017-09-17T08:27:25.581Z</time>
      </trkpt>
      <trkpt lat="48.87333" lon="1.88035">
        <ele>48.78</ele>
        <time>2017-09-17T08:27:33.389Z</time>
      </trkpt>
      <trkpt lat="48.87342" lon="1.88031">
        <ele>48.27</ele>
        <time>2017-09-17T08:27:41.497Z</time>
      </trkpt>
      <trkpt lat="48.8735" lon="1.88039">
        <ele>47.573</ele>
        <time>2017-09-17T08:27:48.375Z</time>
      </trkpt>
      <trkpt lat="48.87357" lon="1.88047">
        <ele>46.819</ele>
        <time>2017-09-17T08:27:54.765Z</time>
      </trkpt>
      <trkpt lat="48.87361" lon="1.8806">
        <ele>46.186</ele>
        <time>2017-09-17T08:28:01.542Z</time>
      </trkpt>
      <trkpt lat="48.87366" lon="1.88072">
        <ele>45.733</ele>
        <time>2017-09-17T08:28:08.424Z</time>
      </trkpt>
      <trkpt lat="48.8737" lon="1.88085">
        <ele>45.368</ele>
        <time>2017-09-17T08:28:15.421Z</time>
      </trkpt>
      <trkpt lat="48.87378" lon="1.88095">
        <ele>45.035</ele>
        <time>2017-09-17T08:28:23.207Z</time>
      </trkpt>
      <trkpt lat="48.87384" lon="1.88106">
        <ele>44.733</ele>
        <time>2017-09-17T08:28:30.943Z</time>
      </trkpt>
      <trkpt lat="48.87392" lon="1.88115">
        <ele>44.413</ele>
        <time>2017-09-17T08:28:38.093Z</time>
      </trkpt>
      <trkpt lat="48.87398" lon="1.88126">
        <ele>44.093</ele>
        <time>2017-09-17T08:28:45.781Z</time>
      </trkpt>
      <trkpt lat="48.87403" lon="1.88138">
        <ele>43.872</ele>
        <time>2017-09-17T08:28:53.210Z</time>
      </trkpt>
      <trkpt lat="48.87408" lon="1.88151">
        <ele>43.745</ele>
        <time>2017-09-17T08:29:00.402Z</time>
      </trkpt>
      <trkpt lat="48.87413" lon="1.88163">
        <ele>43.624</ele>
        <time>2017-09-17T08:29:07.537Z</time>
      </trkpt>
      <trkpt lat="48.87415" lon="1.88177">
        <ele>43.531</ele>
        <time>2017-09-17T08:29:14.833Z</time>
      </trkpt>
      <trkpt lat="48.87418" lon="1.88191">
        <ele>43.531</ele>
        <time>2017-09-17T08:29:22.677Z</time>
      </trkpt>
      <trkpt lat="48.8742" lon="1.88204">
        <ele>43.6</ele>
        <time>2017-09-17T08:29:30.509Z</time>
      </trkpt>
      <trkpt lat="48.87425" lon="1.88217">
        <ele>43.651</ele>
        <time>2017-09-17T08:29:39.058Z</time>
      </trkpt>
      <trkpt lat="48.87427" lon="1.88231">
        <ele>43.638</ele>
        <time>2017-09-17T08:29:46.812Z</time>
      </trkpt>
      <trkpt lat="48.87432" lon="1.88245">
        <ele>43.604</ele>
        <time>2017-09-17T08:29:54.022Z</time>
      </trkpt>
      <trkpt lat="48.87438" lon="1.88258">
        <ele>43.595</ele>
        <time>2017-09-17T08:30:01.332Z</time>
      </trkpt>
      <trkpt lat="48.87442" lon="1.88271">
        <ele>43.639</ele>
        <time>2017-09-17T08:30:08.894Z</time>
      </trkpt>
      <trkpt lat="48.87447" lon="1.88283">
        <ele>43.733</ele>
        <time>2017-09-17T08:30:15.931Z</time>
      </trkpt>
      <trkpt lat="48.87451" lon="1.88297">
        <ele>43.856</ele>
        <time>2017-09-17T08:30:23.738Z</time>
      </trkpt>
      <trkpt lat="48.87458" lon="1.88308">
        <ele>43.981</ele>
        <time>2017-09-17T08:30:31.769Z</time>
      </trkpt>
      <trkpt lat="48.87463" lon="1.8832">
        <ele>44.1</ele>
        <time>2017-09-17T08:30:38.910Z</time>
      </trkpt>
      <trkpt lat="48.87468" lon="1.88331">
        <ele>44.242</ele>
        <time>2017-09-17T08:30:45.828Z</time>
      </trkpt>
      <trkpt lat="48.87474" lon="1.88343">
        <ele>44.432</ele>
        <time>2017-09-17T08:30:53.332Z</time>
      </trkpt>
      <trkpt lat="48.87479" lon="1.88356">
        <ele>44.615</ele>
        <time>2017-09-17T08:31:01.724Z</time>
      </trkpt>
      <trkpt lat="48.87482" lon="1.8837">
        <ele>44.721</ele>
        <time>2017-09-17T08:31:09.879Z</time>
      </trkpt>
      <trkpt lat="48.87487" lon="1.88382">
        <ele>44.616</ele>
        <time>2017-09-17T08:31:17.594Z</time>
      </trkpt>
      <trkpt lat="48.87489" lon="1.88396">
        <ele>44.179</ele>
        <time>2017-09-17T08:31:26.000Z</time>
      </trkpt>
      <trkpt lat="48.87489" lon="1.88396">
        <ele>43.594</ele>
        <time>2017-09-17T08:31:35.000Z</time>
      </trkpt>
      <trkpt lat="48.87489" lon="1.88396">
        <ele>43.246</ele>
        <time>2017-09-17T08:31:35.381Z</time>
      </trkpt>
      <trkpt lat="48.87489" lon="1.88396">
        <ele>43.409</ele>
        <time>2017-09-17T08:31:44.000Z</time>
      </trkpt>
      <trkpt lat="48.87489" lon="1.88396">
        <ele>43.5</ele>
        <time>2017-09-17T08:31:44.100Z</time>
      </trkpt>
      <trkpt lat="48.87497" lon="1.88404">
        <ele>43.407</ele>
        <time>2017-09-17T08:31:46.000Z</time>
      </trkpt>
      <trkpt lat="48.87497" lon="1.88404">
        <ele>43.367</ele>
        <time>2017-09-17T08:31:46.001Z</time>
      </trkpt>
      <trkpt lat="48.87497" lon="1.88404">
        <ele>43.368</ele>
        <time>2017-09-17T08:37:03.636Z</time>
      </trkpt>
      <trkpt lat="48.87486" lon="1.8841">
        <ele>43.386</ele>
        <time>2017-09-17T08:37:18.931Z</time>
      </trkpt>
      <trkpt lat="48.87493" lon="1.88421">
        <ele>43.409</ele>
        <time>2017-09-17T08:37:27.056Z</time>
      </trkpt>
      <trkpt lat="48.87496" lon="1.88434">
        <ele>43.491</ele>
        <time>2017-09-17T08:37:34.593Z</time>
      </trkpt>
      <trkpt lat="48.87498" lon="1.88448">
        <ele>43.719</ele>
        <time>2017-09-17T08:37:42.186Z</time>
      </trkpt>
      <trkpt lat="48.87502" lon="1.88463">
        <ele>44.128</ele>
        <time>2017-09-17T08:37:50.366Z</time>
      </trkpt>
      <trkpt lat="48.87506" lon="1.88477">
        <ele>44.705</ele>
        <time>2017-09-17T08:37:57.932Z</time>
      </trkpt>
      <trkpt lat="48.87509" lon="1.8849">
        <ele>45.374</ele>
        <time>2017-09-17T08:38:05.542Z</time>
      </trkpt>
      <trkpt lat="48.87511" lon="1.88504">
        <ele>46.003</ele>
        <time>2017-09-17T08:38:14.145Z</time>
      </trkpt>
      <trkpt lat="48.87515" lon="1.88518">
        <ele>46.661</ele>
        <time>2017-09-17T08:38:23.189Z</time>
      </trkpt>
      <trkpt lat="48.8752" lon="1.88532">
        <ele>47.531</ele>
        <time>2017-09-17T08:38:31.626Z</time>
      </trkpt>
      <trkpt lat="48.87524" lon="1.88544">
        <ele>48.518</ele>
        <time>2017-09-17T08:38:40.163Z</time>
      </trkpt>
      <trkpt lat="48.87529" lon="1.88557">
        <ele>49.471</ele>
        <time>2017-09-17T08:38:49.799Z</time>
      </trkpt>
      <trkpt lat="48.87533" lon="1.88569">
        <ele>50.472</ele>
        <time>2017-09-17T08:38:59.685Z</time>
      </trkpt>
      <trkpt lat="48.87536" lon="1.88582">
        <ele>51.628</ele>
        <time>2017-09-17T08:39:10.013Z</time>
      </trkpt>
      <trkpt lat="48.87543" lon="1.88592">
        <ele>52.881</ele>
        <time>2017-09-17T08:39:19.148Z</time>
      </trkpt>
      <trkpt lat="48.8755" lon="1.88599">
        <ele>54.071</ele>
        <time>2017-09-17T08:39:26.290Z</time>
      </trkpt>
      <trkpt lat="48.87557" lon="1.88611">
        <ele>55.016</ele>
        <time>2017-09-17T08:39:34.185Z</time>
      </trkpt>
      <trkpt lat="48.87564" lon="1.8862">
        <ele>55.725</ele>
        <time>2017-09-17T08:39:41.764Z</time>
      </trkpt>
      <trkpt lat="48.87571" lon="1.88629">
        <ele>56.422</ele>
        <time>2017-09-17T08:39:49.844Z</time>
      </trkpt>
      <trkpt lat="48.8758" lon="1.88637">
        <ele>57.244</ele>
        <time>2017-09-17T08:39:57.889Z</time>
      </trkpt>
      <trkpt lat="48.87589" lon="1.88642">
        <ele>58.134</ele>
        <time>2017-09-17T08:40:06.302Z</time>
      </trkpt>
      <trkpt lat="48.87598" lon="1.88648">
        <ele>59.008</ele>
        <time>2017-09-17T08:40:13.838Z</time>
      </trkpt>
      <trkpt lat="48.87606" lon="1.88654">
        <ele>59.843</ele>
        <time>2017-09-17T08:40:22.232Z</time>
      </trkpt>
      <trkpt lat="48.87614" lon="1.88664">
        <ele>60.674</ele>
        <time>2017-09-17T08:40:31.117Z</time>
      </trkpt>
      <trkpt lat="48.87621" lon="1.88674">
        <ele>61.507</ele>
        <time>2017-09-17T08:40:39.467Z</time>
      </trkpt>
      <trkpt lat="48.87628" lon="1.88683">
        <ele>62.319</ele>
        <time>2017-09-17T08:40:48.513Z</time>
      </trkpt>
      <trkpt lat="48.87634" lon="1.88694">
        <ele>63.118</ele>
        <time>2017-09-17T08:40:57.736Z</time>
      </trkpt>
      <trkpt lat="48.8764" lon="1.88704">
        <ele>63.956</ele>
        <time>2017-09-17T08:41:07.277Z</time>
      </trkpt>
      <trkpt lat="48.87648" lon="1.88713">
        <ele>64.929</ele>
        <time>2017-09-17T08:41:16.804Z</time>
      </trkpt>
      <trkpt lat="48.87657" lon="1.88719">
        <ele>66.056</ele>
        <time>2017-09-17T08:41:26.089Z</time>
      </trkpt>
      <trkpt lat="48.87662" lon="1.88731">
        <ele>67.229</ele>
        <time>2017-09-17T08:41:34.432Z</time>
      </trkpt>
      <trkpt lat="48.87664" lon="1.88746">
        <ele>68.3</ele>
        <time>2017-09-17T08:41:43.142Z</time>
      </trkpt>
      <trkpt lat="48.87671" lon="1.88755">
        <ele>69.197</ele>
        <time>2017-09-17T08:41:51.207Z</time>
      </trkpt>
      <trkpt lat="48.87676" lon="1.88768">
        <ele>69.947</ele>
        <time>2017-09-17T08:41:57.831Z</time>
      </trkpt>
      <trkpt lat="48.87681" lon="1.88779">
        <ele>70.569</ele>
        <time>2017-09-17T08:42:04.715Z</time>
      </trkpt>
      <trkpt lat="48.87686" lon="1.88792">
        <ele>71.085</ele>
        <time>2017-09-17T08:42:12.828Z</time>
      </trkpt>
      <trkpt lat="48.8769" lon="1.88804">
        <ele>71.621</ele>
        <time>2017-09-17T08:42:20.967Z</time>
      </trkpt>
      <trkpt lat="48.87695" lon="1.88818">
        <ele>72.227</ele>
        <time>2017-09-17T08:42:30.160Z</time>
      </trkpt>
      <trkpt lat="48.87699" lon="1.8883">
        <ele>72.853</ele>
        <time>2017-09-17T08:42:38.591Z</time>
      </trkpt>
      <trkpt lat="48.87703" lon="1.88844">
        <ele>73.574</ele>
        <time>2017-09-17T08:42:46.694Z</time>
      </trkpt>
      <trkpt lat="48.87706" lon="1.88857">
        <ele>74.338</ele>
        <time>2017-09-17T08:42:53.980Z</time>
      </trkpt>
      <trkpt lat="48.87709" lon="1.8887">
        <ele>74.72</ele>
        <time>2017-09-17T08:43:01.821Z</time>
      </trkpt>
      <trkpt lat="48.87716" lon="1.88881">
        <ele>74.461</ele>
        <time>2017-09-17T08:43:11.131Z</time>
      </trkpt>
      <trkpt lat="48.87722" lon="1.88893">
        <ele>73.898</ele>
        <time>2017-09-17T08:43:20.487Z</time>
      </trkpt>
      <trkpt lat="48.87727" lon="1.88905">
        <ele>73.566</ele>
        <time>2017-09-17T08:43:29.160Z</time>
      </trkpt>
      <trkpt lat="48.87733" lon="1.88916">
        <ele>73.692</ele>
        <time>2017-09-17T08:43:36.469Z</time>
      </trkpt>
      <trkpt lat="48.87738" lon="1.88928">
        <ele>74.173</ele>
        <time>2017-09-17T08:43:44.487Z</time>
      </trkpt>
      <trkpt lat="48.87742" lon="1.8894">
        <ele>74.855</ele>
        <time>2017-09-17T08:43:52.750Z</time>
      </trkpt>
      <trkpt lat="48.87749" lon="1.88951">
        <ele>75.687</ele>
        <time>2017-09-17T08:44:01.674Z</time>
      </trkpt>
      <trkpt lat="48.87753" lon="1.88964">
        <ele>76.591</ele>
        <time>2017-09-17T08:44:10.202Z</time>
      </trkpt>
      <trkpt lat="48.87755" lon="1.88979">
        <ele>77.553</ele>
        <time>2017-09-17T08:44:19.434Z</time>
      </trkpt>
      <trkpt lat="48.87758" lon="1.88993">
        <ele>78.665</ele>
        <time>2017-09-17T08:44:28.763Z</time>
      </trkpt>
      <trkpt lat="48.87761" lon="1.89008">
        <ele>79.893</ele>
        <time>2017-09-17T08:44:37.699Z</time>
      </trkpt>
      <trkpt lat="48.87763" lon="1.89021">
        <ele>81.081</ele>
        <time>2017-09-17T08:44:45.679Z</time>
      </trkpt>
      <trkpt lat="48.87765" lon="1.89035">
        <ele>82.156</ele>
        <time>2017-09-17T08:44:54.282Z</time>
      </trkpt>
      <trkpt lat="48.87768" lon="1.8905">
        <ele>83.133</ele>
        <time>2017-09-17T08:45:04.956Z</time>
      </trkpt>
      <trkpt lat="48.87768" lon="1.89065">
        <ele>84.096</ele>
        <time>2017-09-17T08:45:15.411Z</time>
      </trkpt>
      <trkpt lat="48.8777" lon="1.89079">
        <ele>85.196</ele>
        <time>2017-09-17T08:45:25.096Z</time>
      </trkpt>
      <trkpt lat="48.87774" lon="1.89092">
        <ele>86.494</ele>
        <time>2017-09-17T08:45:34.474Z</time>
      </trkpt>
      <trkpt lat="48.87777" lon="1.89106">
        <ele>87.838</ele>
        <time>2017-09-17T08:45:43.730Z</time>
      </trkpt>
      <trkpt lat="48.87782" lon="1.89119">
        <ele>89.05</ele>
        <time>2017-09-17T08:45:52.627Z</time>
      </trkpt>
      <trkpt lat="48.87786" lon="1.89132">
        <ele>90.097</ele>
        <time>2017-09-17T08:46:00.652Z</time>
      </trkpt>
      <trkpt lat="48.87787" lon="1.89147">
        <ele>91.013</ele>
        <time>2017-09-17T08:46:09.455Z</time>
      </trkpt>
      <trkpt lat="48.8779" lon="1.8916">
        <ele>91.901</ele>
        <time>2017-09-17T08:46:17.999Z</time>
      </trkpt>
      <trkpt lat="48.8779" lon="1.8916">
        <ele>92.73</ele>
        <time>2017-09-17T08:46:21.999Z</time>
      </trkpt>
      <trkpt lat="48.8779" lon="1.8916">
        <ele>93.172</ele>
        <time>2017-09-17T08:46:22.099Z</time>
      </trkpt>
      <trkpt lat="48.87797" lon="1.89172">
        <ele>93.098</ele>
        <time>2017-09-17T08:46:35.240Z</time>
      </trkpt>
      <trkpt lat="48.878" lon="1.89186">
        <ele>93.259</ele>
        <time>2017-09-17T08:46:44.535Z</time>
      </trkpt>
      <trkpt lat="48.87801" lon="1.89201">
        <ele>94.246</ele>
        <time>2017-09-17T08:46:53.421Z</time>
      </trkpt>
      <trkpt lat="48.87804" lon="1.89215">
        <ele>95.533</ele>
        <time>2017-09-17T08:47:01.172Z</time>
      </trkpt>
      <trkpt lat="48.87807" lon="1.89228">
        <ele>96.522</ele>
        <time>2017-09-17T08:47:08.432Z</time>
      </trkpt>
      <trkpt lat="48.87811" lon="1.89241">
        <ele>97.258</ele>
        <time>2017-09-17T08:47:16.976Z</time>
      </trkpt>
      <trkpt lat="48.87815" lon="1.89255">
        <ele>97.884</ele>
        <time>2017-09-17T08:47:26.113Z</time>
      </trkpt>
      <trkpt lat="48.87822" lon="1.89266">
        <ele>98.551</ele>
        <time>2017-09-17T08:47:35.462Z</time>
      </trkpt>
      <trkpt lat="48.8783" lon="1.89274">
        <ele>99.327</ele>
        <time>2017-09-17T08:47:43.815Z</time>
      </trkpt>
      <trkpt lat="48.87838" lon="1.89282">
        <ele>100.163</ele>
        <time>2017-09-17T08:47:51.411Z</time>
      </trkpt>
      <trkpt lat="48.87847" lon="1.89288">
        <ele>101.02</ele>
        <time>2017-09-17T08:47:58.898Z</time>
      </trkpt>
      <trkpt lat="48.87856" lon="1.89294">
        <ele>101.857</ele>
        <time>2017-09-17T08:48:06.371Z</time>
      </trkpt>
      <trkpt lat="48.87864" lon="1.89301">
        <ele>102.608</ele>
        <time>2017-09-17T08:48:14.155Z</time>
      </trkpt>
      <trkpt lat="48.87872" lon="1.89309">
        <ele>103.285</ele>
        <time>2017-09-17T08:48:22.042Z</time>
      </trkpt>
      <trkpt lat="48.8788" lon="1.89316">
        <ele>103.946</ele>
        <time>2017-09-17T08:48:30.071Z</time>
      </trkpt>
      <trkpt lat="48.87889" lon="1.89323">
        <ele>104.613</ele>
        <time>2017-09-17T08:48:38.943Z</time>
      </trkpt>
      <trkpt lat="48.87898" lon="1.89328">
        <ele>105.287</ele>
        <time>2017-09-17T08:48:47.000Z</time>
      </trkpt>
      <trkpt lat="48.87898" lon="1.89328">
        <ele>105.865</ele>
        <time>2017-09-17T08:48:54.000Z</time>
      </trkpt>
      <trkpt lat="48.87898" lon="1.89328">
        <ele>106.138</ele>
        <time>2017-09-17T08:48:55.380Z</time>
      </trkpt>
      <trkpt lat="48.87907" lon="1.8934">
        <ele>106.066</ele>
        <time>2017-09-17T08:49:12.025Z</time>
      </trkpt>
      <trkpt lat="48.87915" lon="1.89347">
        <ele>106.161</ele>
        <time>2017-09-17T08:49:20.790Z</time>
      </trkpt>
      <trkpt lat="48.87924" lon="1.89354">
        <ele>106.852</ele>
        <time>2017-09-17T08:49:29.836Z</time>
      </trkpt>
      <trkpt lat="48.87932" lon="1.89363">
        <ele>107.813</ele>
        <time>2017-09-17T08:49:38.304Z</time>
      </trkpt>
      <trkpt lat="48.8794" lon="1.8937">
        <ele>108.551</ele>
        <time>2017-09-17T08:49:46.027Z</time>
      </trkpt>
      <trkpt lat="48.87948" lon="1.89377">
        <ele>109.028</ele>
        <time>2017-09-17T08:49:53.367Z</time>
      </trkpt>
      <trkpt lat="48.87955" lon="1.89386">
        <ele>109.383</ele>
        <time>2017-09-17T08:50:00.527Z</time>
      </trkpt>
      <trkpt lat="48.87964" lon="1.89393">
        <ele>109.676</ele>
        <time>2017-09-17T08:50:09.000Z</time>
      </trkpt>
      <trkpt lat="48.87964" lon="1.89393">
        <ele>109.859</ele>
        <time>2017-09-17T08:50:13.000Z</time>
      </trkpt>
      <trkpt lat="48.87964" lon="1.89393">
        <ele>109.904</ele>
        <time>2017-09-17T08:52:11.036Z</time>
      </trkpt>
      <trkpt lat="48.87975" lon="1.89416">
        <ele>109.847</ele>
        <time>2017-09-17T08:52:38.746Z</time>
      </trkpt>
      <trkpt lat="48.87983" lon="1.89426">
        <ele>109.92</ele>
        <time>2017-09-17T08:52:48.054Z</time>
      </trkpt>
      <trkpt lat="48.87991" lon="1.89434">
        <ele>110.27</ele>
        <time>2017-09-17T08:52:57.621Z</time>
      </trkpt>
      <trkpt lat="48.87998" lon="1.89445">
        <ele>110.652</ele>
        <time>2017-09-17T08:53:07.031Z</time>
      </trkpt>
      <trkpt lat="48.88006" lon="1.89454">
        <ele>110.817</ele>
        <time>2017-09-17T08:53:15.701Z</time>
      </trkpt>
      <trkpt lat="48.88012" lon="1.89464">
        <ele>110.799</ele>
        <time>2017-09-17T08:53:23.978Z</time>
      </trkpt>
      <trkpt lat="48.88019" lon="1.89473">
        <ele>110.703</ele>
        <time>2017-09-17T08:53:32.056Z</time>
      </trkpt>
      <trkpt lat="48.88026" lon="1.89483">
        <ele>110.618</ele>
        <time>2017-09-17T08:53:40.063Z</time>
      </trkpt>
      <trkpt lat="48.88034" lon="1.89491">
        <ele>110.597</ele>
        <time>2017-09-17T08:53:47.937Z</time>
      </trkpt>
      <trkpt lat="48.88042" lon="1.89501">
        <ele>110.681</ele>
        <time>2017-09-17T08:53:56.461Z</time>
      </trkpt>
      <trkpt lat="48.88049" lon="1.8951">
        <ele>110.85</ele>
        <time>2017-09-17T08:54:04.335Z</time>
      </trkpt>
      <trkpt lat="48.88057" lon="1.89519">
        <ele>111.074</ele>
        <time>2017-09-17T08:54:12.969Z</time>
      </trkpt>
      <trkpt lat="48.88064" lon="1.89528">
        <ele>111.365</ele>
        <time>2017-09-17T08:54:20.731Z</time>
      </trkpt>
      <trkpt lat="48.88071" lon="1.89536">
        <ele>111.671</ele>
        <time>2017-09-17T08:54:28.615Z</time>
      </trkpt>
      <trkpt lat="48.88079" lon="1.89546">
        <ele>111.923</ele>
        <time>2017-09-17T08:54:36.423Z</time>
      </trkpt>
      <trkpt lat="48.88086" lon="1.89554">
        <ele>112.303</ele>
        <time>2017-09-17T08:54:44.150Z</time>
      </trkpt>
      <trkpt lat="48.88094" lon="1.89563">
        <ele>113</ele>
        <time>2017-09-17T08:54:51.861Z</time>
      </trkpt>
      <trkpt lat="48.88101" lon="1.89572">
        <ele>113.822</ele>
        <time>2017-09-17T08:54:59.626Z</time>
      </trkpt>
      <trkpt lat="48.88108" lon="1.89581">
        <ele>114.45</ele>
        <time>2017-09-17T08:55:07.306Z</time>
      </trkpt>
      <trkpt lat="48.88116" lon="1.8959">
        <ele>114.825</ele>
        <time>2017-09-17T08:55:15.181Z</time>
      </trkpt>
      <trkpt lat="48.88123" lon="1.89599">
        <ele>115.08</ele>
        <time>2017-09-17T08:55:22.827Z</time>
      </trkpt>
      <trkpt lat="48.88131" lon="1.89609">
        <ele>115.374</ele>
        <time>2017-09-17T08:55:31.590Z</time>
      </trkpt>
      <trkpt lat="48.88138" lon="1.89618">
        <ele>115.722</ele>
        <time>2017-09-17T08:55:39.472Z</time>
      </trkpt>
      <trkpt lat="48.88145" lon="1.89628">
        <ele>116.057</ele>
        <time>2017-09-17T08:55:47.239Z</time>
      </trkpt>
      <trkpt lat="48.88152" lon="1.89638">
        <ele>116.335</ele>
        <time>2017-09-17T08:55:55.133Z</time>
      </trkpt>
      <trkpt lat="48.88159" lon="1.89647">
        <ele>116.521</ele>
        <time>2017-09-17T08:56:02.976Z</time>
      </trkpt>
      <trkpt lat="48.88167" lon="1.89656">
        <ele>116.613</ele>
        <time>2017-09-17T08:56:10.636Z</time>
      </trkpt>
      <trkpt lat="48.88175" lon="1.89665">
        <ele>116.671</ele>
        <time>2017-09-17T08:56:17.996Z</time>
      </trkpt>
      <trkpt lat="48.88182" lon="1.89673">
        <ele>116.736</ele>
        <time>2017-09-17T08:56:24.632Z</time>
      </trkpt>
      <trkpt lat="48.88189" lon="1.89681">
        <ele>116.827</ele>
        <time>2017-09-17T08:56:31.597Z</time>
      </trkpt>
      <trkpt lat="48.88197" lon="1.89691">
        <ele>116.945</ele>
        <time>2017-09-17T08:56:39.519Z</time>
      </trkpt>
      <trkpt lat="48.88205" lon="1.89699">
        <ele>117.058</ele>
        <time>2017-09-17T08:56:46.879Z</time>
      </trkpt>
      <trkpt lat="48.88213" lon="1.89706">
        <ele>117.168</ele>
        <time>2017-09-17T08:56:54.068Z</time>
      </trkpt>
      <trkpt lat="48.8822" lon="1.89715">
        <ele>117.317</ele>
        <time>2017-09-17T08:57:01.017Z</time>
      </trkpt>
      <trkpt lat="48.88228" lon="1.89724">
        <ele>117.474</ele>
        <time>2017-09-17T08:57:08.907Z</time>
      </trkpt>
      <trkpt lat="48.88236" lon="1.89733">
        <ele>117.584</ele>
        <time>2017-09-17T08:57:16.849Z</time>
      </trkpt>
      <trkpt lat="48.88243" lon="1.89742">
        <ele>117.653</ele>
        <time>2017-09-17T08:57:24.466Z</time>
      </trkpt>
      <trkpt lat="48.88251" lon="1.89751">
        <ele>117.697</ele>
        <time>2017-09-17T08:57:32.283Z</time>
      </trkpt>
      <trkpt lat="48.88259" lon="1.89758">
        <ele>117.712</ele>
        <time>2017-09-17T08:57:40.000Z</time>
      </trkpt>
      <trkpt lat="48.88259" lon="1.89758">
        <ele>117.685</ele>
        <time>2017-09-17T08:57:43.000Z</time>
      </trkpt>
      <trkpt lat="48.88259" lon="1.89758">
        <ele>117.627</ele>
        <time>2017-09-17T08:57:47.117Z</time>
      </trkpt>
      <trkpt lat="48.88269" lon="1.89765">
        <ele>117.577</ele>
        <time>2017-09-17T08:58:00.698Z</time>
      </trkpt>
      <trkpt lat="48.88277" lon="1.89773">
        <ele>117.575</ele>
        <time>2017-09-17T08:58:09.914Z</time>
      </trkpt>
      <trkpt lat="48.88284" lon="1.89781">
        <ele>117.63</ele>
        <time>2017-09-17T08:58:18.597Z</time>
      </trkpt>
      <trkpt lat="48.88292" lon="1.8979">
        <ele>117.701</ele>
        <time>2017-09-17T08:58:26.743Z</time>
      </trkpt>
      <trkpt lat="48.883" lon="1.89799">
        <ele>117.744</ele>
        <time>2017-09-17T08:58:34.742Z</time>
      </trkpt>
      <trkpt lat="48.88308" lon="1.89807">
        <ele>117.74</ele>
        <time>2017-09-17T08:58:42.318Z</time>
      </trkpt>
      <trkpt lat="48.88317" lon="1.89813">
        <ele>117.673</ele>
        <time>2017-09-17T08:58:49.486Z</time>
      </trkpt>
      <trkpt lat="48.88326" lon="1.8982">
        <ele>117.512</ele>
        <time>2017-09-17T08:58:56.739Z</time>
      </trkpt>
      <trkpt lat="48.88335" lon="1.89827">
        <ele>117.286</ele>
        <time>2017-09-17T08:59:04.463Z</time>
      </trkpt>
      <trkpt lat="48.88343" lon="1.89834">
        <ele>117.125</ele>
        <time>2017-09-17T08:59:11.803Z</time>
      </trkpt>
      <trkpt lat="48.88351" lon="1.89841">
        <ele>117.101</ele>
        <time>2017-09-17T08:59:19.241Z</time>
      </trkpt>
      <trkpt lat="48.88359" lon="1.89848">
        <ele>117.173</ele>
        <time>2017-09-17T08:59:25.930Z</time>
      </trkpt>
      <trkpt lat="48.88368" lon="1.89854">
        <ele>117.289</ele>
        <time>2017-09-17T08:59:33.127Z</time>
      </trkpt>
      <trkpt lat="48.88377" lon="1.89861">
        <ele>117.4</ele>
        <time>2017-09-17T08:59:40.586Z</time>
      </trkpt>
      <trkpt lat="48.88385" lon="1.89868">
        <ele>117.46</ele>
        <time>2017-09-17T08:59:47.709Z</time>
      </trkpt>
      <trkpt lat="48.88393" lon="1.89874">
        <ele>117.508</ele>
        <time>2017-09-17T08:59:54.730Z</time>
      </trkpt>
      <trkpt lat="48.88402" lon="1.89881">
        <ele>117.602</ele>
        <time>2017-09-17T09:00:02.412Z</time>
      </trkpt>
      <trkpt lat="48.88411" lon="1.89887">
        <ele>117.732</ele>
        <time>2017-09-17T09:00:09.526Z</time>
      </trkpt>
      <trkpt lat="48.88419" lon="1.89895">
        <ele>117.853</ele>
        <time>2017-09-17T09:00:17.301Z</time>
      </trkpt>
      <trkpt lat="48.88428" lon="1.89902">
        <ele>117.951</ele>
        <time>2017-09-17T09:00:25.025Z</time>
      </trkpt>
      <trkpt lat="48.88436" lon="1.89909">
        <ele>118.056</ele>
        <time>2017-09-17T09:00:32.820Z</time>
      </trkpt>
      <trkpt lat="48.88444" lon="1.89917">
        <ele>118.2</ele>
        <time>2017-09-17T09:00:40.723Z</time>
      </trkpt>
      <trkpt lat="48.88453" lon="1.89924">
        <ele>118.36</ele>
        <time>2017-09-17T09:00:48.786Z</time>
      </trkpt>
      <trkpt lat="48.88461" lon="1.89931">
        <ele>118.483</ele>
        <time>2017-09-17T09:00:56.364Z</time>
      </trkpt>
      <trkpt lat="48.8847" lon="1.89936">
        <ele>118.555</ele>
        <time>2017-09-17T09:01:04.228Z</time>
      </trkpt>
      <trkpt lat="48.88479" lon="1.89943">
        <ele>118.602</ele>
        <time>2017-09-17T09:01:12.224Z</time>
      </trkpt>
      <trkpt lat="48.88488" lon="1.89949">
        <ele>118.633</ele>
        <time>2017-09-17T09:01:19.558Z</time>
      </trkpt>
      <trkpt lat="48.88496" lon="1.89956">
        <ele>118.635</ele>
        <time>2017-09-17T09:01:26.373Z</time>
      </trkpt>
      <trkpt lat="48.88505" lon="1.89963">
        <ele>118.587</ele>
        <time>2017-09-17T09:01:33.973Z</time>
      </trkpt>
      <trkpt lat="48.88515" lon="1.89969">
        <ele>118.451</ele>
        <time>2017-09-17T09:01:41.845Z</time>
      </trkpt>
      <trkpt lat="48.88523" lon="1.89976">
        <ele>118.214</ele>
        <time>2017-09-17T09:01:49.787Z</time>
      </trkpt>
      <trkpt lat="48.88531" lon="1.89984">
        <ele>117.955</ele>
        <time>2017-09-17T09:01:57.320Z</time>
      </trkpt>
      <trkpt lat="48.8854" lon="1.89991">
        <ele>117.741</ele>
        <time>2017-09-17T09:02:05.416Z</time>
      </trkpt>
      <trkpt lat="48.88548" lon="1.89997">
        <ele>117.505</ele>
        <time>2017-09-17T09:02:12.506Z</time>
      </trkpt>
      <trkpt lat="48.88557" lon="1.90004">
        <ele>117.209</ele>
        <time>2017-09-17T09:02:20.343Z</time>
      </trkpt>
      <trkpt lat="48.88565" lon="1.90012">
        <ele>116.946</ele>
        <time>2017-09-17T09:02:27.367Z</time>
      </trkpt>
      <trkpt lat="48.88573" lon="1.90021">
        <ele>116.789</ele>
        <time>2017-09-17T09:02:35.126Z</time>
      </trkpt>
      <trkpt lat="48.8858" lon="1.90029">
        <ele>116.693</ele>
        <time>2017-09-17T09:02:42.137Z</time>
      </trkpt>
      <trkpt lat="48.88588" lon="1.90037">
        <ele>116.577</ele>
        <time>2017-09-17T09:02:49.107Z</time>
      </trkpt>
      <trkpt lat="48.88596" lon="1.90046">
        <ele>116.419</ele>
        <time>2017-09-17T09:02:55.908Z</time>
      </trkpt>
      <trkpt lat="48.88603" lon="1.90053">
        <ele>116.252</ele>
        <time>2017-09-17T09:03:02.736Z</time>
      </trkpt>
      <trkpt lat="48.88611" lon="1.90059">
        <ele>116.076</ele>
        <time>2017-09-17T09:03:09.658Z</time>
      </trkpt>
      <trkpt lat="48.8862" lon="1.90067">
        <ele>115.9</ele>
        <time>2017-09-17T09:03:17.332Z</time>
      </trkpt>
      <trkpt lat="48.88629" lon="1.90075">
        <ele>115.758</ele>
        <time>2017-09-17T09:03:25.266Z</time>
      </trkpt>
      <trkpt lat="48.88637" lon="1.90084">
        <ele>115.628</ele>
        <time>2017-09-17T09:03:33.121Z</time>
      </trkpt>
      <trkpt lat="48.88645" lon="1.90092">
        <ele>115.475</ele>
        <time>2017-09-17T09:03:41.067Z</time>
      </trkpt>
      <trkpt lat="48.88654" lon="1.90097">
        <ele>115.323</ele>
        <time>2017-09-17T09:03:48.149Z</time>
      </trkpt>
      <trkpt lat="48.88662" lon="1.90105">
        <ele>115.191</ele>
        <time>2017-09-17T09:03:55.649Z</time>
      </trkpt>
      <trkpt lat="48.8867" lon="1.90113">
        <ele>115.063</ele>
        <time>2017-09-17T09:04:03.585Z</time>
      </trkpt>
      <trkpt lat="48.88679" lon="1.9012">
        <ele>114.951</ele>
        <time>2017-09-17T09:04:11.808Z</time>
      </trkpt>
      <trkpt lat="48.88687" lon="1.90127">
        <ele>114.841</ele>
        <time>2017-09-17T09:04:20.248Z</time>
      </trkpt>
      <trkpt lat="48.88696" lon="1.90132">
        <ele>114.646</ele>
        <time>2017-09-17T09:04:28.204Z</time>
      </trkpt>
      <trkpt lat="48.88706" lon="1.90135">
        <ele>114.342</ele>
        <time>2017-09-17T09:04:35.999Z</time>
      </trkpt>
      <trkpt lat="48.88706" lon="1.90135">
        <ele>114.035</ele>
        <time>2017-09-17T09:04:39.999Z</time>
      </trkpt>
      <trkpt lat="48.88706" lon="1.90135">
        <ele>113.853</ele>
        <time>2017-09-17T09:05:19.955Z</time>
      </trkpt>
      <trkpt lat="48.88715" lon="1.90144">
        <ele>113.82</ele>
        <time>2017-09-17T09:05:32.758Z</time>
      </trkpt>
      <trkpt lat="48.88719" lon="1.90157">
        <ele>113.83</ele>
        <time>2017-09-17T09:05:41.754Z</time>
      </trkpt>
      <trkpt lat="48.88727" lon="1.90166">
        <ele>113.71</ele>
        <time>2017-09-17T09:05:52.474Z</time>
      </trkpt>
      <trkpt lat="48.88736" lon="1.90171">
        <ele>113.313</ele>
        <time>2017-09-17T09:06:01.294Z</time>
      </trkpt>
      <trkpt lat="48.88746" lon="1.90174">
        <ele>112.683</ele>
        <time>2017-09-17T09:06:09.344Z</time>
      </trkpt>
      <trkpt lat="48.88754" lon="1.90179">
        <ele>112.076</ele>
        <time>2017-09-17T09:06:17.738Z</time>
      </trkpt>
      <trkpt lat="48.88763" lon="1.90185">
        <ele>111.711</ele>
        <time>2017-09-17T09:06:26.042Z</time>
      </trkpt>
      <trkpt lat="48.88771" lon="1.9019">
        <ele>111.57</ele>
        <time>2017-09-17T09:06:33.892Z</time>
      </trkpt>
      <trkpt lat="48.88781" lon="1.90196">
        <ele>111.481</ele>
        <time>2017-09-17T09:06:42.021Z</time>
      </trkpt>
      <trkpt lat="48.8879" lon="1.90201">
        <ele>111.365</ele>
        <time>2017-09-17T09:06:50.134Z</time>
      </trkpt>
      <trkpt lat="48.88798" lon="1.90208">
        <ele>111.289</ele>
        <time>2017-09-17T09:06:57.681Z</time>
      </trkpt>
      <trkpt lat="48.88806" lon="1.90214">
        <ele>111.309</ele>
        <time>2017-09-17T09:07:05.744Z</time>
      </trkpt>
      <trkpt lat="48.88814" lon="1.90221">
        <ele>111.408</ele>
        <time>2017-09-17T09:07:13.463Z</time>
      </trkpt>
      <trkpt lat="48.88823" lon="1.90227">
        <ele>111.534</ele>
        <time>2017-09-17T09:07:21.738Z</time>
      </trkpt>
      <trkpt lat="48.88832" lon="1.90231">
        <ele>111.646</ele>
        <time>2017-09-17T09:07:29.485Z</time>
      </trkpt>
      <trkpt lat="48.88841" lon="1.90235">
        <ele>111.771</ele>
        <time>2017-09-17T09:07:38.122Z</time>
      </trkpt>
      <trkpt lat="48.88851" lon="1.9024">
        <ele>111.948</ele>
        <time>2017-09-17T09:07:46.987Z</time>
      </trkpt>
      <trkpt lat="48.8886" lon="1.90245">
        <ele>112.141</ele>
        <time>2017-09-17T09:07:55.249Z</time>
      </trkpt>
      <trkpt lat="48.88868" lon="1.9025">
        <ele>112.31</ele>
        <time>2017-09-17T09:08:03.071Z</time>
      </trkpt>
      <trkpt lat="48.88877" lon="1.90255">
        <ele>112.433</ele>
        <time>2017-09-17T09:08:11.081Z</time>
      </trkpt>
      <trkpt lat="48.88886" lon="1.9026">
        <ele>112.52</ele>
        <time>2017-09-17T09:08:19.047Z</time>
      </trkpt>
      <trkpt lat="48.88895" lon="1.90264">
        <ele>112.607</ele>
        <time>2017-09-17T09:08:27.188Z</time>
      </trkpt>
      <trkpt lat="48.88904" lon="1.9027">
        <ele>112.712</ele>
        <time>2017-09-17T09:08:34.995Z</time>
      </trkpt>
      <trkpt lat="48.88915" lon="1.90275">
        <ele>112.81</ele>
        <time>2017-09-17T09:08:43.820Z</time>
      </trkpt>
      <trkpt lat="48.88924" lon="1.90279">
        <ele>112.872</ele>
        <time>2017-09-17T09:08:51.813Z</time>
      </trkpt>
      <trkpt lat="48.88933" lon="1.90284">
        <ele>112.891</ele>
        <time>2017-09-17T09:08:59.901Z</time>
      </trkpt>
      <trkpt lat="48.88941" lon="1.90292">
        <ele>112.879</ele>
        <time>2017-09-17T09:09:07.139Z</time>
      </trkpt>
      <trkpt lat="48.8895" lon="1.90296">
        <ele>112.842</ele>
        <time>2017-09-17T09:09:14.593Z</time>
      </trkpt>
      <trkpt lat="48.88958" lon="1.90301">
        <ele>112.795</ele>
        <time>2017-09-17T09:09:22.564Z</time>
      </trkpt>
      <trkpt lat="48.88967" lon="1.90307">
        <ele>112.779</ele>
        <time>2017-09-17T09:09:30.540Z</time>
      </trkpt>
      <trkpt lat="48.88977" lon="1.90312">
        <ele>112.829</ele>
        <time>2017-09-17T09:09:38.611Z</time>
      </trkpt>
      <trkpt lat="48.88987" lon="1.90315">
        <ele>112.944</ele>
        <time>2017-09-17T09:09:46.693Z</time>
      </trkpt>
      <trkpt lat="48.88996" lon="1.90319">
        <ele>113.088</ele>
        <time>2017-09-17T09:09:54.517Z</time>
      </trkpt>
      <trkpt lat="48.89005" lon="1.90323">
        <ele>113.199</ele>
        <time>2017-09-17T09:10:02.353Z</time>
      </trkpt>
      <trkpt lat="48.89014" lon="1.90327">
        <ele>113.247</ele>
        <time>2017-09-17T09:10:10.190Z</time>
      </trkpt>
      <trkpt lat="48.89024" lon="1.90334">
        <ele>113.279</ele>
        <time>2017-09-17T09:10:18.429Z</time>
      </trkpt>
      <trkpt lat="48.89033" lon="1.9034">
        <ele>113.359</ele>
        <time>2017-09-17T09:10:26.288Z</time>
      </trkpt>
      <trkpt lat="48.89042" lon="1.90344">
        <ele>113.471</ele>
        <time>2017-09-17T09:10:34.161Z</time>
      </trkpt>
      <trkpt lat="48.89051" lon="1.9035">
        <ele>113.537</ele>
        <time>2017-09-17T09:10:42.657Z</time>
      </trkpt>
      <trkpt lat="48.89059" lon="1.90354">
        <ele>113.526</ele>
        <time>2017-09-17T09:10:51.216Z</time>
      </trkpt>
      <trkpt lat="48.89068" lon="1.90359">
        <ele>113.478</ele>
        <time>2017-09-17T09:11:00.351Z</time>
      </trkpt>
      <trkpt lat="48.89077" lon="1.90365">
        <ele>113.427</ele>
        <time>2017-09-17T09:11:09.367Z</time>
      </trkpt>
      <trkpt lat="48.89086" lon="1.9037">
        <ele>113.349</ele>
        <time>2017-09-17T09:11:18.238Z</time>
      </trkpt>
      <trkpt lat="48.89095" lon="1.90374">
        <ele>113.179</ele>
        <time>2017-09-17T09:11:26.492Z</time>
      </trkpt>
      <trkpt lat="48.89105" lon="1.90379">
        <ele>112.919</ele>
        <time>2017-09-17T09:11:35.791Z</time>
      </trkpt>
      <trkpt lat="48.89112" lon="1.90389">
        <ele>112.67</ele>
        <time>2017-09-17T09:11:45.222Z</time>
      </trkpt>
      <trkpt lat="48.89119" lon="1.90399">
        <ele>112.506</ele>
        <time>2017-09-17T09:11:53.606Z</time>
      </trkpt>
      <trkpt lat="48.89128" lon="1.90407">
        <ele>112.421</ele>
        <time>2017-09-17T09:12:01.918Z</time>
      </trkpt>
      <trkpt lat="48.89138" lon="1.90412">
        <ele>112.352</ele>
        <time>2017-09-17T09:12:09.733Z</time>
      </trkpt>
      <trkpt lat="48.89147" lon="1.90417">
        <ele>112.208</ele>
        <time>2017-09-17T09:12:17.727Z</time>
      </trkpt>
      <trkpt lat="48.89156" lon="1.90422">
        <ele>111.939</ele>
        <time>2017-09-17T09:12:24.831Z</time>
      </trkpt>
      <trkpt lat="48.89165" lon="1.90429">
        <ele>111.588</ele>
        <time>2017-09-17T09:12:32.540Z</time>
      </trkpt>
      <trkpt lat="48.89174" lon="1.90436">
        <ele>111.227</ele>
        <time>2017-09-17T09:12:40.517Z</time>
      </trkpt>
      <trkpt lat="48.89181" lon="1.90444">
        <ele>110.909</ele>
        <time>2017-09-17T09:12:47.749Z</time>
      </trkpt>
      <trkpt lat="48.8919" lon="1.90452">
        <ele>110.644</ele>
        <time>2017-09-17T09:12:55.431Z</time>
      </trkpt>
      <trkpt lat="48.89199" lon="1.90456">
        <ele>110.391</ele>
        <time>2017-09-17T09:13:02.686Z</time>
      </trkpt>
      <trkpt lat="48.89208" lon="1.90461">
        <ele>110.076</ele>
        <time>2017-09-17T09:13:10.279Z</time>
      </trkpt>
      <trkpt lat="48.89219" lon="1.90468">
        <ele>109.714</ele>
        <time>2017-09-17T09:13:20.100Z</time>
      </trkpt>
      <trkpt lat="48.89228" lon="1.90473">
        <ele>109.375</ele>
        <time>2017-09-17T09:13:28.314Z</time>
      </trkpt>
      <trkpt lat="48.89237" lon="1.9048">
        <ele>109.066</ele>
        <time>2017-09-17T09:13:35.761Z</time>
      </trkpt>
      <trkpt lat="48.89245" lon="1.90488">
        <ele>108.793</ele>
        <time>2017-09-17T09:13:43.137Z</time>
      </trkpt>
      <trkpt lat="48.89253" lon="1.90495">
        <ele>108.545</ele>
        <time>2017-09-17T09:13:51.060Z</time>
      </trkpt>
      <trkpt lat="48.89262" lon="1.90501">
        <ele>108.23</ele>
        <time>2017-09-17T09:13:59.518Z</time>
      </trkpt>
      <trkpt lat="48.89271" lon="1.90505">
        <ele>107.872</ele>
        <time>2017-09-17T09:14:07.458Z</time>
      </trkpt>
      <trkpt lat="48.89279" lon="1.90511">
        <ele>107.617</ele>
        <time>2017-09-17T09:14:15.456Z</time>
      </trkpt>
      <trkpt lat="48.89289" lon="1.90514">
        <ele>107.495</ele>
        <time>2017-09-17T09:14:23.932Z</time>
      </trkpt>
      <trkpt lat="48.89297" lon="1.90519">
        <ele>107.445</ele>
        <time>2017-09-17T09:14:31.999Z</time>
      </trkpt>
      <trkpt lat="48.89297" lon="1.90519">
        <ele>107.413</ele>
        <time>2017-09-17T09:14:39.999Z</time>
      </trkpt>
      <trkpt lat="48.89297" lon="1.90519">
        <ele>107.372</ele>
        <time>2017-09-17T09:20:27.330Z</time>
      </trkpt>
      <trkpt lat="48.89307" lon="1.90543">
        <ele>107.329</ele>
        <time>2017-09-17T09:20:55.170Z</time>
      </trkpt>
      <trkpt lat="48.89315" lon="1.90552">
        <ele>106.541</ele>
        <time>2017-09-17T09:21:03.478Z</time>
      </trkpt>
      <trkpt lat="48.89326" lon="1.9056">
        <ele>104.552</ele>
        <time>2017-09-17T09:21:12.671Z</time>
      </trkpt>
      <trkpt lat="48.89333" lon="1.9057">
        <ele>102.582</ele>
        <time>2017-09-17T09:21:19.094Z</time>
      </trkpt>
      <trkpt lat="48.8934" lon="1.90581">
        <ele>101.79</ele>
        <time>2017-09-17T09:21:25.936Z</time>
      </trkpt>
      <trkpt lat="48.89347" lon="1.90591">
        <ele>101.841</ele>
        <time>2017-09-17T09:21:32.750Z</time>
      </trkpt>
      <trkpt lat="48.89353" lon="1.90602">
        <ele>102.171</ele>
        <time>2017-09-17T09:21:39.261Z</time>
      </trkpt>
      <trkpt lat="48.8936" lon="1.90612">
        <ele>102.507</ele>
        <time>2017-09-17T09:21:46.154Z</time>
      </trkpt>
      <trkpt lat="48.89367" lon="1.90621">
        <ele>102.771</ele>
        <time>2017-09-17T09:21:53.056Z</time>
      </trkpt>
      <trkpt lat="48.89374" lon="1.90631">
        <ele>102.976</ele>
        <time>2017-09-17T09:22:00.396Z</time>
      </trkpt>
      <trkpt lat="48.89381" lon="1.90641">
        <ele>103.156</ele>
        <time>2017-09-17T09:22:07.234Z</time>
      </trkpt>
      <trkpt lat="48.89388" lon="1.90651">
        <ele>103.357</ele>
        <time>2017-09-17T09:22:15.043Z</time>
      </trkpt>
      <trkpt lat="48.89395" lon="1.90661">
        <ele>103.591</ele>
        <time>2017-09-17T09:22:22.250Z</time>
      </trkpt>
      <trkpt lat="48.89403" lon="1.90668">
        <ele>103.825</ele>
        <time>2017-09-17T09:22:29.565Z</time>
      </trkpt>
      <trkpt lat="48.89411" lon="1.90678">
        <ele>104.04</ele>
        <time>2017-09-17T09:22:37.210Z</time>
      </trkpt>
      <trkpt lat="48.89417" lon="1.90688">
        <ele>104.249</ele>
        <time>2017-09-17T09:22:44.335Z</time>
      </trkpt>
      <trkpt lat="48.89425" lon="1.90698">
        <ele>104.46</ele>
        <time>2017-09-17T09:22:51.553Z</time>
      </trkpt>
      <trkpt lat="48.89432" lon="1.90708">
        <ele>104.696</ele>
        <time>2017-09-17T09:22:58.378Z</time>
      </trkpt>
      <trkpt lat="48.89437" lon="1.9072">
        <ele>104.99</ele>
        <time>2017-09-17T09:23:05.707Z</time>
      </trkpt>
      <trkpt lat="48.89443" lon="1.90731">
        <ele>105.32</ele>
        <time>2017-09-17T09:23:13.182Z</time>
      </trkpt>
      <trkpt lat="48.89451" lon="1.9074">
        <ele>105.615</ele>
        <time>2017-09-17T09:23:21.252Z</time>
      </trkpt>
      <trkpt lat="48.89457" lon="1.90751">
        <ele>105.911</ele>
        <time>2017-09-17T09:23:28.772Z</time>
      </trkpt>
      <trkpt lat="48.89464" lon="1.90762">
        <ele>106.249</ele>
        <time>2017-09-17T09:23:36.411Z</time>
      </trkpt>
      <trkpt lat="48.89471" lon="1.90772">
        <ele>106.614</ele>
        <time>2017-09-17T09:23:43.566Z</time>
      </trkpt>
      <trkpt lat="48.89478" lon="1.90783">
        <ele>107.052</ele>
        <time>2017-09-17T09:23:50.779Z</time>
      </trkpt>
      <trkpt lat="48.89483" lon="1.90796">
        <ele>107.583</ele>
        <time>2017-09-17T09:23:58.179Z</time>
      </trkpt>
      <trkpt lat="48.8949" lon="1.90807">
        <ele>108.127</ele>
        <time>2017-09-17T09:24:05.535Z</time>
      </trkpt>
      <trkpt lat="48.89498" lon="1.90814">
        <ele>108.703</ele>
        <time>2017-09-17T09:24:12.007Z</time>
      </trkpt>
      <trkpt lat="48.89506" lon="1.90823">
        <ele>109.336</ele>
        <time>2017-09-17T09:24:18.831Z</time>
      </trkpt>
      <trkpt lat="48.89514" lon="1.9083">
        <ele>109.913</ele>
        <time>2017-09-17T09:24:26.105Z</time>
      </trkpt>
      <trkpt lat="48.89523" lon="1.90836">
        <ele>110.377</ele>
        <time>2017-09-17T09:24:33.822Z</time>
      </trkpt>
      <trkpt lat="48.89531" lon="1.90842">
        <ele>110.873</ele>
        <time>2017-09-17T09:24:41.531Z</time>
      </trkpt>
      <trkpt lat="48.8954" lon="1.9085">
        <ele>111.529</ele>
        <time>2017-09-17T09:24:48.903Z</time>
      </trkpt>
      <trkpt lat="48.89548" lon="1.90856">
        <ele>112.267</ele>
        <time>2017-09-17T09:24:56.000Z</time>
      </trkpt>
      <trkpt lat="48.89548" lon="1.90856">
        <ele>112.865</ele>
        <time>2017-09-17T09:25:00.000Z</time>
      </trkpt>
      <trkpt lat="48.89548" lon="1.90856">
        <ele>113.122</ele>
        <time>2017-09-17T09:26:29.772Z</time>
      </trkpt>
      <trkpt lat="48.89559" lon="1.90863">
        <ele>113.044</ele>
        <time>2017-09-17T09:26:45.587Z</time>
      </trkpt>
      <trkpt lat="48.89567" lon="1.90869">
        <ele>113.462</ele>
        <time>2017-09-17T09:26:54.740Z</time>
      </trkpt>
      <trkpt lat="48.89576" lon="1.90874">
        <ele>114.958</ele>
        <time>2017-09-17T09:27:03.436Z</time>
      </trkpt>
      <trkpt lat="48.89585" lon="1.90879">
        <ele>116.709</ele>
        <time>2017-09-17T09:27:10.362Z</time>
      </trkpt>
      <trkpt lat="48.89594" lon="1.90885">
        <ele>117.839</ele>
        <time>2017-09-17T09:27:16.616Z</time>
      </trkpt>
      <trkpt lat="48.89602" lon="1.90894">
        <ele>118.407</ele>
        <time>2017-09-17T09:27:24.282Z</time>
      </trkpt>
      <trkpt lat="48.89611" lon="1.90899">
        <ele>118.672</ele>
        <time>2017-09-17T09:27:33.287Z</time>
      </trkpt>
      <trkpt lat="48.8962" lon="1.90904">
        <ele>119.009</ele>
        <time>2017-09-17T09:27:43.527Z</time>
      </trkpt>
      <trkpt lat="48.89628" lon="1.90911">
        <ele>119.633</ele>
        <time>2017-09-17T09:27:52.591Z</time>
      </trkpt>
      <trkpt lat="48.89636" lon="1.90915">
        <ele>120.394</ele>
        <time>2017-09-17T09:28:00.124Z</time>
      </trkpt>
      <trkpt lat="48.89644" lon="1.90923">
        <ele>121.104</ele>
        <time>2017-09-17T09:28:07.790Z</time>
      </trkpt>
      <trkpt lat="48.89653" lon="1.90928">
        <ele>121.825</ele>
        <time>2017-09-17T09:28:15.842Z</time>
      </trkpt>
      <trkpt lat="48.89661" lon="1.90936">
        <ele>122.689</ele>
        <time>2017-09-17T09:28:24.342Z</time>
      </trkpt>
      <trkpt lat="48.89669" lon="1.90946">
        <ele>123.645</ele>
        <time>2017-09-17T09:28:32.807Z</time>
      </trkpt>
      <trkpt lat="48.89676" lon="1.90955">
        <ele>124.527</ele>
        <time>2017-09-17T09:28:40.941Z</time>
      </trkpt>
      <trkpt lat="48.89689" lon="1.90968">
        <ele>125.301</ele>
        <time>2017-09-17T09:28:56.491Z</time>
      </trkpt>
      <trkpt lat="48.89699" lon="1.90968">
        <ele>126.126</ele>
        <time>2017-09-17T09:29:07.714Z</time>
      </trkpt>
      <trkpt lat="48.89708" lon="1.90971">
        <ele>127.254</ele>
        <time>2017-09-17T09:29:19.010Z</time>
      </trkpt>
      <trkpt lat="48.89715" lon="1.90981">
        <ele>128.598</ele>
        <time>2017-09-17T09:29:28.663Z</time>
      </trkpt>
      <trkpt lat="48.89725" lon="1.90985">
        <ele>129.766</ele>
        <time>2017-09-17T09:29:39.685Z</time>
      </trkpt>
      <trkpt lat="48.89734" lon="1.90987">
        <ele>130.648</ele>
        <time>2017-09-17T09:29:49.190Z</time>
      </trkpt>
      <trkpt lat="48.89743" lon="1.90996">
        <ele>131.418</ele>
        <time>2017-09-17T09:29:57.595Z</time>
      </trkpt>
      <trkpt lat="48.89751" lon="1.91004">
        <ele>132.191</ele>
        <time>2017-09-17T09:30:05.620Z</time>
      </trkpt>
      <trkpt lat="48.89759" lon="1.91008">
        <ele>132.985</ele>
        <time>2017-09-17T09:30:14.006Z</time>
      </trkpt>
      <trkpt lat="48.89769" lon="1.91015">
        <ele>133.788</ele>
        <time>2017-09-17T09:30:24.974Z</time>
      </trkpt>
      <trkpt lat="48.89779" lon="1.91017">
        <ele>134.659</ele>
        <time>2017-09-17T09:30:34.390Z</time>
      </trkpt>
      <trkpt lat="48.89788" lon="1.91024">
        <ele>135.611</ele>
        <time>2017-09-17T09:30:41.629Z</time>
      </trkpt>
      <trkpt lat="48.89797" lon="1.91025">
        <ele>136.506</ele>
        <time>2017-09-17T09:30:49.587Z</time>
      </trkpt>
      <trkpt lat="48.89806" lon="1.91031">
        <ele>137.274</ele>
        <time>2017-09-17T09:30:58.153Z</time>
      </trkpt>
      <trkpt lat="48.89815" lon="1.91035">
        <ele>137.968</ele>
        <time>2017-09-17T09:31:05.768Z</time>
      </trkpt>
      <trkpt lat="48.89824" lon="1.91041">
        <ele>138.601</ele>
        <time>2017-09-17T09:31:13.879Z</time>
      </trkpt>
      <trkpt lat="48.89832" lon="1.91048">
        <ele>139.196</ele>
        <time>2017-09-17T09:31:22.244Z</time>
      </trkpt>
      <trkpt lat="48.8984" lon="1.91058">
        <ele>139.792</ele>
        <time>2017-09-17T09:31:32.774Z</time>
      </trkpt>
      <trkpt lat="48.89848" lon="1.91063">
        <ele>140.453</ele>
        <time>2017-09-17T09:31:42.689Z</time>
      </trkpt>
      <trkpt lat="48.89858" lon="1.91064">
        <ele>141.188</ele>
        <time>2017-09-17T09:31:50.695Z</time>
      </trkpt>
      <trkpt lat="48.89868" lon="1.91069">
        <ele>141.893</ele>
        <time>2017-09-17T09:31:58.280Z</time>
      </trkpt>
      <trkpt lat="48.89878" lon="1.91073">
        <ele>142.433</ele>
        <time>2017-09-17T09:32:05.725Z</time>
      </trkpt>
      <trkpt lat="48.89887" lon="1.91076">
        <ele>142.801</ele>
        <time>2017-09-17T09:32:13.848Z</time>
      </trkpt>
      <trkpt lat="48.89896" lon="1.91082">
        <ele>143.101</ele>
        <time>2017-09-17T09:32:22.242Z</time>
      </trkpt>
      <trkpt lat="48.89906" lon="1.91086">
        <ele>143.425</ele>
        <time>2017-09-17T09:32:29.627Z</time>
      </trkpt>
      <trkpt lat="48.89914" lon="1.91093">
        <ele>143.777</ele>
        <time>2017-09-17T09:32:36.376Z</time>
      </trkpt>
      <trkpt lat="48.89922" lon="1.91101">
        <ele>144.176</ele>
        <time>2017-09-17T09:32:46.203Z</time>
      </trkpt>
      <trkpt lat="48.89931" lon="1.91106">
        <ele>144.698</ele>
        <time>2017-09-17T09:32:57.768Z</time>
      </trkpt>
      <trkpt lat="48.89939" lon="1.91111">
        <ele>145.347</ele>
        <time>2017-09-17T09:33:07.074Z</time>
      </trkpt>
      <trkpt lat="48.89949" lon="1.91117">
        <ele>146.02</ele>
        <time>2017-09-17T09:33:15.163Z</time>
      </trkpt>
      <trkpt lat="48.89959" lon="1.91117">
        <ele>146.694</ele>
        <time>2017-09-17T09:33:22.366Z</time>
      </trkpt>
      <trkpt lat="48.89967" lon="1.91125">
        <ele>147.458</ele>
        <time>2017-09-17T09:33:30.013Z</time>
      </trkpt>
      <trkpt lat="48.89975" lon="1.9113">
        <ele>148.314</ele>
        <time>2017-09-17T09:33:38.000Z</time>
      </trkpt>
      <trkpt lat="48.89975" lon="1.9113">
        <ele>149.057</ele>
        <time>2017-09-17T09:33:43.000Z</time>
      </trkpt>
      <trkpt lat="48.89975" lon="1.9113">
        <ele>149.388</ele>
        <time>2017-09-17T09:33:43.100Z</time>
      </trkpt>
      <trkpt lat="48.89984" lon="1.9114">
        <ele>149.288</ele>
        <time>2017-09-17T09:33:55.846Z</time>
      </trkpt>
      <trkpt lat="48.89994" lon="1.91143">
        <ele>149.38</ele>
        <time>2017-09-17T09:34:04.524Z</time>
      </trkpt>
      <trkpt lat="48.90004" lon="1.91148">
        <ele>150.249</ele>
        <time>2017-09-17T09:34:14.084Z</time>
      </trkpt>
      <trkpt lat="48.90013" lon="1.91152">
        <ele>151.653</ele>
        <time>2017-09-17T09:34:24.414Z</time>
      </trkpt>
      <trkpt lat="48.9002" lon="1.91162">
        <ele>153.09</ele>
        <time>2017-09-17T09:34:35.510Z</time>
      </trkpt>
      <trkpt lat="48.9003" lon="1.91165">
        <ele>154.515</ele>
        <time>2017-09-17T09:34:47.318Z</time>
      </trkpt>
      <trkpt lat="48.90039" lon="1.9117">
        <ele>156.139</ele>
        <time>2017-09-17T09:34:57.966Z</time>
      </trkpt>
      <trkpt lat="48.90049" lon="1.91169">
        <ele>158.067</ele>
        <time>2017-09-17T09:35:09.256Z</time>
      </trkpt>
      <trkpt lat="48.90058" lon="1.91168">
        <ele>160.243</ele>
        <time>2017-09-17T09:35:18.721Z</time>
      </trkpt>
      <trkpt lat="48.90067" lon="1.91165">
        <ele>162.441</ele>
        <time>2017-09-17T09:35:28.215Z</time>
      </trkpt>
      <trkpt lat="48.90077" lon="1.91166">
        <ele>164.348</ele>
        <time>2017-09-17T09:35:39.002Z</time>
      </trkpt>
      <trkpt lat="48.90087" lon="1.91166">
        <ele>165.967</ele>
        <time>2017-09-17T09:35:49.442Z</time>
      </trkpt>
      <trkpt lat="48.90096" lon="1.91169">
        <ele>167.565</ele>
        <time>2017-09-17T09:35:58.967Z</time>
      </trkpt>
      <trkpt lat="48.90106" lon="1.91169">
        <ele>169.161</ele>
        <time>2017-09-17T09:36:09.410Z</time>
      </trkpt>
      <trkpt lat="48.90116" lon="1.91168">
        <ele>170.586</ele>
        <time>2017-09-17T09:36:20.000Z</time>
      </trkpt>
      <trkpt lat="48.90116" lon="1.91168">
        <ele>171.636</ele>
        <time>2017-09-17T09:36:26.000Z</time>
      </trkpt>
      <trkpt lat="48.90116" lon="1.91168">
        <ele>172.081</ele>
        <time>2017-09-17T09:36:26.100Z</time>
      </trkpt>
      <trkpt lat="48.90124" lon="1.91174">
        <ele>171.643</ele>
        <time>2017-09-17T09:38:00.661Z</time>
      </trkpt>
      <trkpt lat="48.90133" lon="1.91174">
        <ele>171.672</ele>
        <time>2017-09-17T09:38:09.000Z</time>
      </trkpt>
      <trkpt lat="48.90133" lon="1.91174">
        <ele>172.203</ele>
        <time>2017-09-17T09:38:10.000Z</time>
      </trkpt>
      <trkpt lat="48.90133" lon="1.91174">
        <ele>172.672</ele>
        <time>2017-09-17T09:38:22.334Z</time>
      </trkpt>
      <trkpt lat="48.90125" lon="1.9117">
        <ele>172.261</ele>
        <time>2017-09-17T09:38:50.000Z</time>
      </trkpt>
      <trkpt lat="48.90125" lon="1.9117">
        <ele>172.036</ele>
        <time>2017-09-17T09:38:54.000Z</time>
      </trkpt>
      <trkpt lat="48.90125" lon="1.9117">
        <ele>171.978</ele>
        <time>2017-09-17T09:42:28.699Z</time>
      </trkpt>
      <trkpt lat="48.90124" lon="1.91144">
        <ele>172.007</ele>
        <time>2017-09-17T09:42:51.440Z</time>
      </trkpt>
      <trkpt lat="48.90125" lon="1.9113">
        <ele>172.203</ele>
        <time>2017-09-17T09:42:57.803Z</time>
      </trkpt>
      <trkpt lat="48.90126" lon="1.91116">
        <ele>172.635</ele>
        <time>2017-09-17T09:43:04.180Z</time>
      </trkpt>
      <trkpt lat="48.90128" lon="1.911">
        <ele>173.066</ele>
        <time>2017-09-17T09:43:11.308Z</time>
      </trkpt>
      <trkpt lat="48.9013" lon="1.91087">
        <ele>173.294</ele>
        <time>2017-09-17T09:43:17.367Z</time>
      </trkpt>
      <trkpt lat="48.90134" lon="1.91073">
        <ele>173.393</ele>
        <time>2017-09-17T09:43:23.884Z</time>
      </trkpt>
      <trkpt lat="48.90137" lon="1.91058">
        <ele>173.449</ele>
        <time>2017-09-17T09:43:30.792Z</time>
      </trkpt>
      <trkpt lat="48.90143" lon="1.91047">
        <ele>173.515</ele>
        <time>2017-09-17T09:43:38.373Z</time>
      </trkpt>
      <trkpt lat="48.90144" lon="1.91031">
        <ele>173.62</ele>
        <time>2017-09-17T09:43:48.275Z</time>
      </trkpt>
      <trkpt lat="48.90147" lon="1.91016">
        <ele>173.779</ele>
        <time>2017-09-17T09:43:58.367Z</time>
      </trkpt>
      <trkpt lat="48.90152" lon="1.91004">
        <ele>173.963</ele>
        <time>2017-09-17T09:44:05.823Z</time>
      </trkpt>
      <trkpt lat="48.9015" lon="1.9099">
        <ele>174.099</ele>
        <time>2017-09-17T09:44:12.928Z</time>
      </trkpt>
      <trkpt lat="48.90156" lon="1.90981">
        <ele>174.141</ele>
        <time>2017-09-17T09:44:20.839Z</time>
      </trkpt>
      <trkpt lat="48.90156" lon="1.90966">
        <ele>174.131</ele>
        <time>2017-09-17T09:44:29.999Z</time>
      </trkpt>
      <trkpt lat="48.90156" lon="1.90966">
        <ele>174.112</ele>
        <time>2017-09-17T09:44:32.999Z</time>
      </trkpt>
      <trkpt lat="48.90156" lon="1.90966">
        <ele>174.074</ele>
        <time>2017-09-17T09:44:33.099Z</time>
      </trkpt>
      <trkpt lat="48.90159" lon="1.90951">
        <ele>174.006</ele>
        <time>2017-09-17T09:44:46.293Z</time>
      </trkpt>
      <trkpt lat="48.90164" lon="1.9094">
        <ele>173.945</ele>
        <time>2017-09-17T09:44:53.812Z</time>
      </trkpt>
      <trkpt lat="48.90169" lon="1.90929">
        <ele>173.914</ele>
        <time>2017-09-17T09:45:00.754Z</time>
      </trkpt>
      <trkpt lat="48.90173" lon="1.90915">
        <ele>173.898</ele>
        <time>2017-09-17T09:45:07.653Z</time>
      </trkpt>
      <trkpt lat="48.90175" lon="1.90901">
        <ele>173.869</ele>
        <time>2017-09-17T09:45:15.014Z</time>
      </trkpt>
      <trkpt lat="48.90177" lon="1.90887">
        <ele>173.783</ele>
        <time>2017-09-17T09:45:22.657Z</time>
      </trkpt>
      <trkpt lat="48.9018" lon="1.90872">
        <ele>173.643</ele>
        <time>2017-09-17T09:45:30.718Z</time>
      </trkpt>
      <trkpt lat="48.90183" lon="1.9086">
        <ele>173.994</ele>
        <time>2017-09-17T09:45:37.428Z</time>
      </trkpt>
      <trkpt lat="48.90186" lon="1.90845">
        <ele>175.224</ele>
        <time>2017-09-17T09:45:44.778Z</time>
      </trkpt>
      <trkpt lat="48.90191" lon="1.90832">
        <ele>176.62</ele>
        <time>2017-09-17T09:45:52.209Z</time>
      </trkpt>
      <trkpt lat="48.90194" lon="1.90819">
        <ele>177.387</ele>
        <time>2017-09-17T09:45:59.252Z</time>
      </trkpt>
      <trkpt lat="48.90195" lon="1.90805">
        <ele>177.59</ele>
        <time>2017-09-17T09:46:06.678Z</time>
      </trkpt>
      <trkpt lat="48.90198" lon="1.90791">
        <ele>177.539</ele>
        <time>2017-09-17T09:46:13.893Z</time>
      </trkpt>
      <trkpt lat="48.90202" lon="1.90777">
        <ele>177.449</ele>
        <time>2017-09-17T09:46:20.858Z</time>
      </trkpt>
      <trkpt lat="48.90207" lon="1.90765">
        <ele>177.401</ele>
        <time>2017-09-17T09:46:28.413Z</time>
      </trkpt>
      <trkpt lat="48.9021" lon="1.9075">
        <ele>177.392</ele>
        <time>2017-09-17T09:46:36.239Z</time>
      </trkpt>
      <trkpt lat="48.90214" lon="1.90735">
        <ele>177.398</ele>
        <time>2017-09-17T09:46:43.648Z</time>
      </trkpt>
      <trkpt lat="48.90216" lon="1.90722">
        <ele>177.373</ele>
        <time>2017-09-17T09:46:50.308Z</time>
      </trkpt>
      <trkpt lat="48.90221" lon="1.90709">
        <ele>177.233</ele>
        <time>2017-09-17T09:46:57.531Z</time>
      </trkpt>
      <trkpt lat="48.90225" lon="1.90696">
        <ele>176.99</ele>
        <time>2017-09-17T09:47:06.465Z</time>
      </trkpt>
      <trkpt lat="48.90229" lon="1.90683">
        <ele>176.752</ele>
        <time>2017-09-17T09:47:15.015Z</time>
      </trkpt>
      <trkpt lat="48.90232" lon="1.90669">
        <ele>176.582</ele>
        <time>2017-09-17T09:47:22.246Z</time>
      </trkpt>
      <trkpt lat="48.90233" lon="1.90655">
        <ele>176.462</ele>
        <time>2017-09-17T09:47:28.999Z</time>
      </trkpt>
      <trkpt lat="48.90233" lon="1.90655">
        <ele>176.365</ele>
        <time>2017-09-17T09:47:30.999Z</time>
      </trkpt>
      <trkpt lat="48.90233" lon="1.90655">
        <ele>176.288</ele>
        <time>2017-09-17T09:47:39.020Z</time>
      </trkpt>
      <trkpt lat="48.90228" lon="1.90644">
        <ele>176.237</ele>
        <time>2017-09-17T09:47:57.102Z</time>
      </trkpt>
      <trkpt lat="48.90229" lon="1.9063">
        <ele>176.111</ele>
        <time>2017-09-17T09:48:09.370Z</time>
      </trkpt>
      <trkpt lat="48.9022" lon="1.90625">
        <ele>175.753</ele>
        <time>2017-09-17T09:48:18.710Z</time>
      </trkpt>
      <trkpt lat="48.9021" lon="1.90624">
        <ele>175.177</ele>
        <time>2017-09-17T09:48:26.291Z</time>
      </trkpt>
      <trkpt lat="48.90201" lon="1.90621">
        <ele>174.596</ele>
        <time>2017-09-17T09:48:34.385Z</time>
      </trkpt>
      <trkpt lat="48.90192" lon="1.9062">
        <ele>173.977</ele>
        <time>2017-09-17T09:48:42.860Z</time>
      </trkpt>
      <trkpt lat="48.90183" lon="1.90616">
        <ele>173.097</ele>
        <time>2017-09-17T09:48:51.820Z</time>
      </trkpt>
      <trkpt lat="48.90174" lon="1.90614">
        <ele>172.025</ele>
        <time>2017-09-17T09:49:01.728Z</time>
      </trkpt>
      <trkpt lat="48.90166" lon="1.90606">
        <ele>170.898</ele>
        <time>2017-09-17T09:49:12.496Z</time>
      </trkpt>
      <trkpt lat="48.90159" lon="1.90598">
        <ele>169.491</ele>
        <time>2017-09-17T09:49:22.614Z</time>
      </trkpt>
      <trkpt lat="48.9015" lon="1.90592">
        <ele>167.731</ele>
        <time>2017-09-17T09:49:31.672Z</time>
      </trkpt>
      <trkpt lat="48.90142" lon="1.90585">
        <ele>165.928</ele>
        <time>2017-09-17T09:49:41.188Z</time>
      </trkpt>
      <trkpt lat="48.90136" lon="1.90574">
        <ele>164.371</ele>
        <time>2017-09-17T09:49:52.342Z</time>
      </trkpt>
      <trkpt lat="48.90127" lon="1.90568">
        <ele>162.9</ele>
        <time>2017-09-17T09:50:02.744Z</time>
      </trkpt>
      <trkpt lat="48.90119" lon="1.90562">
        <ele>161.265</ele>
        <time>2017-09-17T09:50:11.626Z</time>
      </trkpt>
      <trkpt lat="48.90111" lon="1.90551">
        <ele>159.551</ele>
        <time>2017-09-17T09:50:20.387Z</time>
      </trkpt>
      <trkpt lat="48.90106" lon="1.9054">
        <ele>158.036</ele>
        <time>2017-09-17T09:50:28.585Z</time>
      </trkpt>
      <trkpt lat="48.90099" lon="1.90529">
        <ele>156.774</ele>
        <time>2017-09-17T09:50:37.770Z</time>
      </trkpt>
      <trkpt lat="48.90092" lon="1.90519">
        <ele>155.647</ele>
        <time>2017-09-17T09:50:47.378Z</time>
      </trkpt>
      <trkpt lat="48.90089" lon="1.90506">
        <ele>154.542</ele>
        <time>2017-09-17T09:50:55.987Z</time>
      </trkpt>
      <trkpt lat="48.90084" lon="1.90494">
        <ele>153.505</ele>
        <time>2017-09-17T09:51:04.629Z</time>
      </trkpt>
      <trkpt lat="48.90082" lon="1.9048">
        <ele>152.564</ele>
        <time>2017-09-17T09:51:13.816Z</time>
      </trkpt>
      <trkpt lat="48.90077" lon="1.90465">
        <ele>151.685</ele>
        <time>2017-09-17T09:51:23.570Z</time>
      </trkpt>
      <trkpt lat="48.9007" lon="1.90454">
        <ele>150.915</ele>
        <time>2017-09-17T09:51:31.564Z</time>
      </trkpt>
      <trkpt lat="48.90065" lon="1.90443">
        <ele>150.333</ele>
        <time>2017-09-17T09:51:38.955Z</time>
      </trkpt>
      <trkpt lat="48.9006" lon="1.90429">
        <ele>149.811</ele>
        <time>2017-09-17T09:51:46.490Z</time>
      </trkpt>
      <trkpt lat="48.90055" lon="1.90418">
        <ele>149.107</ele>
        <time>2017-09-17T09:51:54.062Z</time>
      </trkpt>
      <trkpt lat="48.90049" lon="1.90406">
        <ele>148.177</ele>
        <time>2017-09-17T09:52:03.396Z</time>
      </trkpt>
      <trkpt lat="48.90043" lon="1.90395">
        <ele>147.128</ele>
        <time>2017-09-17T09:52:12.253Z</time>
      </trkpt>
      <trkpt lat="48.90034" lon="1.90386">
        <ele>146.083</ele>
        <time>2017-09-17T09:52:21.747Z</time>
      </trkpt>
      <trkpt lat="48.90028" lon="1.90376">
        <ele>145.173</ele>
        <time>2017-09-17T09:52:30.409Z</time>
      </trkpt>
      <trkpt lat="48.90023" lon="1.90364">
        <ele>144.452</ele>
        <time>2017-09-17T09:52:38.956Z</time>
      </trkpt>
      <trkpt lat="48.90015" lon="1.90357">
        <ele>143.84</ele>
        <time>2017-09-17T09:52:47.151Z</time>
      </trkpt>
      <trkpt lat="48.90006" lon="1.90351">
        <ele>143.313</ele>
        <time>2017-09-17T09:52:56.114Z</time>
      </trkpt>
      <trkpt lat="48.89999" lon="1.90341">
        <ele>142.905</ele>
        <time>2017-09-17T09:53:06.147Z</time>
      </trkpt>
      <trkpt lat="48.89993" lon="1.9033">
        <ele>142.457</ele>
        <time>2017-09-17T09:53:15.588Z</time>
      </trkpt>
      <trkpt lat="48.89986" lon="1.90319">
        <ele>141.798</ele>
        <time>2017-09-17T09:53:24.035Z</time>
      </trkpt>
      <trkpt lat="48.89979" lon="1.90309">
        <ele>141.07</ele>
        <time>2017-09-17T09:53:32.015Z</time>
      </trkpt>
      <trkpt lat="48.89973" lon="1.90295">
        <ele>140.384</ele>
        <time>2017-09-17T09:53:41.961Z</time>
      </trkpt>
      <trkpt lat="48.89968" lon="1.90283">
        <ele>139.569</ele>
        <time>2017-09-17T09:53:50.049Z</time>
      </trkpt>
      <trkpt lat="48.89966" lon="1.90269">
        <ele>138.602</ele>
        <time>2017-09-17T09:53:57.340Z</time>
      </trkpt>
      <trkpt lat="48.89962" lon="1.90255">
        <ele>137.688</ele>
        <time>2017-09-17T09:54:05.000Z</time>
      </trkpt>
      <trkpt lat="48.89959" lon="1.9024">
        <ele>136.919</ele>
        <time>2017-09-17T09:54:12.034Z</time>
      </trkpt>
      <trkpt lat="48.89955" lon="1.90227">
        <ele>136.255</ele>
        <time>2017-09-17T09:54:18.085Z</time>
      </trkpt>
      <trkpt lat="48.89953" lon="1.90214">
        <ele>135.683</ele>
        <time>2017-09-17T09:54:24.779Z</time>
      </trkpt>
      <trkpt lat="48.89952" lon="1.90199">
        <ele>135.139</ele>
        <time>2017-09-17T09:54:32.746Z</time>
      </trkpt>
      <trkpt lat="48.89953" lon="1.90185">
        <ele>134.469</ele>
        <time>2017-09-17T09:54:43.014Z</time>
      </trkpt>
      <trkpt lat="48.89952" lon="1.9017">
        <ele>133.522</ele>
        <time>2017-09-17T09:54:54.234Z</time>
      </trkpt>
      <trkpt lat="48.8995" lon="1.90156">
        <ele>132.268</ele>
        <time>2017-09-17T09:55:03.749Z</time>
      </trkpt>
      <trkpt lat="48.89945" lon="1.90143">
        <ele>130.889</ele>
        <time>2017-09-17T09:55:12.541Z</time>
      </trkpt>
      <trkpt lat="48.89941" lon="1.90131">
        <ele>129.648</ele>
        <time>2017-09-17T09:55:20.320Z</time>
      </trkpt>
      <trkpt lat="48.89934" lon="1.90118">
        <ele>128.645</ele>
        <time>2017-09-17T09:55:29.800Z</time>
      </trkpt>
      <trkpt lat="48.8993" lon="1.90106">
        <ele>127.8</ele>
        <time>2017-09-17T09:55:37.133Z</time>
      </trkpt>
      <trkpt lat="48.89921" lon="1.90098">
        <ele>127.039</ele>
        <time>2017-09-17T09:55:44.402Z</time>
      </trkpt>
      <trkpt lat="48.89916" lon="1.90087">
        <ele>126.412</ele>
        <time>2017-09-17T09:55:50.672Z</time>
      </trkpt>
      <trkpt lat="48.89919" lon="1.90072">
        <ele>125.956</ele>
        <time>2017-09-17T09:55:58.457Z</time>
      </trkpt>
      <trkpt lat="48.89923" lon="1.90058">
        <ele>125.5</ele>
        <time>2017-09-17T09:56:06.999Z</time>
      </trkpt>
      <trkpt lat="48.89923" lon="1.90058">
        <ele>124.979</ele>
        <time>2017-09-17T09:56:12.999Z</time>
      </trkpt>
      <trkpt lat="48.89923" lon="1.90058">
        <ele>124.638</ele>
        <time>2017-09-17T09:59:44.789Z</time>
      </trkpt>
      <trkpt lat="48.89932" lon="1.90041">
        <ele>124.605</ele>
        <time>2017-09-17T10:00:05.774Z</time>
      </trkpt>
      <trkpt lat="48.89941" lon="1.90035">
        <ele>124.491</ele>
        <time>2017-09-17T10:00:13.914Z</time>
      </trkpt>
      <trkpt lat="48.89949" lon="1.90026">
        <ele>123.911</ele>
        <time>2017-09-17T10:00:21.962Z</time>
      </trkpt>
      <trkpt lat="48.89957" lon="1.90016">
        <ele>123.041</ele>
        <time>2017-09-17T10:00:30.166Z</time>
      </trkpt>
      <trkpt lat="48.89966" lon="1.9001">
        <ele>122.274</ele>
        <time>2017-09-17T10:00:38.264Z</time>
      </trkpt>
      <trkpt lat="48.89975" lon="1.90004">
        <ele>121.706</ele>
        <time>2017-09-17T10:00:46.423Z</time>
      </trkpt>
      <trkpt lat="48.8998" lon="1.89991">
        <ele>121.187</ele>
        <time>2017-09-17T10:00:54.321Z</time>
      </trkpt>
      <trkpt lat="48.89986" lon="1.89981">
        <ele>120.641</ele>
        <time>2017-09-17T10:01:01.423Z</time>
      </trkpt>
      <trkpt lat="48.89993" lon="1.89969">
        <ele>120.126</ele>
        <time>2017-09-17T10:01:09.395Z</time>
      </trkpt>
      <trkpt lat="48.90001" lon="1.89962">
        <ele>119.635</ele>
        <time>2017-09-17T10:01:16.827Z</time>
      </trkpt>
      <trkpt lat="48.9001" lon="1.89955">
        <ele>119.144</ele>
        <time>2017-09-17T10:01:24.674Z</time>
      </trkpt>
      <trkpt lat="48.90018" lon="1.89949">
        <ele>118.628</ele>
        <time>2017-09-17T10:01:31.955Z</time>
      </trkpt>
      <trkpt lat="48.90026" lon="1.89939">
        <ele>118.115</ele>
        <time>2017-09-17T10:01:39.720Z</time>
      </trkpt>
      <trkpt lat="48.90033" lon="1.89931">
        <ele>117.686</ele>
        <time>2017-09-17T10:01:47.207Z</time>
      </trkpt>
      <trkpt lat="48.90041" lon="1.89921">
        <ele>117.259</ele>
        <time>2017-09-17T10:01:55.086Z</time>
      </trkpt>
      <trkpt lat="48.90048" lon="1.89912">
        <ele>116.76</ele>
        <time>2017-09-17T10:02:02.910Z</time>
      </trkpt>
      <trkpt lat="48.90056" lon="1.89903">
        <ele>116.325</ele>
        <time>2017-09-17T10:02:10.613Z</time>
      </trkpt>
      <trkpt lat="48.90066" lon="1.899">
        <ele>116.087</ele>
        <time>2017-09-17T10:02:19.286Z</time>
      </trkpt>
      <trkpt lat="48.90073" lon="1.89892">
        <ele>116.061</ele>
        <time>2017-09-17T10:02:27.282Z</time>
      </trkpt>
      <trkpt lat="48.90076" lon="1.89878">
        <ele>116.223</ele>
        <time>2017-09-17T10:02:35.134Z</time>
      </trkpt>
      <trkpt lat="48.90082" lon="1.89867">
        <ele>116.495</ele>
        <time>2017-09-17T10:02:42.600Z</time>
      </trkpt>
      <trkpt lat="48.90088" lon="1.89856">
        <ele>116.734</ele>
        <time>2017-09-17T10:02:49.525Z</time>
      </trkpt>
      <trkpt lat="48.90094" lon="1.89843">
        <ele>116.891</ele>
        <time>2017-09-17T10:02:56.888Z</time>
      </trkpt>
      <trkpt lat="48.90095" lon="1.89827">
        <ele>117.068</ele>
        <time>2017-09-17T10:03:04.346Z</time>
      </trkpt>
      <trkpt lat="48.90099" lon="1.89814">
        <ele>117.316</ele>
        <time>2017-09-17T10:03:11.301Z</time>
      </trkpt>
      <trkpt lat="48.90106" lon="1.89804">
        <ele>117.575</ele>
        <time>2017-09-17T10:03:18.717Z</time>
      </trkpt>
      <trkpt lat="48.90113" lon="1.89792">
        <ele>117.864</ele>
        <time>2017-09-17T10:03:27.019Z</time>
      </trkpt>
      <trkpt lat="48.90122" lon="1.89785">
        <ele>118.222</ele>
        <time>2017-09-17T10:03:34.905Z</time>
      </trkpt>
      <trkpt lat="48.90129" lon="1.89775">
        <ele>118.663</ele>
        <time>2017-09-17T10:03:43.272Z</time>
      </trkpt>
      <trkpt lat="48.90135" lon="1.89763">
        <ele>119.23</ele>
        <time>2017-09-17T10:03:51.489Z</time>
      </trkpt>
      <trkpt lat="48.90141" lon="1.89753">
        <ele>119.839</ele>
        <time>2017-09-17T10:03:59.376Z</time>
      </trkpt>
      <trkpt lat="48.90146" lon="1.89742">
        <ele>120.391</ele>
        <time>2017-09-17T10:04:07.664Z</time>
      </trkpt>
      <trkpt lat="48.90153" lon="1.89733">
        <ele>120.89</ele>
        <time>2017-09-17T10:04:15.938Z</time>
      </trkpt>
      <trkpt lat="48.90158" lon="1.89721">
        <ele>121.364</ele>
        <time>2017-09-17T10:04:23.263Z</time>
      </trkpt>
      <trkpt lat="48.90164" lon="1.89708">
        <ele>121.93</ele>
        <time>2017-09-17T10:04:30.556Z</time>
      </trkpt>
      <trkpt lat="48.90169" lon="1.89696">
        <ele>122.569</ele>
        <time>2017-09-17T10:04:37.927Z</time>
      </trkpt>
      <trkpt lat="48.90174" lon="1.89684">
        <ele>123.146</ele>
        <time>2017-09-17T10:04:46.090Z</time>
      </trkpt>
      <trkpt lat="48.9018" lon="1.89672">
        <ele>123.665</ele>
        <time>2017-09-17T10:04:54.462Z</time>
      </trkpt>
      <trkpt lat="48.90187" lon="1.89663">
        <ele>124.208</ele>
        <time>2017-09-17T10:05:01.732Z</time>
      </trkpt>
      <trkpt lat="48.90192" lon="1.89651">
        <ele>124.736</ele>
        <time>2017-09-17T10:05:09.907Z</time>
      </trkpt>
      <trkpt lat="48.90199" lon="1.89639">
        <ele>125.214</ele>
        <time>2017-09-17T10:05:18.204Z</time>
      </trkpt>
      <trkpt lat="48.90206" lon="1.89629">
        <ele>125.737</ele>
        <time>2017-09-17T10:05:26.039Z</time>
      </trkpt>
      <trkpt lat="48.90213" lon="1.8962">
        <ele>126.425</ele>
        <time>2017-09-17T10:05:33.620Z</time>
      </trkpt>
      <trkpt lat="48.9022" lon="1.89609">
        <ele>127.271</ele>
        <time>2017-09-17T10:05:41.881Z</time>
      </trkpt>
      <trkpt lat="48.90225" lon="1.89597">
        <ele>128.097</ele>
        <time>2017-09-17T10:05:49.626Z</time>
      </trkpt>
      <trkpt lat="48.90231" lon="1.89584">
        <ele>128.237</ele>
        <time>2017-09-17T10:05:57.469Z</time>
      </trkpt>
      <trkpt lat="48.90236" lon="1.89572">
        <ele>127.394</ele>
        <time>2017-09-17T10:06:05.105Z</time>
      </trkpt>
      <trkpt lat="48.90242" lon="1.8956">
        <ele>126.333</ele>
        <time>2017-09-17T10:06:12.992Z</time>
      </trkpt>
      <trkpt lat="48.90247" lon="1.89548">
        <ele>125.799</ele>
        <time>2017-09-17T10:06:20.839Z</time>
      </trkpt>
      <trkpt lat="48.90253" lon="1.89535">
        <ele>125.744</ele>
        <time>2017-09-17T10:06:29.530Z</time>
      </trkpt>
      <trkpt lat="48.90259" lon="1.89524">
        <ele>125.898</ele>
        <time>2017-09-17T10:06:37.387Z</time>
      </trkpt>
      <trkpt lat="48.90268" lon="1.89523">
        <ele>126.095</ele>
        <time>2017-09-17T10:06:45.788Z</time>
      </trkpt>
      <trkpt lat="48.90274" lon="1.89534">
        <ele>126.311</ele>
        <time>2017-09-17T10:06:54.015Z</time>
      </trkpt>
      <trkpt lat="48.90281" lon="1.89542">
        <ele>126.616</ele>
        <time>2017-09-17T10:07:01.632Z</time>
      </trkpt>
      <trkpt lat="48.90289" lon="1.89551">
        <ele>127.108</ele>
        <time>2017-09-17T10:07:10.224Z</time>
      </trkpt>
      <trkpt lat="48.90297" lon="1.8956">
        <ele>127.813</ele>
        <time>2017-09-17T10:07:19.133Z</time>
      </trkpt>
      <trkpt lat="48.90303" lon="1.89569">
        <ele>128.562</ele>
        <time>2017-09-17T10:07:28.000Z</time>
      </trkpt>
      <trkpt lat="48.90303" lon="1.89569">
        <ele>129.069</ele>
        <time>2017-09-17T10:07:28.000Z</time>
      </trkpt>
      <trkpt lat="48.90303" lon="1.89569">
        <ele>129.206</ele>
        <time>2017-09-17T10:08:41.847Z</time>
      </trkpt>
      <trkpt lat="48.90293" lon="1.89547">
        <ele>129.05</ele>
        <time>2017-09-17T10:09:08.572Z</time>
      </trkpt>
      <trkpt lat="48.90286" lon="1.89538">
        <ele>128.748</ele>
        <time>2017-09-17T10:09:16.905Z</time>
      </trkpt>
      <trkpt lat="48.90278" lon="1.8953">
        <ele>128.423</ele>
        <time>2017-09-17T10:09:24.815Z</time>
      </trkpt>
      <trkpt lat="48.90271" lon="1.89522">
        <ele>128.015</ele>
        <time>2017-09-17T10:09:32.668Z</time>
      </trkpt>
      <trkpt lat="48.9027" lon="1.89506">
        <ele>127.474</ele>
        <time>2017-09-17T10:09:42.758Z</time>
      </trkpt>
      <trkpt lat="48.90274" lon="1.89494">
        <ele>126.97</ele>
        <time>2017-09-17T10:09:52.900Z</time>
      </trkpt>
      <trkpt lat="48.90276" lon="1.8948">
        <ele>126.619</ele>
        <time>2017-09-17T10:10:01.448Z</time>
      </trkpt>
      <trkpt lat="48.90281" lon="1.89466">
        <ele>126.311</ele>
        <time>2017-09-17T10:10:09.220Z</time>
      </trkpt>
      <trkpt lat="48.90285" lon="1.89454">
        <ele>125.891</ele>
        <time>2017-09-17T10:10:16.781Z</time>
      </trkpt>
      <trkpt lat="48.9029" lon="1.89441">
        <ele>125.369</ele>
        <time>2017-09-17T10:10:24.414Z</time>
      </trkpt>
      <trkpt lat="48.90295" lon="1.89429">
        <ele>124.749</ele>
        <time>2017-09-17T10:10:31.624Z</time>
      </trkpt>
      <trkpt lat="48.90299" lon="1.89416">
        <ele>124.013</ele>
        <time>2017-09-17T10:10:39.115Z</time>
      </trkpt>
      <trkpt lat="48.90303" lon="1.89404">
        <ele>123.279</ele>
        <time>2017-09-17T10:10:47.199Z</time>
      </trkpt>
      <trkpt lat="48.90309" lon="1.89392">
        <ele>122.589</ele>
        <time>2017-09-17T10:10:55.096Z</time>
      </trkpt>
      <trkpt lat="48.90315" lon="1.8938">
        <ele>121.922</ele>
        <time>2017-09-17T10:11:03.417Z</time>
      </trkpt>
      <trkpt lat="48.90321" lon="1.89369">
        <ele>121.29</ele>
        <time>2017-09-17T10:11:11.278Z</time>
      </trkpt>
      <trkpt lat="48.90328" lon="1.89358">
        <ele>120.649</ele>
        <time>2017-09-17T10:11:19.547Z</time>
      </trkpt>
      <trkpt lat="48.90332" lon="1.89345">
        <ele>120.029</ele>
        <time>2017-09-17T10:11:27.287Z</time>
      </trkpt>
      <trkpt lat="48.90339" lon="1.89333">
        <ele>119.492</ele>
        <time>2017-09-17T10:11:35.104Z</time>
      </trkpt>
      <trkpt lat="48.90345" lon="1.89321">
        <ele>118.916</ele>
        <time>2017-09-17T10:11:43.217Z</time>
      </trkpt>
      <trkpt lat="48.90349" lon="1.89308">
        <ele>118.173</ele>
        <time>2017-09-17T10:11:51.600Z</time>
      </trkpt>
      <trkpt lat="48.90352" lon="1.89294">
        <ele>117.108</ele>
        <time>2017-09-17T10:12:01.362Z</time>
      </trkpt>
      <trkpt lat="48.90356" lon="1.8928">
        <ele>115.584</ele>
        <time>2017-09-17T10:12:10.829Z</time>
      </trkpt>
      <trkpt lat="48.90358" lon="1.89267">
        <ele>113.729</ele>
        <time>2017-09-17T10:12:18.943Z</time>
      </trkpt>
      <trkpt lat="48.90357" lon="1.89251">
        <ele>111.877</ele>
        <time>2017-09-17T10:12:26.587Z</time>
      </trkpt>
      <trkpt lat="48.90354" lon="1.89238">
        <ele>110.255</ele>
        <time>2017-09-17T10:12:33.806Z</time>
      </trkpt>
      <trkpt lat="48.90358" lon="1.89224">
        <ele>108.89</ele>
        <time>2017-09-17T10:12:42.423Z</time>
      </trkpt>
      <trkpt lat="48.9036" lon="1.89209">
        <ele>107.678</ele>
        <time>2017-09-17T10:12:50.588Z</time>
      </trkpt>
      <trkpt lat="48.9036" lon="1.89195">
        <ele>106.457</ele>
        <time>2017-09-17T10:12:57.644Z</time>
      </trkpt>
      <trkpt lat="48.90365" lon="1.89183">
        <ele>105.121</ele>
        <time>2017-09-17T10:13:04.347Z</time>
      </trkpt>
      <trkpt lat="48.9037" lon="1.8917">
        <ele>103.731</ele>
        <time>2017-09-17T10:13:11.784Z</time>
      </trkpt>
      <trkpt lat="48.90377" lon="1.8916">
        <ele>102.396</ele>
        <time>2017-09-17T10:13:19.207Z</time>
      </trkpt>
      <trkpt lat="48.90377" lon="1.89145">
        <ele>101.242</ele>
        <time>2017-09-17T10:13:26.828Z</time>
      </trkpt>
      <trkpt lat="48.90383" lon="1.89132">
        <ele>100.372</ele>
        <time>2017-09-17T10:13:34.668Z</time>
      </trkpt>
      <trkpt lat="48.90385" lon="1.89119">
        <ele>99.737</ele>
        <time>2017-09-17T10:13:41.591Z</time>
      </trkpt>
      <trkpt lat="48.9039" lon="1.89104">
        <ele>99.284</ele>
        <time>2017-09-17T10:13:49.833Z</time>
      </trkpt>
      <trkpt lat="48.90393" lon="1.89091">
        <ele>99.039</ele>
        <time>2017-09-17T10:13:57.375Z</time>
      </trkpt>
      <trkpt lat="48.90398" lon="1.89078">
        <ele>99.01</ele>
        <time>2017-09-17T10:14:05.554Z</time>
      </trkpt>
      <trkpt lat="48.90403" lon="1.89066">
        <ele>99.224</ele>
        <time>2017-09-17T10:14:12.608Z</time>
      </trkpt>
      <trkpt lat="48.90405" lon="1.89051">
        <ele>99.658</ele>
        <time>2017-09-17T10:14:20.410Z</time>
      </trkpt>
      <trkpt lat="48.90411" lon="1.89039">
        <ele>100.149</ele>
        <time>2017-09-17T10:14:28.470Z</time>
      </trkpt>
      <trkpt lat="48.90415" lon="1.89026">
        <ele>100.615</ele>
        <time>2017-09-17T10:14:36.153Z</time>
      </trkpt>
      <trkpt lat="48.90418" lon="1.89012">
        <ele>101.164</ele>
        <time>2017-09-17T10:14:43.704Z</time>
      </trkpt>
      <trkpt lat="48.9042" lon="1.88998">
        <ele>101.938</ele>
        <time>2017-09-17T10:14:51.360Z</time>
      </trkpt>
      <trkpt lat="48.90425" lon="1.88984">
        <ele>102.851</ele>
        <time>2017-09-17T10:14:59.880Z</time>
      </trkpt>
      <trkpt lat="48.90427" lon="1.8897">
        <ele>103.748</ele>
        <time>2017-09-17T10:15:07.786Z</time>
      </trkpt>
      <trkpt lat="48.90428" lon="1.88955">
        <ele>104.669</ele>
        <time>2017-09-17T10:15:15.875Z</time>
      </trkpt>
      <trkpt lat="48.9043" lon="1.88941">
        <ele>105.689</ele>
        <time>2017-09-17T10:15:23.600Z</time>
      </trkpt>
      <trkpt lat="48.90432" lon="1.88927">
        <ele>106.62</ele>
        <time>2017-09-17T10:15:32.472Z</time>
      </trkpt>
      <trkpt lat="48.90435" lon="1.88913">
        <ele>107.296</ele>
        <time>2017-09-17T10:15:40.789Z</time>
      </trkpt>
      <trkpt lat="48.90439" lon="1.889">
        <ele>107.857</ele>
        <time>2017-09-17T10:15:49.611Z</time>
      </trkpt>
      <trkpt lat="48.90442" lon="1.88886">
        <ele>108.57</ele>
        <time>2017-09-17T10:15:57.916Z</time>
      </trkpt>
      <trkpt lat="48.90445" lon="1.88873">
        <ele>109.393</ele>
        <time>2017-09-17T10:16:05.736Z</time>
      </trkpt>
      <trkpt lat="48.90447" lon="1.88859">
        <ele>110.107</ele>
        <time>2017-09-17T10:16:14.000Z</time>
      </trkpt>
      <trkpt lat="48.90447" lon="1.88859">
        <ele>110.584</ele>
        <time>2017-09-17T10:16:18.000Z</time>
      </trkpt>
      <trkpt lat="48.90447" lon="1.88859">
        <ele>110.768</ele>
        <time>2017-09-17T10:16:39.641Z</time>
      </trkpt>
      <trkpt lat="48.90448" lon="1.88844">
        <ele>110.695</ele>
        <time>2017-09-17T10:16:58.415Z</time>
      </trkpt>
      <trkpt lat="48.90452" lon="1.8883">
        <ele>110.772</ele>
        <time>2017-09-17T10:17:10.591Z</time>
      </trkpt>
      <trkpt lat="48.90458" lon="1.88818">
        <ele>111.419</ele>
        <time>2017-09-17T10:17:20.658Z</time>
      </trkpt>
      <trkpt lat="48.90461" lon="1.88805">
        <ele>112.482</ele>
        <time>2017-09-17T10:17:28.838Z</time>
      </trkpt>
      <trkpt lat="48.90467" lon="1.88795">
        <ele>113.479</ele>
        <time>2017-09-17T10:17:36.188Z</time>
      </trkpt>
      <trkpt lat="48.90471" lon="1.88781">
        <ele>114.138</ele>
        <time>2017-09-17T10:17:43.761Z</time>
      </trkpt>
      <trkpt lat="48.90479" lon="1.88772">
        <ele>114.485</ele>
        <time>2017-09-17T10:17:51.404Z</time>
      </trkpt>
      <trkpt lat="48.90486" lon="1.88762">
        <ele>114.753</ele>
        <time>2017-09-17T10:17:59.529Z</time>
      </trkpt>
      <trkpt lat="48.90489" lon="1.88749">
        <ele>115.083</ele>
        <time>2017-09-17T10:18:08.241Z</time>
      </trkpt>
      <trkpt lat="48.90497" lon="1.88741">
        <ele>115.481</ele>
        <time>2017-09-17T10:18:16.937Z</time>
      </trkpt>
      <trkpt lat="48.90507" lon="1.88737">
        <ele>116.043</ele>
        <time>2017-09-17T10:18:25.961Z</time>
      </trkpt>
      <trkpt lat="48.90516" lon="1.8874">
        <ele>116.87</ele>
        <time>2017-09-17T10:18:35.298Z</time>
      </trkpt>
      <trkpt lat="48.90523" lon="1.8875">
        <ele>117.771</ele>
        <time>2017-09-17T10:18:43.676Z</time>
      </trkpt>
      <trkpt lat="48.9053" lon="1.88758">
        <ele>118.44</ele>
        <time>2017-09-17T10:18:51.584Z</time>
      </trkpt>
      <trkpt lat="48.90538" lon="1.88766">
        <ele>118.819</ele>
        <time>2017-09-17T10:18:59.659Z</time>
      </trkpt>
      <trkpt lat="48.90546" lon="1.88773">
        <ele>119.062</ele>
        <time>2017-09-17T10:19:08.044Z</time>
      </trkpt>
      <trkpt lat="48.90555" lon="1.88775">
        <ele>119.318</ele>
        <time>2017-09-17T10:19:15.924Z</time>
      </trkpt>
      <trkpt lat="48.90565" lon="1.88777">
        <ele>119.707</ele>
        <time>2017-09-17T10:19:23.964Z</time>
      </trkpt>
      <trkpt lat="48.90571" lon="1.88766">
        <ele>120.207</ele>
        <time>2017-09-17T10:19:32.009Z</time>
      </trkpt>
      <trkpt lat="48.90576" lon="1.88753">
        <ele>120.699</ele>
        <time>2017-09-17T10:19:39.336Z</time>
      </trkpt>
      <trkpt lat="48.90584" lon="1.88747">
        <ele>121.1</ele>
        <time>2017-09-17T10:19:46.484Z</time>
      </trkpt>
      <trkpt lat="48.90593" lon="1.88745">
        <ele>121.421</ele>
        <time>2017-09-17T10:19:53.257Z</time>
      </trkpt>
      <trkpt lat="48.906" lon="1.88735">
        <ele>121.755</ele>
        <time>2017-09-17T10:20:00.653Z</time>
      </trkpt>
      <trkpt lat="48.90603" lon="1.88722">
        <ele>122.167</ele>
        <time>2017-09-17T10:20:09.006Z</time>
      </trkpt>
      <trkpt lat="48.90595" lon="1.88712">
        <ele>122.708</ele>
        <time>2017-09-17T10:20:18.434Z</time>
      </trkpt>
      <trkpt lat="48.90588" lon="1.88702">
        <ele>123.329</ele>
        <time>2017-09-17T10:20:25.839Z</time>
      </trkpt>
      <trkpt lat="48.90579" lon="1.88697">
        <ele>123.777</ele>
        <time>2017-09-17T10:20:33.769Z</time>
      </trkpt>
      <trkpt lat="48.90571" lon="1.88705">
        <ele>123.835</ele>
        <time>2017-09-17T10:20:42.604Z</time>
      </trkpt>
      <trkpt lat="48.90563" lon="1.88712">
        <ele>123.51</ele>
        <time>2017-09-17T10:20:52.475Z</time>
      </trkpt>
      <trkpt lat="48.90553" lon="1.88713">
        <ele>122.909</ele>
        <time>2017-09-17T10:21:00.822Z</time>
      </trkpt>
      <trkpt lat="48.90544" lon="1.88712">
        <ele>122.184</ele>
        <time>2017-09-17T10:21:08.327Z</time>
      </trkpt>
      <trkpt lat="48.90534" lon="1.8871">
        <ele>121.461</ele>
        <time>2017-09-17T10:21:16.226Z</time>
      </trkpt>
      <trkpt lat="48.90524" lon="1.8871">
        <ele>120.823</ele>
        <time>2017-09-17T10:21:23.924Z</time>
      </trkpt>
      <trkpt lat="48.90514" lon="1.88706">
        <ele>120.269</ele>
        <time>2017-09-17T10:21:31.364Z</time>
      </trkpt>
      <trkpt lat="48.90505" lon="1.88702">
        <ele>119.713</ele>
        <time>2017-09-17T10:21:38.927Z</time>
      </trkpt>
      <trkpt lat="48.90496" lon="1.88698">
        <ele>119.126</ele>
        <time>2017-09-17T10:21:46.336Z</time>
      </trkpt>
      <trkpt lat="48.90487" lon="1.88691">
        <ele>118.537</ele>
        <time>2017-09-17T10:21:54.453Z</time>
      </trkpt>
      <trkpt lat="48.90477" lon="1.88686">
        <ele>117.863</ele>
        <time>2017-09-17T10:22:02.455Z</time>
      </trkpt>
      <trkpt lat="48.90468" lon="1.88682">
        <ele>117.155</ele>
        <time>2017-09-17T10:22:09.510Z</time>
      </trkpt>
      <trkpt lat="48.90459" lon="1.88678">
        <ele>116.838</ele>
        <time>2017-09-17T10:22:17.206Z</time>
      </trkpt>
      <trkpt lat="48.9045" lon="1.88674">
        <ele>117.215</ele>
        <time>2017-09-17T10:22:24.712Z</time>
      </trkpt>
      <trkpt lat="48.9044" lon="1.88671">
        <ele>117.977</ele>
        <time>2017-09-17T10:22:32.699Z</time>
      </trkpt>
      <trkpt lat="48.90431" lon="1.88667">
        <ele>118.585</ele>
        <time>2017-09-17T10:22:40.393Z</time>
      </trkpt>
      <trkpt lat="48.90422" lon="1.88662">
        <ele>118.784</ele>
        <time>2017-09-17T10:22:48.194Z</time>
      </trkpt>
      <trkpt lat="48.90413" lon="1.88657">
        <ele>118.615</ele>
        <time>2017-09-17T10:22:56.324Z</time>
      </trkpt>
      <trkpt lat="48.90403" lon="1.88652">
        <ele>118.225</ele>
        <time>2017-09-17T10:23:04.273Z</time>
      </trkpt>
      <trkpt lat="48.90395" lon="1.88647">
        <ele>117.738</ele>
        <time>2017-09-17T10:23:11.331Z</time>
      </trkpt>
      <trkpt lat="48.90387" lon="1.88639">
        <ele>117.167</ele>
        <time>2017-09-17T10:23:18.178Z</time>
      </trkpt>
      <trkpt lat="48.90378" lon="1.88633">
        <ele>116.547</ele>
        <time>2017-09-17T10:23:25.245Z</time>
      </trkpt>
      <trkpt lat="48.90369" lon="1.88629">
        <ele>116.003</ele>
        <time>2017-09-17T10:23:31.872Z</time>
      </trkpt>
      <trkpt lat="48.9036" lon="1.88623">
        <ele>115.564</ele>
        <time>2017-09-17T10:23:39.474Z</time>
      </trkpt>
      <trkpt lat="48.90351" lon="1.88617">
        <ele>115.106</ele>
        <time>2017-09-17T10:23:47.354Z</time>
      </trkpt>
      <trkpt lat="48.90343" lon="1.88609">
        <ele>114.634</ele>
        <time>2017-09-17T10:23:54.998Z</time>
      </trkpt>
      <trkpt lat="48.90343" lon="1.88609">
        <ele>114.3</ele>
        <time>2017-09-17T10:24:06.998Z</time>
      </trkpt>
      <trkpt lat="48.90343" lon="1.88609">
        <ele>114.159</ele>
        <time>2017-09-17T10:24:24.482Z</time>
      </trkpt>
      <trkpt lat="48.90332" lon="1.88604">
        <ele>114.132</ele>
        <time>2017-09-17T10:24:38.998Z</time>
      </trkpt>
      <trkpt lat="48.90332" lon="1.88604">
        <ele>114.121</ele>
        <time>2017-09-17T10:24:40.998Z</time>
      </trkpt>
      <trkpt lat="48.90332" lon="1.88604">
        <ele>114.075</ele>
        <time>2017-09-17T10:24:41.098Z</time>
      </trkpt>
      <trkpt lat="48.90324" lon="1.88594">
        <ele>113.987</ele>
        <time>2017-09-17T10:24:56.718Z</time>
      </trkpt>
      <trkpt lat="48.90317" lon="1.88586">
        <ele>113.716</ele>
        <time>2017-09-17T10:25:04.098Z</time>
      </trkpt>
      <trkpt lat="48.90308" lon="1.8858">
        <ele>113.009</ele>
        <time>2017-09-17T10:25:11.571Z</time>
      </trkpt>
      <trkpt lat="48.903" lon="1.88574">
        <ele>112.239</ele>
        <time>2017-09-17T10:25:19.467Z</time>
      </trkpt>
      <trkpt lat="48.90291" lon="1.88567">
        <ele>111.729</ele>
        <time>2017-09-17T10:25:27.697Z</time>
      </trkpt>
      <trkpt lat="48.90283" lon="1.88562">
        <ele>111.376</ele>
        <time>2017-09-17T10:25:34.627Z</time>
      </trkpt>
      <trkpt lat="48.90274" lon="1.88556">
        <ele>111.004</ele>
        <time>2017-09-17T10:25:41.695Z</time>
      </trkpt>
      <trkpt lat="48.90265" lon="1.88552">
        <ele>110.522</ele>
        <time>2017-09-17T10:25:49.360Z</time>
      </trkpt>
      <trkpt lat="48.90256" lon="1.88544">
        <ele>110.054</ele>
        <time>2017-09-17T10:25:57.194Z</time>
      </trkpt>
      <trkpt lat="48.90248" lon="1.88536">
        <ele>109.761</ele>
        <time>2017-09-17T10:26:04.387Z</time>
      </trkpt>
      <trkpt lat="48.90239" lon="1.88528">
        <ele>109.592</ele>
        <time>2017-09-17T10:26:12.397Z</time>
      </trkpt>
      <trkpt lat="48.9023" lon="1.88521">
        <ele>109.391</ele>
        <time>2017-09-17T10:26:20.065Z</time>
      </trkpt>
      <trkpt lat="48.90222" lon="1.88515">
        <ele>109.033</ele>
        <time>2017-09-17T10:26:27.080Z</time>
      </trkpt>
      <trkpt lat="48.90214" lon="1.88509">
        <ele>108.61</ele>
        <time>2017-09-17T10:26:33.945Z</time>
      </trkpt>
      <trkpt lat="48.90205" lon="1.88504">
        <ele>108.282</ele>
        <time>2017-09-17T10:26:41.134Z</time>
      </trkpt>
      <trkpt lat="48.90195" lon="1.88499">
        <ele>108.064</ele>
        <time>2017-09-17T10:26:48.824Z</time>
      </trkpt>
      <trkpt lat="48.90187" lon="1.88493">
        <ele>107.927</ele>
        <time>2017-09-17T10:26:55.735Z</time>
      </trkpt>
      <trkpt lat="48.90179" lon="1.88484">
        <ele>107.788</ele>
        <time>2017-09-17T10:27:02.757Z</time>
      </trkpt>
      <trkpt lat="48.90171" lon="1.88476">
        <ele>107.561</ele>
        <time>2017-09-17T10:27:09.807Z</time>
      </trkpt>
      <trkpt lat="48.90164" lon="1.88469">
        <ele>107.324</ele>
        <time>2017-09-17T10:27:16.735Z</time>
      </trkpt>
      <trkpt lat="48.90156" lon="1.8846">
        <ele>107.181</ele>
        <time>2017-09-17T10:27:24.218Z</time>
      </trkpt>
      <trkpt lat="48.90149" lon="1.88452">
        <ele>107.05</ele>
        <time>2017-09-17T10:27:32.062Z</time>
      </trkpt>
      <trkpt lat="48.90141" lon="1.88441">
        <ele>106.841</ele>
        <time>2017-09-17T10:27:41.258Z</time>
      </trkpt>
      <trkpt lat="48.90133" lon="1.88432">
        <ele>106.604</ele>
        <time>2017-09-17T10:27:50.332Z</time>
      </trkpt>
      <trkpt lat="48.90126" lon="1.8842">
        <ele>106.43</ele>
        <time>2017-09-17T10:27:58.872Z</time>
      </trkpt>
      <trkpt lat="48.9012" lon="1.88409">
        <ele>106.383</ele>
        <time>2017-09-17T10:28:06.550Z</time>
      </trkpt>
      <trkpt lat="48.90114" lon="1.88398">
        <ele>106.466</ele>
        <time>2017-09-17T10:28:14.457Z</time>
      </trkpt>
      <trkpt lat="48.90108" lon="1.88388">
        <ele>106.566</ele>
        <time>2017-09-17T10:28:22.107Z</time>
      </trkpt>
      <trkpt lat="48.90101" lon="1.8838">
        <ele>106.577</ele>
        <time>2017-09-17T10:28:29.663Z</time>
      </trkpt>
      <trkpt lat="48.90094" lon="1.88369">
        <ele>106.288</ele>
        <time>2017-09-17T10:28:38.163Z</time>
      </trkpt>
      <trkpt lat="48.90087" lon="1.88359">
        <ele>105.345</ele>
        <time>2017-09-17T10:28:45.913Z</time>
      </trkpt>
      <trkpt lat="48.90082" lon="1.88348">
        <ele>103.879</ele>
        <time>2017-09-17T10:28:53.366Z</time>
      </trkpt>
      <trkpt lat="48.90075" lon="1.88337">
        <ele>102.478</ele>
        <time>2017-09-17T10:29:01.088Z</time>
      </trkpt>
      <trkpt lat="48.90069" lon="1.88326">
        <ele>101.418</ele>
        <time>2017-09-17T10:29:08.839Z</time>
      </trkpt>
      <trkpt lat="48.90063" lon="1.88315">
        <ele>100.63</ele>
        <time>2017-09-17T10:29:16.268Z</time>
      </trkpt>
      <trkpt lat="48.90057" lon="1.88305">
        <ele>100.055</ele>
        <time>2017-09-17T10:29:23.768Z</time>
      </trkpt>
      <trkpt lat="48.90051" lon="1.88294">
        <ele>99.639</ele>
        <time>2017-09-17T10:29:31.677Z</time>
      </trkpt>
      <trkpt lat="48.90045" lon="1.88282">
        <ele>99.328</ele>
        <time>2017-09-17T10:29:39.082Z</time>
      </trkpt>
      <trkpt lat="48.90041" lon="1.8827">
        <ele>99.08</ele>
        <time>2017-09-17T10:29:46.236Z</time>
      </trkpt>
      <trkpt lat="48.90037" lon="1.88257">
        <ele>98.86</ele>
        <time>2017-09-17T10:29:54.144Z</time>
      </trkpt>
      <trkpt lat="48.90031" lon="1.88246">
        <ele>98.643</ele>
        <time>2017-09-17T10:30:02.179Z</time>
      </trkpt>
      <trkpt lat="48.90024" lon="1.88235">
        <ele>98.381</ele>
        <time>2017-09-17T10:30:10.040Z</time>
      </trkpt>
      <trkpt lat="48.9002" lon="1.88223">
        <ele>98.049</ele>
        <time>2017-09-17T10:30:17.873Z</time>
      </trkpt>
      <trkpt lat="48.90013" lon="1.88211">
        <ele>97.733</ele>
        <time>2017-09-17T10:30:26.231Z</time>
      </trkpt>
      <trkpt lat="48.90005" lon="1.88204">
        <ele>97.543</ele>
        <time>2017-09-17T10:30:34.514Z</time>
      </trkpt>
      <trkpt lat="48.89998" lon="1.88194">
        <ele>97.454</ele>
        <time>2017-09-17T10:30:42.948Z</time>
      </trkpt>
      <trkpt lat="48.89991" lon="1.88184">
        <ele>97.284</ele>
        <time>2017-09-17T10:30:51.191Z</time>
      </trkpt>
      <trkpt lat="48.89984" lon="1.88175">
        <ele>96.87</ele>
        <time>2017-09-17T10:30:59.393Z</time>
      </trkpt>
      <trkpt lat="48.89976" lon="1.88167">
        <ele>96.307</ele>
        <time>2017-09-17T10:31:06.853Z</time>
      </trkpt>
      <trkpt lat="48.8997" lon="1.88155">
        <ele>95.812</ele>
        <time>2017-09-17T10:31:14.121Z</time>
      </trkpt>
      <trkpt lat="48.89964" lon="1.88144">
        <ele>95.455</ele>
        <time>2017-09-17T10:31:21.037Z</time>
      </trkpt>
      <trkpt lat="48.89956" lon="1.88136">
        <ele>95.147</ele>
        <time>2017-09-17T10:31:28.884Z</time>
      </trkpt>
      <trkpt lat="48.89949" lon="1.88124">
        <ele>94.716</ele>
        <time>2017-09-17T10:31:37.459Z</time>
      </trkpt>
      <trkpt lat="48.89941" lon="1.88111">
        <ele>94.098</ele>
        <time>2017-09-17T10:31:47.258Z</time>
      </trkpt>
      <trkpt lat="48.89934" lon="1.88101">
        <ele>93.387</ele>
        <time>2017-09-17T10:31:55.010Z</time>
      </trkpt>
      <trkpt lat="48.89928" lon="1.88089">
        <ele>92.705</ele>
        <time>2017-09-17T10:32:02.317Z</time>
      </trkpt>
      <trkpt lat="48.89921" lon="1.88079">
        <ele>92.201</ele>
        <time>2017-09-17T10:32:09.324Z</time>
      </trkpt>
      <trkpt lat="48.89916" lon="1.88068">
        <ele>91.937</ele>
        <time>2017-09-17T10:32:15.993Z</time>
      </trkpt>
      <trkpt lat="48.8991" lon="1.88057">
        <ele>91.795</ele>
        <time>2017-09-17T10:32:23.052Z</time>
      </trkpt>
      <trkpt lat="48.89903" lon="1.88045">
        <ele>91.652</ele>
        <time>2017-09-17T10:32:30.846Z</time>
      </trkpt>
      <trkpt lat="48.89897" lon="1.88034">
        <ele>91.498</ele>
        <time>2017-09-17T10:32:37.919Z</time>
      </trkpt>
      <trkpt lat="48.89892" lon="1.88022">
        <ele>91.387</ele>
        <time>2017-09-17T10:32:45.614Z</time>
      </trkpt>
      <trkpt lat="48.89887" lon="1.88009">
        <ele>91.343</ele>
        <time>2017-09-17T10:32:53.438Z</time>
      </trkpt>
      <trkpt lat="48.89881" lon="1.87998">
        <ele>91.293</ele>
        <time>2017-09-17T10:33:00.648Z</time>
      </trkpt>
      <trkpt lat="48.89877" lon="1.87986">
        <ele>91.177</ele>
        <time>2017-09-17T10:33:07.579Z</time>
      </trkpt>
      <trkpt lat="48.89871" lon="1.87974">
        <ele>91.056</ele>
        <time>2017-09-17T10:33:15.491Z</time>
      </trkpt>
      <trkpt lat="48.89867" lon="1.87961">
        <ele>91.001</ele>
        <time>2017-09-17T10:33:23.887Z</time>
      </trkpt>
      <trkpt lat="48.89862" lon="1.87948">
        <ele>91.006</ele>
        <time>2017-09-17T10:33:32.512Z</time>
      </trkpt>
      <trkpt lat="48.89859" lon="1.87933">
        <ele>91.057</ele>
        <time>2017-09-17T10:33:41.000Z</time>
      </trkpt>
      <trkpt lat="48.89855" lon="1.87919">
        <ele>91.142</ele>
        <time>2017-09-17T10:33:49.050Z</time>
      </trkpt>
      <trkpt lat="48.89852" lon="1.87906">
        <ele>91.225</ele>
        <time>2017-09-17T10:33:56.843Z</time>
      </trkpt>
      <trkpt lat="48.89847" lon="1.87894">
        <ele>91.362</ele>
        <time>2017-09-17T10:34:05.148Z</time>
      </trkpt>
      <trkpt lat="48.89841" lon="1.87881">
        <ele>91.739</ele>
        <time>2017-09-17T10:34:14.250Z</time>
      </trkpt>
      <trkpt lat="48.89836" lon="1.87868">
        <ele>92.371</ele>
        <time>2017-09-17T10:34:22.482Z</time>
      </trkpt>
      <trkpt lat="48.89832" lon="1.87856">
        <ele>93.019</ele>
        <time>2017-09-17T10:34:30.476Z</time>
      </trkpt>
      <trkpt lat="48.89828" lon="1.87843">
        <ele>93.466</ele>
        <time>2017-09-17T10:34:38.397Z</time>
      </trkpt>
      <trkpt lat="48.89823" lon="1.87829">
        <ele>93.785</ele>
        <time>2017-09-17T10:34:46.448Z</time>
      </trkpt>
      <trkpt lat="48.89819" lon="1.87816">
        <ele>94.128</ele>
        <time>2017-09-17T10:34:53.706Z</time>
      </trkpt>
      <trkpt lat="48.89815" lon="1.87802">
        <ele>94.472</ele>
        <time>2017-09-17T10:35:01.492Z</time>
      </trkpt>
      <trkpt lat="48.89811" lon="1.87788">
        <ele>94.727</ele>
        <time>2017-09-17T10:35:09.492Z</time>
      </trkpt>
      <trkpt lat="48.89807" lon="1.87776">
        <ele>94.881</ele>
        <time>2017-09-17T10:35:17.022Z</time>
      </trkpt>
      <trkpt lat="48.89802" lon="1.87762">
        <ele>94.997</ele>
        <time>2017-09-17T10:35:25.105Z</time>
      </trkpt>
      <trkpt lat="48.89798" lon="1.87748">
        <ele>95.154</ele>
        <time>2017-09-17T10:35:33.014Z</time>
      </trkpt>
      <trkpt lat="48.89793" lon="1.87734">
        <ele>95.266</ele>
        <time>2017-09-17T10:35:41.092Z</time>
      </trkpt>
      <trkpt lat="48.89788" lon="1.87721">
        <ele>95.245</ele>
        <time>2017-09-17T10:35:48.889Z</time>
      </trkpt>
      <trkpt lat="48.89783" lon="1.87708">
        <ele>95.201</ele>
        <time>2017-09-17T10:35:56.725Z</time>
      </trkpt>
      <trkpt lat="48.89779" lon="1.87696">
        <ele>95.241</ele>
        <time>2017-09-17T10:36:04.007Z</time>
      </trkpt>
      <trkpt lat="48.89775" lon="1.87682">
        <ele>95.244</ele>
        <time>2017-09-17T10:36:11.635Z</time>
      </trkpt>
      <trkpt lat="48.89773" lon="1.87668">
        <ele>95.085</ele>
        <time>2017-09-17T10:36:19.448Z</time>
      </trkpt>
      <trkpt lat="48.89771" lon="1.87654">
        <ele>94.823</ele>
        <time>2017-09-17T10:36:27.226Z</time>
      </trkpt>
      <trkpt lat="48.89769" lon="1.8764">
        <ele>94.528</ele>
        <time>2017-09-17T10:36:35.615Z</time>
      </trkpt>
      <trkpt lat="48.89767" lon="1.87626">
        <ele>94.189</ele>
        <time>2017-09-17T10:36:44.024Z</time>
      </trkpt>
      <trkpt lat="48.89765" lon="1.87611">
        <ele>93.86</ele>
        <time>2017-09-17T10:36:52.692Z</time>
      </trkpt>
      <trkpt lat="48.89763" lon="1.87597">
        <ele>93.594</ele>
        <time>2017-09-17T10:37:00.988Z</time>
      </trkpt>
      <trkpt lat="48.89761" lon="1.87582">
        <ele>93.303</ele>
        <time>2017-09-17T10:37:09.231Z</time>
      </trkpt>
      <trkpt lat="48.89758" lon="1.87568">
        <ele>92.932</ele>
        <time>2017-09-17T10:37:17.191Z</time>
      </trkpt>
      <trkpt lat="48.89755" lon="1.87554">
        <ele>92.549</ele>
        <time>2017-09-17T10:37:24.899Z</time>
      </trkpt>
      <trkpt lat="48.89752" lon="1.87539">
        <ele>92.223</ele>
        <time>2017-09-17T10:37:32.938Z</time>
      </trkpt>
      <trkpt lat="48.89749" lon="1.87525">
        <ele>92.022</ele>
        <time>2017-09-17T10:37:40.784Z</time>
      </trkpt>
      <trkpt lat="48.89746" lon="1.8751">
        <ele>91.878</ele>
        <time>2017-09-17T10:37:48.833Z</time>
      </trkpt>
      <trkpt lat="48.8974" lon="1.87482">
        <ele>91.659</ele>
        <time>2017-09-17T10:38:03.982Z</time>
      </trkpt>
      <trkpt lat="48.89735" lon="1.87469">
        <ele>91.34</ele>
        <time>2017-09-17T10:38:11.688Z</time>
      </trkpt>
      <trkpt lat="48.89732" lon="1.87455">
        <ele>90.809</ele>
        <time>2017-09-17T10:38:19.356Z</time>
      </trkpt>
      <trkpt lat="48.89729" lon="1.87442">
        <ele>90.074</ele>
        <time>2017-09-17T10:38:27.220Z</time>
      </trkpt>
      <trkpt lat="48.89727" lon="1.87428">
        <ele>89.289</ele>
        <time>2017-09-17T10:38:35.182Z</time>
      </trkpt>
      <trkpt lat="48.89724" lon="1.87414">
        <ele>88.45</ele>
        <time>2017-09-17T10:38:43.000Z</time>
      </trkpt>
      <trkpt lat="48.89724" lon="1.87414">
        <ele>87.669</ele>
        <time>2017-09-17T10:38:52.000Z</time>
      </trkpt>
      <trkpt lat="48.89724" lon="1.87414">
        <ele>87.267</ele>
        <time>2017-09-17T10:39:06.179Z</time>
      </trkpt>
      <trkpt lat="48.89721" lon="1.874">
        <ele>87.269</ele>
        <time>2017-09-17T10:39:28.873Z</time>
      </trkpt>
      <trkpt lat="48.89715" lon="1.87389">
        <ele>87.406</ele>
        <time>2017-09-17T10:39:39.755Z</time>
      </trkpt>
      <trkpt lat="48.89711" lon="1.87377">
        <ele>87.271</ele>
        <time>2017-09-17T10:39:49.141Z</time>
      </trkpt>
      <trkpt lat="48.89706" lon="1.87365">
        <ele>86.563</ele>
        <time>2017-09-17T10:39:57.296Z</time>
      </trkpt>
      <trkpt lat="48.89701" lon="1.87351">
        <ele>85.352</ele>
        <time>2017-09-17T10:40:05.597Z</time>
      </trkpt>
      <trkpt lat="48.89697" lon="1.87337">
        <ele>84</ele>
        <time>2017-09-17T10:40:13.290Z</time>
      </trkpt>
      <trkpt lat="48.89693" lon="1.87323">
        <ele>82.733</ele>
        <time>2017-09-17T10:40:20.582Z</time>
      </trkpt>
      <trkpt lat="48.89689" lon="1.87309">
        <ele>81.578</ele>
        <time>2017-09-17T10:40:27.777Z</time>
      </trkpt>
      <trkpt lat="48.89685" lon="1.87296">
        <ele>80.535</ele>
        <time>2017-09-17T10:40:35.005Z</time>
      </trkpt>
      <trkpt lat="48.89682" lon="1.87283">
        <ele>79.548</ele>
        <time>2017-09-17T10:40:42.000Z</time>
      </trkpt>
      <trkpt lat="48.89682" lon="1.87283">
        <ele>78.649</ele>
        <time>2017-09-17T10:40:47.000Z</time>
      </trkpt>
      <trkpt lat="48.89682" lon="1.87283">
        <ele>78.144</ele>
        <time>2017-09-17T10:40:47.100Z</time>
      </trkpt>
      <trkpt lat="48.89678" lon="1.87268">
        <ele>78.151</ele>
        <time>2017-09-17T10:41:01.752Z</time>
      </trkpt>
      <trkpt lat="48.89675" lon="1.87253">
        <ele>77.875</ele>
        <time>2017-09-17T10:41:11.259Z</time>
      </trkpt>
      <trkpt lat="48.89672" lon="1.87239">
        <ele>76.533</ele>
        <time>2017-09-17T10:41:20.379Z</time>
      </trkpt>
      <trkpt lat="48.89669" lon="1.87225">
        <ele>74.494</ele>
        <time>2017-09-17T10:41:29.061Z</time>
      </trkpt>
      <trkpt lat="48.89665" lon="1.87212">
        <ele>72.476</ele>
        <time>2017-09-17T10:41:37.929Z</time>
      </trkpt>
      <trkpt lat="48.89662" lon="1.87198">
        <ele>70.648</ele>
        <time>2017-09-17T10:41:46.525Z</time>
      </trkpt>
      <trkpt lat="48.89658" lon="1.87184">
        <ele>68.978</ele>
        <time>2017-09-17T10:41:55.228Z</time>
      </trkpt>
      <trkpt lat="48.89651" lon="1.87172">
        <ele>67.489</ele>
        <time>2017-09-17T10:42:03.389Z</time>
      </trkpt>
      <trkpt lat="48.89644" lon="1.87162">
        <ele>66.236</ele>
        <time>2017-09-17T10:42:11.040Z</time>
      </trkpt>
      <trkpt lat="48.89639" lon="1.87151">
        <ele>65.164</ele>
        <time>2017-09-17T10:42:18.638Z</time>
      </trkpt>
      <trkpt lat="48.89631" lon="1.87141">
        <ele>64.121</ele>
        <time>2017-09-17T10:42:27.422Z</time>
      </trkpt>
      <trkpt lat="48.89624" lon="1.87131">
        <ele>63.013</ele>
        <time>2017-09-17T10:42:35.963Z</time>
      </trkpt>
      <trkpt lat="48.89618" lon="1.8712">
        <ele>61.789</ele>
        <time>2017-09-17T10:42:43.885Z</time>
      </trkpt>
      <trkpt lat="48.89611" lon="1.87111">
        <ele>60.455</ele>
        <time>2017-09-17T10:42:51.927Z</time>
      </trkpt>
      <trkpt lat="48.89604" lon="1.87101">
        <ele>59.125</ele>
        <time>2017-09-17T10:43:00.138Z</time>
      </trkpt>
      <trkpt lat="48.89596" lon="1.87092">
        <ele>57.877</ele>
        <time>2017-09-17T10:43:09.012Z</time>
      </trkpt>
      <trkpt lat="48.89589" lon="1.87082">
        <ele>56.639</ele>
        <time>2017-09-17T10:43:16.807Z</time>
      </trkpt>
      <trkpt lat="48.89581" lon="1.87073">
        <ele>55.383</ele>
        <time>2017-09-17T10:43:24.708Z</time>
      </trkpt>
      <trkpt lat="48.89572" lon="1.87067">
        <ele>54.089</ele>
        <time>2017-09-17T10:43:32.418Z</time>
      </trkpt>
      <trkpt lat="48.89563" lon="1.87072">
        <ele>52.718</ele>
        <time>2017-09-17T10:43:40.318Z</time>
      </trkpt>
      <trkpt lat="48.89555" lon="1.8708">
        <ele>51.282</ele>
        <time>2017-09-17T10:43:48.768Z</time>
      </trkpt>
      <trkpt lat="48.89547" lon="1.87088">
        <ele>49.812</ele>
        <time>2017-09-17T10:43:56.541Z</time>
      </trkpt>
      <trkpt lat="48.89539" lon="1.87094">
        <ele>48.429</ele>
        <time>2017-09-17T10:44:04.274Z</time>
      </trkpt>
      <trkpt lat="48.89531" lon="1.871">
        <ele>47.322</ele>
        <time>2017-09-17T10:44:12.058Z</time>
      </trkpt>
      <trkpt lat="48.89522" lon="1.87105">
        <ele>46.483</ele>
        <time>2017-09-17T10:44:20.553Z</time>
      </trkpt>
      <trkpt lat="48.89513" lon="1.87099">
        <ele>45.638</ele>
        <time>2017-09-17T10:44:29.000Z</time>
      </trkpt>
      <trkpt lat="48.89513" lon="1.87099">
        <ele>44.746</ele>
        <time>2017-09-17T10:44:37.000Z</time>
      </trkpt>
      <trkpt lat="48.89513" lon="1.87099">
        <ele>44.21</ele>
        <time>2017-09-17T10:44:37.100Z</time>
      </trkpt>
      <trkpt lat="48.89511" lon="1.87081">
        <ele>44.226</ele>
        <time>2017-09-17T10:44:55.243Z</time>
      </trkpt>
      <trkpt lat="48.8951" lon="1.87066">
        <ele>44.189</ele>
        <time>2017-09-17T10:45:03.210Z</time>
      </trkpt>
      <trkpt lat="48.89506" lon="1.87053">
        <ele>43.564</ele>
        <time>2017-09-17T10:45:09.830Z</time>
      </trkpt>
      <trkpt lat="48.89504" lon="1.87039">
        <ele>42.69</ele>
        <time>2017-09-17T10:45:16.267Z</time>
      </trkpt>
      <trkpt lat="48.89503" lon="1.87025">
        <ele>42.073</ele>
        <time>2017-09-17T10:45:22.016Z</time>
      </trkpt>
      <trkpt lat="48.89501" lon="1.8701">
        <ele>41.751</ele>
        <time>2017-09-17T10:45:28.125Z</time>
      </trkpt>
      <trkpt lat="48.89499" lon="1.86996">
        <ele>41.628</ele>
        <time>2017-09-17T10:45:34.338Z</time>
      </trkpt>
      <trkpt lat="48.89495" lon="1.86984">
        <ele>41.647</ele>
        <time>2017-09-17T10:45:40.763Z</time>
      </trkpt>
      <trkpt lat="48.89494" lon="1.86969">
        <ele>41.746</ele>
        <time>2017-09-17T10:45:48.062Z</time>
      </trkpt>
      <trkpt lat="48.89497" lon="1.86955">
        <ele>41.843</ele>
        <time>2017-09-17T10:45:55.651Z</time>
      </trkpt>
      <trkpt lat="48.89503" lon="1.86943">
        <ele>41.869</ele>
        <time>2017-09-17T10:46:03.805Z</time>
      </trkpt>
      <trkpt lat="48.89501" lon="1.86929">
        <ele>41.828</ele>
        <time>2017-09-17T10:46:13.000Z</time>
      </trkpt>
      <trkpt lat="48.89501" lon="1.86929">
        <ele>41.771</ele>
        <time>2017-09-17T10:46:29.000Z</time>
      </trkpt>
      <trkpt lat="48.89501" lon="1.86929">
        <ele>41.738</ele>
        <time>2017-09-17T10:46:36.952Z</time>
      </trkpt>
      <trkpt lat="48.89493" lon="1.86937">
        <ele>41.719</ele>
        <time>2017-09-17T10:46:48.000Z</time>
      </trkpt>
      <trkpt lat="48.89493" lon="1.86937">
        <ele>41.713</ele>
        <time>2017-09-17T10:46:51.000Z</time>
      </trkpt>
      <trkpt lat="48.89493" lon="1.86937">
        <ele>41.695</ele>
        <time>2017-09-17T10:47:22.104Z</time>
      </trkpt>
      <trkpt lat="48.89501" lon="1.86929">
        <ele>41.664</ele>
        <time>2017-09-17T10:47:35.017Z</time>
      </trkpt>
      <trkpt lat="48.895" lon="1.86914">
        <ele>41.639</ele>
        <time>2017-09-17T10:47:42.617Z</time>
      </trkpt>
      <trkpt lat="48.89499" lon="1.86899">
        <ele>41.517</ele>
        <time>2017-09-17T10:47:49.275Z</time>
      </trkpt>
      <trkpt lat="48.89499" lon="1.86885">
        <ele>41.201</ele>
        <time>2017-09-17T10:47:55.663Z</time>
      </trkpt>
      <trkpt lat="48.89497" lon="1.86872">
        <ele>40.764</ele>
        <time>2017-09-17T10:48:02.321Z</time>
      </trkpt>
      <trkpt lat="48.89497" lon="1.86856">
        <ele>40.432</ele>
        <time>2017-09-17T10:48:09.843Z</time>
      </trkpt>
      <trkpt lat="48.89495" lon="1.86841">
        <ele>40.305</ele>
        <time>2017-09-17T10:48:17.548Z</time>
      </trkpt>
      <trkpt lat="48.89492" lon="1.86828">
        <ele>40.261</ele>
        <time>2017-09-17T10:48:24.365Z</time>
      </trkpt>
      <trkpt lat="48.89488" lon="1.86815">
        <ele>40.147</ele>
        <time>2017-09-17T10:48:32.021Z</time>
      </trkpt>
      <trkpt lat="48.89492" lon="1.868">
        <ele>39.958</ele>
        <time>2017-09-17T10:48:41.004Z</time>
      </trkpt>
      <trkpt lat="48.89489" lon="1.86787">
        <ele>39.793</ele>
        <time>2017-09-17T10:48:50.000Z</time>
      </trkpt>
      <trkpt lat="48.89489" lon="1.86787">
        <ele>39.706</ele>
        <time>2017-09-17T10:48:58.000Z</time>
      </trkpt>
      <trkpt lat="48.89489" lon="1.86787">
        <ele>39.679</ele>
        <time>2017-09-17T10:49:20.986Z</time>
      </trkpt>
      <trkpt lat="48.89486" lon="1.86772">
        <ele>39.679</ele>
        <time>2017-09-17T10:49:36.054Z</time>
      </trkpt>
      <trkpt lat="48.89483" lon="1.86759">
        <ele>39.568</ele>
        <time>2017-09-17T10:49:45.093Z</time>
      </trkpt>
      <trkpt lat="48.89477" lon="1.86746">
        <ele>39.249</ele>
        <time>2017-09-17T10:49:54.281Z</time>
      </trkpt>
      <trkpt lat="48.89474" lon="1.86733">
        <ele>38.817</ele>
        <time>2017-09-17T10:50:02.077Z</time>
      </trkpt>
      <trkpt lat="48.89472" lon="1.86719">
        <ele>38.449</ele>
        <time>2017-09-17T10:50:10.006Z</time>
      </trkpt>
      <trkpt lat="48.89468" lon="1.86706">
        <ele>38.272</ele>
        <time>2017-09-17T10:50:18.090Z</time>
      </trkpt>
      <trkpt lat="48.89462" lon="1.86695">
        <ele>38.366</ele>
        <time>2017-09-17T10:50:25.851Z</time>
      </trkpt>
      <trkpt lat="48.89454" lon="1.86686">
        <ele>38.665</ele>
        <time>2017-09-17T10:50:33.140Z</time>
      </trkpt>
      <trkpt lat="48.8945" lon="1.86674">
        <ele>38.976</ele>
        <time>2017-09-17T10:50:39.840Z</time>
      </trkpt>
      <trkpt lat="48.89445" lon="1.86662">
        <ele>39.151</ele>
        <time>2017-09-17T10:50:46.944Z</time>
      </trkpt>
      <trkpt lat="48.89439" lon="1.8665">
        <ele>39.193</ele>
        <time>2017-09-17T10:50:54.941Z</time>
      </trkpt>
      <trkpt lat="48.89435" lon="1.86637">
        <ele>39.157</ele>
        <time>2017-09-17T10:51:03.800Z</time>
      </trkpt>
      <trkpt lat="48.89431" lon="1.86624">
        <ele>39.074</ele>
        <time>2017-09-17T10:51:12.157Z</time>
      </trkpt>
      <trkpt lat="48.89426" lon="1.86611">
        <ele>38.976</ele>
        <time>2017-09-17T10:51:20.806Z</time>
      </trkpt>
      <trkpt lat="48.89422" lon="1.86598">
        <ele>38.802</ele>
        <time>2017-09-17T10:51:28.818Z</time>
      </trkpt>
      <trkpt lat="48.89415" lon="1.86586">
        <ele>38.504</ele>
        <time>2017-09-17T10:51:36.486Z</time>
      </trkpt>
      <trkpt lat="48.89411" lon="1.86574">
        <ele>38.256</ele>
        <time>2017-09-17T10:51:43.231Z</time>
      </trkpt>
      <trkpt lat="48.8941" lon="1.86559">
        <ele>38.245</ele>
        <time>2017-09-17T10:51:50.946Z</time>
      </trkpt>
      <trkpt lat="48.89407" lon="1.86546">
        <ele>38.413</ele>
        <time>2017-09-17T10:51:58.396Z</time>
      </trkpt>
      <trkpt lat="48.89405" lon="1.86531">
        <ele>38.585</ele>
        <time>2017-09-17T10:52:05.831Z</time>
      </trkpt>
      <trkpt lat="48.89403" lon="1.86517">
        <ele>38.705</ele>
        <time>2017-09-17T10:52:12.626Z</time>
      </trkpt>
      <trkpt lat="48.89399" lon="1.86504">
        <ele>38.83</ele>
        <time>2017-09-17T10:52:19.737Z</time>
      </trkpt>
      <trkpt lat="48.89397" lon="1.8649">
        <ele>39</ele>
        <time>2017-09-17T10:52:27.555Z</time>
      </trkpt>
      <trkpt lat="48.8939" lon="1.8648">
        <ele>39.272</ele>
        <time>2017-09-17T10:52:35.397Z</time>
      </trkpt>
      <trkpt lat="48.89386" lon="1.86467">
        <ele>39.652</ele>
        <time>2017-09-17T10:52:43.351Z</time>
      </trkpt>
      <trkpt lat="48.8938" lon="1.86456">
        <ele>40.132</ele>
        <time>2017-09-17T10:52:51.293Z</time>
      </trkpt>
      <trkpt lat="48.8937" lon="1.86452">
        <ele>40.734</ele>
        <time>2017-09-17T10:52:59.214Z</time>
      </trkpt>
      <trkpt lat="48.89361" lon="1.86449">
        <ele>41.308</ele>
        <time>2017-09-17T10:53:07.497Z</time>
      </trkpt>
      <trkpt lat="48.89351" lon="1.86449">
        <ele>41.771</ele>
        <time>2017-09-17T10:53:15.812Z</time>
      </trkpt>
      <trkpt lat="48.89348" lon="1.86436">
        <ele>42.272</ele>
        <time>2017-09-17T10:53:24.316Z</time>
      </trkpt>
      <trkpt lat="48.89349" lon="1.8645">
        <ele>42.778</ele>
        <time>2017-09-17T10:53:35.000Z</time>
      </trkpt>
      <trkpt lat="48.89349" lon="1.8645">
        <ele>43.092</ele>
        <time>2017-09-17T10:53:40.000Z</time>
      </trkpt>
      <trkpt lat="48.89349" lon="1.8645">
        <ele>43.182</ele>
        <time>2017-09-17T10:54:13.474Z</time>
      </trkpt>
      <trkpt lat="48.89348" lon="1.86435">
        <ele>43.078</ele>
        <time>2017-09-17T10:54:25.640Z</time>
      </trkpt>
      <trkpt lat="48.89345" lon="1.86421">
        <ele>43.021</ele>
        <time>2017-09-17T10:54:33.000Z</time>
      </trkpt>
      <trkpt lat="48.89345" lon="1.86421">
        <ele>42.958</ele>
        <time>2017-09-17T10:54:40.000Z</time>
      </trkpt>
      <trkpt lat="48.89345" lon="1.86421">
        <ele>42.909</ele>
        <time>2017-09-17T11:07:33.237Z</time>
      </trkpt>
      <trkpt lat="48.8935" lon="1.86434">
        <ele>42.897</ele>
        <time>2017-09-17T11:07:46.262Z</time>
      </trkpt>
      <trkpt lat="48.89352" lon="1.86447">
        <ele>42.904</ele>
        <time>2017-09-17T11:07:53.139Z</time>
      </trkpt>
      <trkpt lat="48.89347" lon="1.86459">
        <ele>42.85</ele>
        <time>2017-09-17T11:08:00.000Z</time>
      </trkpt>
      <trkpt lat="48.89347" lon="1.86459">
        <ele>42.697</ele>
        <time>2017-09-17T11:08:02.000Z</time>
      </trkpt>
      <trkpt lat="48.89347" lon="1.86459">
        <ele>42.561</ele>
        <time>2017-09-17T11:10:39.688Z</time>
      </trkpt>
      <trkpt lat="48.89354" lon="1.86448">
        <ele>42.596</ele>
        <time>2017-09-17T11:10:54.954Z</time>
      </trkpt>
      <trkpt lat="48.89351" lon="1.86434">
        <ele>42.638</ele>
        <time>2017-09-17T11:11:00.576Z</time>
      </trkpt>
      <trkpt lat="48.89345" lon="1.86422">
        <ele>42.674</ele>
        <time>2017-09-17T11:11:04.000Z</time>
      </trkpt>
      <trkpt lat="48.89345" lon="1.86422">
        <ele>42.726</ele>
        <time>2017-09-17T11:11:11.000Z</time>
      </trkpt>
      <trkpt lat="48.89345" lon="1.86422">
        <ele>42.759</ele>
        <time>2017-09-17T11:11:43.632Z</time>
      </trkpt>
      <trkpt lat="48.89345" lon="1.86437">
        <ele>42.701</ele>
        <time>2017-09-17T11:11:53.646Z</time>
      </trkpt>
      <trkpt lat="48.8935" lon="1.86449">
        <ele>42.677</ele>
        <time>2017-09-17T11:11:59.000Z</time>
      </trkpt>
      <trkpt lat="48.8935" lon="1.86449">
        <ele>42.663</ele>
        <time>2017-09-17T11:12:06.000Z</time>
      </trkpt>
      <trkpt lat="48.8935" lon="1.86449">
        <ele>42.646</ele>
        <time>2017-09-17T11:13:57.404Z</time>
      </trkpt>
      <trkpt lat="48.8935" lon="1.86435">
        <ele>42.614</ele>
        <time>2017-09-17T11:14:08.970Z</time>
      </trkpt>
      <trkpt lat="48.89346" lon="1.86422">
        <ele>42.601</ele>
        <time>2017-09-17T11:14:15.000Z</time>
      </trkpt>
      <trkpt lat="48.89346" lon="1.86422">
        <ele>42.577</ele>
        <time>2017-09-17T11:14:21.000Z</time>
      </trkpt>
      <trkpt lat="48.89346" lon="1.86422">
        <ele>42.55</ele>
        <time>2017-09-17T11:14:51.113Z</time>
      </trkpt>
      <trkpt lat="48.89346" lon="1.86437">
        <ele>42.525</ele>
        <time>2017-09-17T11:15:02.132Z</time>
      </trkpt>
      <trkpt lat="48.89346" lon="1.86451">
        <ele>42.457</ele>
        <time>2017-09-17T11:15:08.000Z</time>
      </trkpt>
      <trkpt lat="48.89346" lon="1.86451">
        <ele>42.284</ele>
        <time>2017-09-17T11:15:16.000Z</time>
      </trkpt>
      <trkpt lat="48.89346" lon="1.86451">
        <ele>42.132</ele>
        <time>2017-09-17T11:15:19.592Z</time>
      </trkpt>
      <trkpt lat="48.89346" lon="1.86451">
        <ele>42.176</ele>
        <time>2017-09-17T11:15:26.000Z</time>
      </trkpt>
      <trkpt lat="48.89346" lon="1.86451">
        <ele>42.209</ele>
        <time>2017-09-17T11:15:26.100Z</time>
      </trkpt>
      <trkpt lat="48.89346" lon="1.86451">
        <ele>42.151</ele>
        <time>2017-09-17T11:15:28.000Z</time>
      </trkpt>
      <trkpt lat="48.89346" lon="1.86451">
        <ele>42.127</ele>
        <time>2017-09-17T11:15:28.036Z</time>
      </trkpt>
      <trkpt lat="48.89354" lon="1.86455">
        <ele>42.11</ele>
        <time>2017-09-17T11:15:42.677Z</time>
      </trkpt>
      <trkpt lat="48.89349" lon="1.86443">
        <ele>42.061</ele>
        <time>2017-09-17T11:15:52.422Z</time>
      </trkpt>
      <trkpt lat="48.89345" lon="1.8643">
        <ele>41.948</ele>
        <time>2017-09-17T11:16:00.838Z</time>
      </trkpt>
      <trkpt lat="48.89343" lon="1.86416">
        <ele>41.905</ele>
        <time>2017-09-17T11:16:08.000Z</time>
      </trkpt>
      <trkpt lat="48.89343" lon="1.86416">
        <ele>42.035</ele>
        <time>2017-09-17T11:16:12.000Z</time>
      </trkpt>
      <trkpt lat="48.89343" lon="1.86416">
        <ele>42.172</ele>
        <time>2017-09-17T11:23:43.280Z</time>
      </trkpt>
      <trkpt lat="48.89343" lon="1.86416">
        <ele>42.062</ele>
        <time>2017-09-17T11:24:16.996Z</time>
      </trkpt>
      <trkpt lat="48.89343" lon="1.86416">
        <ele>41.998</ele>
        <time>2017-09-17T11:24:28.407Z</time>
      </trkpt>
      <trkpt lat="48.89343" lon="1.8643">
        <ele>41.996</ele>
        <time>2017-09-17T11:24:40.996Z</time>
      </trkpt>
      <trkpt lat="48.89343" lon="1.8643">
        <ele>42.008</ele>
        <time>2017-09-17T11:24:46.996Z</time>
      </trkpt>
      <trkpt lat="48.89343" lon="1.8643">
        <ele>42.007</ele>
        <time>2017-09-17T11:25:07.335Z</time>
      </trkpt>
      <trkpt lat="48.89311" lon="1.86382">
        <ele>41.968</ele>
        <time>2017-09-17T11:32:09.894Z</time>
      </trkpt>
      <trkpt lat="48.89302" lon="1.86383">
        <ele>41.665</ele>
        <time>2017-09-17T11:33:34.355Z</time>
      </trkpt>
      <trkpt lat="48.89293" lon="1.86384">
        <ele>40.902</ele>
        <time>2017-09-17T11:34:59.320Z</time>
      </trkpt>
      <trkpt lat="48.89284" lon="1.86385">
        <ele>40.183</ele>
        <time>2017-09-17T11:36:25.459Z</time>
      </trkpt>
      <trkpt lat="48.89275" lon="1.86382">
        <ele>40.074</ele>
        <time>2017-09-17T11:37:51.178Z</time>
      </trkpt>
      <trkpt lat="48.89264" lon="1.86381">
        <ele>40.539</ele>
        <time>2017-09-17T11:39:07.353Z</time>
      </trkpt>
      <trkpt lat="48.89255" lon="1.86385">
        <ele>41.297</ele>
        <time>2017-09-17T11:39:39.000Z</time>
      </trkpt>
      <trkpt lat="48.89255" lon="1.86385">
        <ele>42.018</ele>
        <time>2017-09-17T11:39:45.000Z</time>
      </trkpt>
      <trkpt lat="48.89255" lon="1.86385">
        <ele>42.381</ele>
        <time>2017-09-17T11:39:47.024Z</time>
      </trkpt>
      <trkpt lat="48.89242" lon="1.86403">
        <ele>42.33</ele>
        <time>2017-09-17T11:40:07.015Z</time>
      </trkpt>
      <trkpt lat="48.89234" lon="1.86413">
        <ele>42.339</ele>
        <time>2017-09-17T11:40:15.632Z</time>
      </trkpt>
      <trkpt lat="48.89225" lon="1.86421">
        <ele>42.762</ele>
        <time>2017-09-17T11:40:23.949Z</time>
      </trkpt>
      <trkpt lat="48.89216" lon="1.86428">
        <ele>43.26</ele>
        <time>2017-09-17T11:40:31.789Z</time>
      </trkpt>
      <trkpt lat="48.89209" lon="1.86436">
        <ele>43.453</ele>
        <time>2017-09-17T11:40:38.777Z</time>
      </trkpt>
      <trkpt lat="48.892" lon="1.86442">
        <ele>43.354</ele>
        <time>2017-09-17T11:40:46.602Z</time>
      </trkpt>
      <trkpt lat="48.89191" lon="1.86448">
        <ele>43.068</ele>
        <time>2017-09-17T11:40:54.364Z</time>
      </trkpt>
      <trkpt lat="48.89182" lon="1.86453">
        <ele>42.749</ele>
        <time>2017-09-17T11:41:01.739Z</time>
      </trkpt>
      <trkpt lat="48.89173" lon="1.86458">
        <ele>42.594</ele>
        <time>2017-09-17T11:41:09.493Z</time>
      </trkpt>
      <trkpt lat="48.89164" lon="1.86463">
        <ele>42.706</ele>
        <time>2017-09-17T11:41:17.752Z</time>
      </trkpt>
      <trkpt lat="48.89155" lon="1.86468">
        <ele>43.014</ele>
        <time>2017-09-17T11:41:26.172Z</time>
      </trkpt>
      <trkpt lat="48.89146" lon="1.86473">
        <ele>43.314</ele>
        <time>2017-09-17T11:41:34.166Z</time>
      </trkpt>
      <trkpt lat="48.89137" lon="1.86477">
        <ele>43.468</ele>
        <time>2017-09-17T11:41:42.218Z</time>
      </trkpt>
      <trkpt lat="48.89129" lon="1.86481">
        <ele>43.321</ele>
        <time>2017-09-17T11:41:49.899Z</time>
      </trkpt>
      <trkpt lat="48.8912" lon="1.86484">
        <ele>42.828</ele>
        <time>2017-09-17T11:41:57.931Z</time>
      </trkpt>
      <trkpt lat="48.8911" lon="1.86487">
        <ele>42.213</ele>
        <time>2017-09-17T11:42:06.627Z</time>
      </trkpt>
      <trkpt lat="48.89101" lon="1.8649">
        <ele>41.709</ele>
        <time>2017-09-17T11:42:14.543Z</time>
      </trkpt>
      <trkpt lat="48.89091" lon="1.86493">
        <ele>41.39</ele>
        <time>2017-09-17T11:42:22.646Z</time>
      </trkpt>
      <trkpt lat="48.89082" lon="1.86495">
        <ele>41.353</ele>
        <time>2017-09-17T11:42:30.346Z</time>
      </trkpt>
      <trkpt lat="48.89073" lon="1.86497">
        <ele>41.658</ele>
        <time>2017-09-17T11:42:38.246Z</time>
      </trkpt>
      <trkpt lat="48.89063" lon="1.865">
        <ele>42.238</ele>
        <time>2017-09-17T11:42:46.238Z</time>
      </trkpt>
      <trkpt lat="48.89053" lon="1.86502">
        <ele>42.963</ele>
        <time>2017-09-17T11:42:54.232Z</time>
      </trkpt>
      <trkpt lat="48.89043" lon="1.86505">
        <ele>43.658</ele>
        <time>2017-09-17T11:43:01.931Z</time>
      </trkpt>
      <trkpt lat="48.89034" lon="1.86508">
        <ele>44.103</ele>
        <time>2017-09-17T11:43:09.950Z</time>
      </trkpt>
      <trkpt lat="48.89024" lon="1.8651">
        <ele>44.274</ele>
        <time>2017-09-17T11:43:18.337Z</time>
      </trkpt>
      <trkpt lat="48.89015" lon="1.86512">
        <ele>44.403</ele>
        <time>2017-09-17T11:43:26.255Z</time>
      </trkpt>
      <trkpt lat="48.89005" lon="1.86514">
        <ele>44.738</ele>
        <time>2017-09-17T11:43:35.042Z</time>
      </trkpt>
      <trkpt lat="48.88996" lon="1.86516">
        <ele>45.405</ele>
        <time>2017-09-17T11:43:43.772Z</time>
      </trkpt>
      <trkpt lat="48.88987" lon="1.86518">
        <ele>46.326</ele>
        <time>2017-09-17T11:43:51.941Z</time>
      </trkpt>
      <trkpt lat="48.88977" lon="1.8652">
        <ele>47.282</ele>
        <time>2017-09-17T11:44:00.229Z</time>
      </trkpt>
      <trkpt lat="48.88967" lon="1.86522">
        <ele>48.13</ele>
        <time>2017-09-17T11:44:08.741Z</time>
      </trkpt>
      <trkpt lat="48.88958" lon="1.86524">
        <ele>48.919</ele>
        <time>2017-09-17T11:44:16.537Z</time>
      </trkpt>
      <trkpt lat="48.88949" lon="1.86526">
        <ele>49.679</ele>
        <time>2017-09-17T11:44:24.663Z</time>
      </trkpt>
      <trkpt lat="48.88939" lon="1.8653">
        <ele>50.358</ele>
        <time>2017-09-17T11:44:32.654Z</time>
      </trkpt>
      <trkpt lat="48.88931" lon="1.86533">
        <ele>50.924</ele>
        <time>2017-09-17T11:44:40.267Z</time>
      </trkpt>
      <trkpt lat="48.88921" lon="1.86537">
        <ele>51.336</ele>
        <time>2017-09-17T11:44:48.319Z</time>
      </trkpt>
      <trkpt lat="48.88912" lon="1.8654">
        <ele>51.514</ele>
        <time>2017-09-17T11:44:56.216Z</time>
      </trkpt>
      <trkpt lat="48.88903" lon="1.86542">
        <ele>51.503</ele>
        <time>2017-09-17T11:45:03.978Z</time>
      </trkpt>
      <trkpt lat="48.88889" lon="1.86546">
        <ele>51.436</ele>
        <time>2017-09-17T11:45:16.084Z</time>
      </trkpt>
      <trkpt lat="48.88879" lon="1.86547">
        <ele>51.407</ele>
        <time>2017-09-17T11:45:23.616Z</time>
      </trkpt>
      <trkpt lat="48.8887" lon="1.86546">
        <ele>51.451</ele>
        <time>2017-09-17T11:45:31.693Z</time>
      </trkpt>
      <trkpt lat="48.8886" lon="1.86545">
        <ele>51.566</ele>
        <time>2017-09-17T11:45:39.444Z</time>
      </trkpt>
      <trkpt lat="48.88852" lon="1.8654">
        <ele>51.736</ele>
        <time>2017-09-17T11:45:47.279Z</time>
      </trkpt>
      <trkpt lat="48.88844" lon="1.86534">
        <ele>51.974</ele>
        <time>2017-09-17T11:45:55.519Z</time>
      </trkpt>
      <trkpt lat="48.88835" lon="1.86527">
        <ele>52.372</ele>
        <time>2017-09-17T11:46:04.807Z</time>
      </trkpt>
      <trkpt lat="48.88827" lon="1.86519">
        <ele>52.971</ele>
        <time>2017-09-17T11:46:13.505Z</time>
      </trkpt>
      <trkpt lat="48.8882" lon="1.8651">
        <ele>53.582</ele>
        <time>2017-09-17T11:46:21.213Z</time>
      </trkpt>
      <trkpt lat="48.88813" lon="1.86501">
        <ele>53.894</ele>
        <time>2017-09-17T11:46:29.031Z</time>
      </trkpt>
      <trkpt lat="48.88806" lon="1.8649">
        <ele>53.781</ele>
        <time>2017-09-17T11:46:36.798Z</time>
      </trkpt>
      <trkpt lat="48.888" lon="1.86479">
        <ele>53.318</ele>
        <time>2017-09-17T11:46:44.406Z</time>
      </trkpt>
      <trkpt lat="48.88793" lon="1.8647">
        <ele>52.675</ele>
        <time>2017-09-17T11:46:52.152Z</time>
      </trkpt>
      <trkpt lat="48.88787" lon="1.86461">
        <ele>52.044</ele>
        <time>2017-09-17T11:47:00.170Z</time>
      </trkpt>
      <trkpt lat="48.8878" lon="1.86451">
        <ele>51.546</ele>
        <time>2017-09-17T11:47:08.000Z</time>
      </trkpt>
      <trkpt lat="48.8878" lon="1.86451">
        <ele>51.227</ele>
        <time>2017-09-17T11:47:15.000Z</time>
      </trkpt>
      <trkpt lat="48.8878" lon="1.86451">
        <ele>51.093</ele>
        <time>2017-09-17T11:48:05.522Z</time>
      </trkpt>
      <trkpt lat="48.88764" lon="1.86434">
        <ele>51.135</ele>
        <time>2017-09-17T11:48:37.822Z</time>
      </trkpt>
      <trkpt lat="48.88758" lon="1.86423">
        <ele>51.369</ele>
        <time>2017-09-17T11:48:46.327Z</time>
      </trkpt>
      <trkpt lat="48.88751" lon="1.86414">
        <ele>51.844</ele>
        <time>2017-09-17T11:48:53.731Z</time>
      </trkpt>
      <trkpt lat="48.88743" lon="1.86406">
        <ele>52.48</ele>
        <time>2017-09-17T11:49:01.155Z</time>
      </trkpt>
      <trkpt lat="48.88735" lon="1.86398">
        <ele>53.023</ele>
        <time>2017-09-17T11:49:08.524Z</time>
      </trkpt>
      <trkpt lat="48.88728" lon="1.86388">
        <ele>53.267</ele>
        <time>2017-09-17T11:49:16.431Z</time>
      </trkpt>
      <trkpt lat="48.88718" lon="1.86382">
        <ele>53.249</ele>
        <time>2017-09-17T11:49:24.827Z</time>
      </trkpt>
      <trkpt lat="48.88711" lon="1.86371">
        <ele>53.225</ele>
        <time>2017-09-17T11:49:33.108Z</time>
      </trkpt>
      <trkpt lat="48.88704" lon="1.86362">
        <ele>53.457</ele>
        <time>2017-09-17T11:49:40.572Z</time>
      </trkpt>
      <trkpt lat="48.88695" lon="1.86352">
        <ele>53.89</ele>
        <time>2017-09-17T11:49:47.606Z</time>
      </trkpt>
      <trkpt lat="48.88687" lon="1.86344">
        <ele>54.263</ele>
        <time>2017-09-17T11:49:54.368Z</time>
      </trkpt>
      <trkpt lat="48.88679" lon="1.86336">
        <ele>54.466</ele>
        <time>2017-09-17T11:50:02.097Z</time>
      </trkpt>
      <trkpt lat="48.88667" lon="1.8633">
        <ele>54.644</ele>
        <time>2017-09-17T11:50:12.498Z</time>
      </trkpt>
      <trkpt lat="48.88659" lon="1.86322">
        <ele>55.011</ele>
        <time>2017-09-17T11:50:21.392Z</time>
      </trkpt>
      <trkpt lat="48.88652" lon="1.86312">
        <ele>55.612</ele>
        <time>2017-09-17T11:50:31.531Z</time>
      </trkpt>
      <trkpt lat="48.88648" lon="1.86299">
        <ele>56.299</ele>
        <time>2017-09-17T11:50:41.398Z</time>
      </trkpt>
      <trkpt lat="48.88642" lon="1.86286">
        <ele>56.882</ele>
        <time>2017-09-17T11:50:51.605Z</time>
      </trkpt>
      <trkpt lat="48.88634" lon="1.86277">
        <ele>57.368</ele>
        <time>2017-09-17T11:50:58.618Z</time>
      </trkpt>
      <trkpt lat="48.88626" lon="1.86267">
        <ele>57.926</ele>
        <time>2017-09-17T11:51:05.156Z</time>
      </trkpt>
      <trkpt lat="48.88619" lon="1.86258">
        <ele>58.586</ele>
        <time>2017-09-17T11:51:12.474Z</time>
      </trkpt>
      <trkpt lat="48.88613" lon="1.86247">
        <ele>59.266</ele>
        <time>2017-09-17T11:51:20.810Z</time>
      </trkpt>
      <trkpt lat="48.88607" lon="1.86237">
        <ele>60.032</ele>
        <time>2017-09-17T11:51:30.262Z</time>
      </trkpt>
      <trkpt lat="48.88602" lon="1.86225">
        <ele>60.967</ele>
        <time>2017-09-17T11:51:39.351Z</time>
      </trkpt>
      <trkpt lat="48.88595" lon="1.86214">
        <ele>61.983</ele>
        <time>2017-09-17T11:51:47.318Z</time>
      </trkpt>
      <trkpt lat="48.88587" lon="1.86206">
        <ele>62.935</ele>
        <time>2017-09-17T11:51:55.310Z</time>
      </trkpt>
      <trkpt lat="48.88579" lon="1.86199">
        <ele>63.838</ele>
        <time>2017-09-17T11:52:03.579Z</time>
      </trkpt>
      <trkpt lat="48.88571" lon="1.86191">
        <ele>64.71</ele>
        <time>2017-09-17T11:52:13.847Z</time>
      </trkpt>
      <trkpt lat="48.8857" lon="1.86177">
        <ele>65.58</ele>
        <time>2017-09-17T11:52:26.692Z</time>
      </trkpt>
      <trkpt lat="48.88564" lon="1.86165">
        <ele>66.535</ele>
        <time>2017-09-17T11:52:38.874Z</time>
      </trkpt>
      <trkpt lat="48.88556" lon="1.86157">
        <ele>67.65</ele>
        <time>2017-09-17T11:52:45.827Z</time>
      </trkpt>
      <trkpt lat="48.88547" lon="1.86146">
        <ele>68.828</ele>
        <time>2017-09-17T11:52:53.885Z</time>
      </trkpt>
      <trkpt lat="48.88541" lon="1.86136">
        <ele>69.785</ele>
        <time>2017-09-17T11:53:01.218Z</time>
      </trkpt>
      <trkpt lat="48.88534" lon="1.86127">
        <ele>70.57</ele>
        <time>2017-09-17T11:53:12.254Z</time>
      </trkpt>
      <trkpt lat="48.88526" lon="1.8612">
        <ele>71.574</ele>
        <time>2017-09-17T11:53:22.722Z</time>
      </trkpt>
      <trkpt lat="48.88518" lon="1.86112">
        <ele>72.853</ele>
        <time>2017-09-17T11:53:33.511Z</time>
      </trkpt>
      <trkpt lat="48.8851" lon="1.86103">
        <ele>74.205</ele>
        <time>2017-09-17T11:53:44.006Z</time>
      </trkpt>
      <trkpt lat="48.88502" lon="1.86094">
        <ele>75.497</ele>
        <time>2017-09-17T11:53:53.167Z</time>
      </trkpt>
      <trkpt lat="48.88494" lon="1.86085">
        <ele>76.595</ele>
        <time>2017-09-17T11:54:03.009Z</time>
      </trkpt>
      <trkpt lat="48.88487" lon="1.86075">
        <ele>77.559</ele>
        <time>2017-09-17T11:54:12.206Z</time>
      </trkpt>
      <trkpt lat="48.88479" lon="1.86067">
        <ele>78.549</ele>
        <time>2017-09-17T11:54:22.000Z</time>
      </trkpt>
      <trkpt lat="48.88479" lon="1.86067">
        <ele>79.433</ele>
        <time>2017-09-17T11:54:27.000Z</time>
      </trkpt>
      <trkpt lat="48.88479" lon="1.86067">
        <ele>79.859</ele>
        <time>2017-09-17T11:55:05.574Z</time>
      </trkpt>
      <trkpt lat="48.88477" lon="1.86049">
        <ele>79.783</ele>
        <time>2017-09-17T11:55:26.774Z</time>
      </trkpt>
      <trkpt lat="48.88482" lon="1.86037">
        <ele>79.572</ele>
        <time>2017-09-17T11:55:37.405Z</time>
      </trkpt>
      <trkpt lat="48.88488" lon="1.86026">
        <ele>79.52</ele>
        <time>2017-09-17T11:55:45.646Z</time>
      </trkpt>
      <trkpt lat="48.88495" lon="1.86014">
        <ele>79.478</ele>
        <time>2017-09-17T11:55:54.300Z</time>
      </trkpt>
      <trkpt lat="48.88501" lon="1.86004">
        <ele>79.065</ele>
        <time>2017-09-17T11:56:02.126Z</time>
      </trkpt>
      <trkpt lat="48.88508" lon="1.85994">
        <ele>77.753</ele>
        <time>2017-09-17T11:56:09.957Z</time>
      </trkpt>
      <trkpt lat="48.88516" lon="1.85985">
        <ele>75.557</ele>
        <time>2017-09-17T11:56:17.712Z</time>
      </trkpt>
      <trkpt lat="48.88524" lon="1.85976">
        <ele>73.481</ele>
        <time>2017-09-17T11:56:25.199Z</time>
      </trkpt>
      <trkpt lat="48.88532" lon="1.85971">
        <ele>72.339</ele>
        <time>2017-09-17T11:56:32.994Z</time>
      </trkpt>
      <trkpt lat="48.8854" lon="1.85964">
        <ele>71.979</ele>
        <time>2017-09-17T11:56:41.004Z</time>
      </trkpt>
      <trkpt lat="48.88549" lon="1.85959">
        <ele>72.017</ele>
        <time>2017-09-17T11:56:49.010Z</time>
      </trkpt>
      <trkpt lat="48.88557" lon="1.85952">
        <ele>72.233</ele>
        <time>2017-09-17T11:56:57.238Z</time>
      </trkpt>
      <trkpt lat="48.88566" lon="1.85954">
        <ele>72.496</ele>
        <time>2017-09-17T11:57:06.264Z</time>
      </trkpt>
      <trkpt lat="48.88575" lon="1.85949">
        <ele>72.69</ele>
        <time>2017-09-17T11:57:16.799Z</time>
      </trkpt>
      <trkpt lat="48.88584" lon="1.85945">
        <ele>72.942</ele>
        <time>2017-09-17T11:57:28.325Z</time>
      </trkpt>
      <trkpt lat="48.88593" lon="1.85942">
        <ele>73.63</ele>
        <time>2017-09-17T11:57:39.531Z</time>
      </trkpt>
      <trkpt lat="48.886" lon="1.85934">
        <ele>74.96</ele>
        <time>2017-09-17T11:57:50.545Z</time>
      </trkpt>
      <trkpt lat="48.8861" lon="1.85932">
        <ele>76.728</ele>
        <time>2017-09-17T11:58:02.131Z</time>
      </trkpt>
      <trkpt lat="48.88619" lon="1.85929">
        <ele>78.556</ele>
        <time>2017-09-17T11:58:12.912Z</time>
      </trkpt>
      <trkpt lat="48.88628" lon="1.85926">
        <ele>80.291</ele>
        <time>2017-09-17T11:58:24.544Z</time>
      </trkpt>
      <trkpt lat="48.88637" lon="1.85926">
        <ele>82.015</ele>
        <time>2017-09-17T11:58:37.370Z</time>
      </trkpt>
      <trkpt lat="48.88646" lon="1.85926">
        <ele>83.901</ele>
        <time>2017-09-17T11:58:49.136Z</time>
      </trkpt>
      <trkpt lat="48.88655" lon="1.85929">
        <ele>85.985</ele>
        <time>2017-09-17T11:59:00.757Z</time>
      </trkpt>
      <trkpt lat="48.88664" lon="1.85932">
        <ele>88.066</ele>
        <time>2017-09-17T11:59:13.731Z</time>
      </trkpt>
      <trkpt lat="48.88674" lon="1.85934">
        <ele>90.017</ele>
        <time>2017-09-17T11:59:25.146Z</time>
      </trkpt>
      <trkpt lat="48.88684" lon="1.85936">
        <ele>91.792</ele>
        <time>2017-09-17T11:59:34.503Z</time>
      </trkpt>
      <trkpt lat="48.88694" lon="1.85937">
        <ele>93.218</ele>
        <time>2017-09-17T11:59:43.601Z</time>
      </trkpt>
      <trkpt lat="48.88703" lon="1.85936">
        <ele>94.304</ele>
        <time>2017-09-17T11:59:52.868Z</time>
      </trkpt>
      <trkpt lat="48.88713" lon="1.85932">
        <ele>95.288</ele>
        <time>2017-09-17T12:00:04.606Z</time>
      </trkpt>
      <trkpt lat="48.88722" lon="1.8593">
        <ele>96.272</ele>
        <time>2017-09-17T12:00:15.414Z</time>
      </trkpt>
      <trkpt lat="48.88732" lon="1.85927">
        <ele>97.171</ele>
        <time>2017-09-17T12:00:25.054Z</time>
      </trkpt>
      <trkpt lat="48.88741" lon="1.85924">
        <ele>97.895</ele>
        <time>2017-09-17T12:00:34.078Z</time>
      </trkpt>
      <trkpt lat="48.88751" lon="1.85919">
        <ele>98.45</ele>
        <time>2017-09-17T12:00:44.000Z</time>
      </trkpt>
      <trkpt lat="48.88751" lon="1.85919">
        <ele>98.846</ele>
        <time>2017-09-17T12:00:51.000Z</time>
      </trkpt>
      <trkpt lat="48.88751" lon="1.85919">
        <ele>99.013</ele>
        <time>2017-09-17T12:01:05.206Z</time>
      </trkpt>
      <trkpt lat="48.88765" lon="1.85915">
        <ele>98.951</ele>
        <time>2017-09-17T12:01:25.035Z</time>
      </trkpt>
      <trkpt lat="48.88774" lon="1.85912">
        <ele>99.049</ele>
        <time>2017-09-17T12:01:33.051Z</time>
      </trkpt>
      <trkpt lat="48.88784" lon="1.85908">
        <ele>99.63</ele>
        <time>2017-09-17T12:01:41.000Z</time>
      </trkpt>
      <trkpt lat="48.88784" lon="1.85908">
        <ele>100.385</ele>
        <time>2017-09-17T12:01:47.000Z</time>
      </trkpt>
      <trkpt lat="48.88784" lon="1.85908">
        <ele>100.767</ele>
        <time>2017-09-17T12:03:48.339Z</time>
      </trkpt>
      <trkpt lat="48.88796" lon="1.85901">
        <ele>100.691</ele>
        <time>2017-09-17T12:04:09.000Z</time>
      </trkpt>
      <trkpt lat="48.88796" lon="1.85901">
        <ele>100.468</ele>
        <time>2017-09-17T12:04:17.000Z</time>
      </trkpt>
      <trkpt lat="48.88796" lon="1.85901">
        <ele>100.366</ele>
        <time>2017-09-17T12:04:37.548Z</time>
      </trkpt>
      <trkpt lat="48.88812" lon="1.85894">
        <ele>100.395</ele>
        <time>2017-09-17T12:05:06.750Z</time>
      </trkpt>
      <trkpt lat="48.88822" lon="1.85891">
        <ele>100.529</ele>
        <time>2017-09-17T12:05:16.765Z</time>
      </trkpt>
      <trkpt lat="48.88831" lon="1.85889">
        <ele>100.763</ele>
        <time>2017-09-17T12:05:24.952Z</time>
      </trkpt>
      <trkpt lat="48.8884" lon="1.85888">
        <ele>101.04</ele>
        <time>2017-09-17T12:05:32.743Z</time>
      </trkpt>
      <trkpt lat="48.88849" lon="1.85884">
        <ele>101.308</ele>
        <time>2017-09-17T12:05:40.814Z</time>
      </trkpt>
      <trkpt lat="48.88858" lon="1.8588">
        <ele>101.555</ele>
        <time>2017-09-17T12:05:49.804Z</time>
      </trkpt>
      <trkpt lat="48.88868" lon="1.85877">
        <ele>101.793</ele>
        <time>2017-09-17T12:05:58.628Z</time>
      </trkpt>
      <trkpt lat="48.88877" lon="1.85873">
        <ele>102.072</ele>
        <time>2017-09-17T12:06:07.578Z</time>
      </trkpt>
      <trkpt lat="48.88886" lon="1.85869">
        <ele>102.402</ele>
        <time>2017-09-17T12:06:15.342Z</time>
      </trkpt>
      <trkpt lat="48.88896" lon="1.85866">
        <ele>102.716</ele>
        <time>2017-09-17T12:06:23.387Z</time>
      </trkpt>
      <trkpt lat="48.88905" lon="1.85864">
        <ele>102.963</ele>
        <time>2017-09-17T12:06:31.539Z</time>
      </trkpt>
      <trkpt lat="48.88915" lon="1.85861">
        <ele>103.164</ele>
        <time>2017-09-17T12:06:40.375Z</time>
      </trkpt>
      <trkpt lat="48.88924" lon="1.85859">
        <ele>103.369</ele>
        <time>2017-09-17T12:06:49.792Z</time>
      </trkpt>
      <trkpt lat="48.8892" lon="1.85846">
        <ele>103.569</ele>
        <time>2017-09-17T12:06:59.178Z</time>
      </trkpt>
      <trkpt lat="48.88913" lon="1.85838">
        <ele>103.707</ele>
        <time>2017-09-17T12:07:07.018Z</time>
      </trkpt>
      <trkpt lat="48.88905" lon="1.85828">
        <ele>103.763</ele>
        <time>2017-09-17T12:07:15.616Z</time>
      </trkpt>
      <trkpt lat="48.88897" lon="1.85818">
        <ele>103.766</ele>
        <time>2017-09-17T12:07:24.572Z</time>
      </trkpt>
      <trkpt lat="48.8889" lon="1.85809">
        <ele>103.769</ele>
        <time>2017-09-17T12:07:32.579Z</time>
      </trkpt>
      <trkpt lat="48.88883" lon="1.85799">
        <ele>103.833</ele>
        <time>2017-09-17T12:07:41.322Z</time>
      </trkpt>
      <trkpt lat="48.88875" lon="1.8579">
        <ele>103.988</ele>
        <time>2017-09-17T12:07:49.656Z</time>
      </trkpt>
      <trkpt lat="48.88867" lon="1.85782">
        <ele>104.187</ele>
        <time>2017-09-17T12:07:57.590Z</time>
      </trkpt>
      <trkpt lat="48.8886" lon="1.85773">
        <ele>104.352</ele>
        <time>2017-09-17T12:08:05.531Z</time>
      </trkpt>
      <trkpt lat="48.88852" lon="1.85763">
        <ele>104.576</ele>
        <time>2017-09-17T12:08:14.437Z</time>
      </trkpt>
      <trkpt lat="48.88844" lon="1.85754">
        <ele>105.015</ele>
        <time>2017-09-17T12:08:23.327Z</time>
      </trkpt>
      <trkpt lat="48.88836" lon="1.85744">
        <ele>105.591</ele>
        <time>2017-09-17T12:08:32.252Z</time>
      </trkpt>
      <trkpt lat="48.88829" lon="1.85736">
        <ele>106.064</ele>
        <time>2017-09-17T12:08:40.331Z</time>
      </trkpt>
      <trkpt lat="48.88822" lon="1.85727">
        <ele>106.349</ele>
        <time>2017-09-17T12:08:48.180Z</time>
      </trkpt>
      <trkpt lat="48.88815" lon="1.85718">
        <ele>106.511</ele>
        <time>2017-09-17T12:08:56.053Z</time>
      </trkpt>
      <trkpt lat="48.88805" lon="1.85707">
        <ele>106.614</ele>
        <time>2017-09-17T12:09:06.129Z</time>
      </trkpt>
      <trkpt lat="48.88797" lon="1.85699">
        <ele>106.73</ele>
        <time>2017-09-17T12:09:13.879Z</time>
      </trkpt>
      <trkpt lat="48.88788" lon="1.85694">
        <ele>107.006</ele>
        <time>2017-09-17T12:09:21.864Z</time>
      </trkpt>
      <trkpt lat="48.88779" lon="1.8569">
        <ele>107.44</ele>
        <time>2017-09-17T12:09:29.827Z</time>
      </trkpt>
      <trkpt lat="48.88769" lon="1.85688">
        <ele>107.756</ele>
        <time>2017-09-17T12:09:37.625Z</time>
      </trkpt>
      <trkpt lat="48.88759" lon="1.85688">
        <ele>107.727</ele>
        <time>2017-09-17T12:09:45.644Z</time>
      </trkpt>
      <trkpt lat="48.8875" lon="1.8569">
        <ele>107.439</ele>
        <time>2017-09-17T12:09:53.482Z</time>
      </trkpt>
      <trkpt lat="48.8874" lon="1.85693">
        <ele>107.102</ele>
        <time>2017-09-17T12:10:01.517Z</time>
      </trkpt>
      <trkpt lat="48.88731" lon="1.85696">
        <ele>106.837</ele>
        <time>2017-09-17T12:10:09.283Z</time>
      </trkpt>
      <trkpt lat="48.88721" lon="1.85699">
        <ele>106.644</ele>
        <time>2017-09-17T12:10:17.357Z</time>
      </trkpt>
      <trkpt lat="48.88712" lon="1.85701">
        <ele>106.483</ele>
        <time>2017-09-17T12:10:25.112Z</time>
      </trkpt>
      <trkpt lat="48.88703" lon="1.85702">
        <ele>106.323</ele>
        <time>2017-09-17T12:10:33.111Z</time>
      </trkpt>
      <trkpt lat="48.88694" lon="1.85702">
        <ele>106.123</ele>
        <time>2017-09-17T12:10:41.046Z</time>
      </trkpt>
      <trkpt lat="48.88684" lon="1.85702">
        <ele>105.876</ele>
        <time>2017-09-17T12:10:49.215Z</time>
      </trkpt>
      <trkpt lat="48.88674" lon="1.857">
        <ele>105.589</ele>
        <time>2017-09-17T12:10:57.099Z</time>
      </trkpt>
      <trkpt lat="48.88665" lon="1.85698">
        <ele>105.272</ele>
        <time>2017-09-17T12:11:04.938Z</time>
      </trkpt>
      <trkpt lat="48.88656" lon="1.85692">
        <ele>104.905</ele>
        <time>2017-09-17T12:11:13.737Z</time>
      </trkpt>
      <trkpt lat="48.88649" lon="1.85683">
        <ele>104.37</ele>
        <time>2017-09-17T12:11:22.451Z</time>
      </trkpt>
      <trkpt lat="48.88642" lon="1.85675">
        <ele>103.65</ele>
        <time>2017-09-17T12:11:30.673Z</time>
      </trkpt>
      <trkpt lat="48.88633" lon="1.85668">
        <ele>102.908</ele>
        <time>2017-09-17T12:11:38.820Z</time>
      </trkpt>
      <trkpt lat="48.88626" lon="1.85659">
        <ele>102.236</ele>
        <time>2017-09-17T12:11:46.734Z</time>
      </trkpt>
      <trkpt lat="48.88617" lon="1.85654">
        <ele>101.599</ele>
        <time>2017-09-17T12:11:54.529Z</time>
      </trkpt>
      <trkpt lat="48.88608" lon="1.85648">
        <ele>100.952</ele>
        <time>2017-09-17T12:12:02.838Z</time>
      </trkpt>
      <trkpt lat="48.886" lon="1.8564">
        <ele>100.239</ele>
        <time>2017-09-17T12:12:10.788Z</time>
      </trkpt>
      <trkpt lat="48.88592" lon="1.85631">
        <ele>99.504</ele>
        <time>2017-09-17T12:12:19.162Z</time>
      </trkpt>
      <trkpt lat="48.88584" lon="1.85624">
        <ele>98.84</ele>
        <time>2017-09-17T12:12:27.200Z</time>
      </trkpt>
      <trkpt lat="48.88576" lon="1.85615">
        <ele>98.217</ele>
        <time>2017-09-17T12:12:35.640Z</time>
      </trkpt>
      <trkpt lat="48.88569" lon="1.85605">
        <ele>97.614</ele>
        <time>2017-09-17T12:12:42.791Z</time>
      </trkpt>
      <trkpt lat="48.88562" lon="1.85596">
        <ele>97.063</ele>
        <time>2017-09-17T12:12:50.531Z</time>
      </trkpt>
      <trkpt lat="48.88556" lon="1.85584">
        <ele>96.556</ele>
        <time>2017-09-17T12:12:58.944Z</time>
      </trkpt>
      <trkpt lat="48.8855" lon="1.85573">
        <ele>96.163</ele>
        <time>2017-09-17T12:13:07.049Z</time>
      </trkpt>
      <trkpt lat="48.88544" lon="1.85562">
        <ele>95.967</ele>
        <time>2017-09-17T12:13:14.348Z</time>
      </trkpt>
      <trkpt lat="48.88539" lon="1.85551">
        <ele>95.92</ele>
        <time>2017-09-17T12:13:21.536Z</time>
      </trkpt>
      <trkpt lat="48.88532" lon="1.85539">
        <ele>95.942</ele>
        <time>2017-09-17T12:13:29.650Z</time>
      </trkpt>
      <trkpt lat="48.88526" lon="1.85527">
        <ele>95.951</ele>
        <time>2017-09-17T12:13:38.084Z</time>
      </trkpt>
      <trkpt lat="48.88519" lon="1.85518">
        <ele>95.9</ele>
        <time>2017-09-17T12:13:45.666Z</time>
      </trkpt>
      <trkpt lat="48.88511" lon="1.85508">
        <ele>95.821</ele>
        <time>2017-09-17T12:13:53.766Z</time>
      </trkpt>
      <trkpt lat="48.88502" lon="1.85503">
        <ele>95.819</ele>
        <time>2017-09-17T12:14:01.639Z</time>
      </trkpt>
      <trkpt lat="48.88493" lon="1.85504">
        <ele>95.976</ele>
        <time>2017-09-17T12:14:09.659Z</time>
      </trkpt>
      <trkpt lat="48.88484" lon="1.85509">
        <ele>96.245</ele>
        <time>2017-09-17T12:14:16.982Z</time>
      </trkpt>
      <trkpt lat="48.88474" lon="1.85514">
        <ele>96.506</ele>
        <time>2017-09-17T12:14:24.712Z</time>
      </trkpt>
      <trkpt lat="48.88466" lon="1.85519">
        <ele>96.769</ele>
        <time>2017-09-17T12:14:31.868Z</time>
      </trkpt>
      <trkpt lat="48.88457" lon="1.85524">
        <ele>97.134</ele>
        <time>2017-09-17T12:14:39.531Z</time>
      </trkpt>
      <trkpt lat="48.88448" lon="1.85529">
        <ele>97.628</ele>
        <time>2017-09-17T12:14:47.692Z</time>
      </trkpt>
      <trkpt lat="48.88439" lon="1.85532">
        <ele>98.239</ele>
        <time>2017-09-17T12:14:56.196Z</time>
      </trkpt>
      <trkpt lat="48.88431" lon="1.85537">
        <ele>98.962</ele>
        <time>2017-09-17T12:15:05.138Z</time>
      </trkpt>
      <trkpt lat="48.88422" lon="1.85543">
        <ele>99.769</ele>
        <time>2017-09-17T12:15:13.527Z</time>
      </trkpt>
      <trkpt lat="48.88413" lon="1.85548">
        <ele>100.672</ele>
        <time>2017-09-17T12:15:21.614Z</time>
      </trkpt>
      <trkpt lat="48.88407" lon="1.85558">
        <ele>101.673</ele>
        <time>2017-09-17T12:15:29.829Z</time>
      </trkpt>
      <trkpt lat="48.88398" lon="1.85566">
        <ele>102.743</ele>
        <time>2017-09-17T12:15:38.237Z</time>
      </trkpt>
      <trkpt lat="48.88391" lon="1.85575">
        <ele>103.838</ele>
        <time>2017-09-17T12:15:46.481Z</time>
      </trkpt>
      <trkpt lat="48.88383" lon="1.85585">
        <ele>104.888</ele>
        <time>2017-09-17T12:15:54.822Z</time>
      </trkpt>
      <trkpt lat="48.88377" lon="1.85595">
        <ele>105.765</ele>
        <time>2017-09-17T12:16:03.453Z</time>
      </trkpt>
      <trkpt lat="48.88364" lon="1.85611">
        <ele>106.346</ele>
        <time>2017-09-17T12:16:18.616Z</time>
      </trkpt>
      <trkpt lat="48.88358" lon="1.85622">
        <ele>106.682</ele>
        <time>2017-09-17T12:16:26.931Z</time>
      </trkpt>
      <trkpt lat="48.88352" lon="1.85632">
        <ele>107.041</ele>
        <time>2017-09-17T12:16:35.532Z</time>
      </trkpt>
      <trkpt lat="48.88344" lon="1.8564">
        <ele>107.642</ele>
        <time>2017-09-17T12:16:45.000Z</time>
      </trkpt>
      <trkpt lat="48.88344" lon="1.8564">
        <ele>108.345</ele>
        <time>2017-09-17T12:16:51.000Z</time>
      </trkpt>
      <trkpt lat="48.88344" lon="1.8564">
        <ele>108.733</ele>
        <time>2017-09-17T12:17:32.885Z</time>
      </trkpt>
      <trkpt lat="48.88339" lon="1.85655">
        <ele>108.659</ele>
        <time>2017-09-17T12:17:52.275Z</time>
      </trkpt>
      <trkpt lat="48.88337" lon="1.8567">
        <ele>108.426</ele>
        <time>2017-09-17T12:18:02.302Z</time>
      </trkpt>
      <trkpt lat="48.88335" lon="1.85684">
        <ele>108.448</ele>
        <time>2017-09-17T12:18:11.571Z</time>
      </trkpt>
      <trkpt lat="48.88333" lon="1.85698">
        <ele>108.902</ele>
        <time>2017-09-17T12:18:20.217Z</time>
      </trkpt>
      <trkpt lat="48.88332" lon="1.85713">
        <ele>109.577</ele>
        <time>2017-09-17T12:18:29.274Z</time>
      </trkpt>
      <trkpt lat="48.88331" lon="1.85728">
        <ele>110.094</ele>
        <time>2017-09-17T12:18:37.941Z</time>
      </trkpt>
      <trkpt lat="48.8833" lon="1.85742">
        <ele>110.288</ele>
        <time>2017-09-17T12:18:45.748Z</time>
      </trkpt>
      <trkpt lat="48.88329" lon="1.85757">
        <ele>110.182</ele>
        <time>2017-09-17T12:18:53.948Z</time>
      </trkpt>
      <trkpt lat="48.88328" lon="1.85771">
        <ele>109.874</ele>
        <time>2017-09-17T12:19:01.578Z</time>
      </trkpt>
      <trkpt lat="48.88327" lon="1.85786">
        <ele>109.488</ele>
        <time>2017-09-17T12:19:09.586Z</time>
      </trkpt>
      <trkpt lat="48.88327" lon="1.85801">
        <ele>109.064</ele>
        <time>2017-09-17T12:19:17.638Z</time>
      </trkpt>
      <trkpt lat="48.88326" lon="1.85816">
        <ele>108.637</ele>
        <time>2017-09-17T12:19:25.295Z</time>
      </trkpt>
      <trkpt lat="48.88326" lon="1.85829">
        <ele>108.244</ele>
        <time>2017-09-17T12:19:33.055Z</time>
      </trkpt>
      <trkpt lat="48.88325" lon="1.85844">
        <ele>107.795</ele>
        <time>2017-09-17T12:19:41.916Z</time>
      </trkpt>
      <trkpt lat="48.88324" lon="1.85859">
        <ele>107.272</ele>
        <time>2017-09-17T12:19:50.372Z</time>
      </trkpt>
      <trkpt lat="48.88322" lon="1.85873">
        <ele>106.81</ele>
        <time>2017-09-17T12:19:59.038Z</time>
      </trkpt>
      <trkpt lat="48.88321" lon="1.85888">
        <ele>106.479</ele>
        <time>2017-09-17T12:20:07.580Z</time>
      </trkpt>
      <trkpt lat="48.8832" lon="1.85903">
        <ele>106.249</ele>
        <time>2017-09-17T12:20:17.090Z</time>
      </trkpt>
      <trkpt lat="48.88319" lon="1.85917">
        <ele>106.043</ele>
        <time>2017-09-17T12:20:25.413Z</time>
      </trkpt>
      <trkpt lat="48.88319" lon="1.85932">
        <ele>105.823</ele>
        <time>2017-09-17T12:20:33.510Z</time>
      </trkpt>
      <trkpt lat="48.88319" lon="1.85946">
        <ele>105.629</ele>
        <time>2017-09-17T12:20:40.617Z</time>
      </trkpt>
      <trkpt lat="48.88318" lon="1.85961">
        <ele>105.458</ele>
        <time>2017-09-17T12:20:48.046Z</time>
      </trkpt>
      <trkpt lat="48.88318" lon="1.85975">
        <ele>105.288</ele>
        <time>2017-09-17T12:20:55.152Z</time>
      </trkpt>
      <trkpt lat="48.88319" lon="1.85989">
        <ele>105.098</ele>
        <time>2017-09-17T12:21:03.126Z</time>
      </trkpt>
      <trkpt lat="48.88318" lon="1.86004">
        <ele>104.867</ele>
        <time>2017-09-17T12:21:11.187Z</time>
      </trkpt>
      <trkpt lat="48.88318" lon="1.86018">
        <ele>104.656</ele>
        <time>2017-09-17T12:21:19.613Z</time>
      </trkpt>
      <trkpt lat="48.88315" lon="1.86032">
        <ele>104.52</ele>
        <time>2017-09-17T12:21:28.276Z</time>
      </trkpt>
      <trkpt lat="48.88306" lon="1.86028">
        <ele>104.438</ele>
        <time>2017-09-17T12:21:37.478Z</time>
      </trkpt>
      <trkpt lat="48.88294" lon="1.86024">
        <ele>104.517</ele>
        <time>2017-09-17T12:21:48.289Z</time>
      </trkpt>
      <trkpt lat="48.88285" lon="1.86023">
        <ele>105.059</ele>
        <time>2017-09-17T12:21:55.918Z</time>
      </trkpt>
      <trkpt lat="48.88276" lon="1.86025">
        <ele>106.036</ele>
        <time>2017-09-17T12:22:04.248Z</time>
      </trkpt>
      <trkpt lat="48.88267" lon="1.8603">
        <ele>107.015</ele>
        <time>2017-09-17T12:22:13.246Z</time>
      </trkpt>
      <trkpt lat="48.88257" lon="1.86032">
        <ele>107.877</ele>
        <time>2017-09-17T12:22:22.524Z</time>
      </trkpt>
      <trkpt lat="48.88247" lon="1.86032">
        <ele>108.867</ele>
        <time>2017-09-17T12:22:31.873Z</time>
      </trkpt>
      <trkpt lat="48.88237" lon="1.86032">
        <ele>109.99</ele>
        <time>2017-09-17T12:22:43.418Z</time>
      </trkpt>
      <trkpt lat="48.88228" lon="1.86031">
        <ele>111.082</ele>
        <time>2017-09-17T12:22:53.252Z</time>
      </trkpt>
      <trkpt lat="48.88219" lon="1.86028">
        <ele>112.017</ele>
        <time>2017-09-17T12:23:00.161Z</time>
      </trkpt>
      <trkpt lat="48.8821" lon="1.86029">
        <ele>112.655</ele>
        <time>2017-09-17T12:23:06.999Z</time>
      </trkpt>
      <trkpt lat="48.8821" lon="1.86029">
        <ele>112.94</ele>
        <time>2017-09-17T12:23:09.999Z</time>
      </trkpt>
      <trkpt lat="48.8821" lon="1.86029">
        <ele>112.981</ele>
        <time>2017-09-17T12:23:14.635Z</time>
      </trkpt>
      <trkpt lat="48.88201" lon="1.86033">
        <ele>112.911</ele>
        <time>2017-09-17T12:23:30.579Z</time>
      </trkpt>
      <trkpt lat="48.88193" lon="1.86041">
        <ele>112.895</ele>
        <time>2017-09-17T12:23:40.687Z</time>
      </trkpt>
      <trkpt lat="48.88184" lon="1.86046">
        <ele>113.146</ele>
        <time>2017-09-17T12:23:50.332Z</time>
      </trkpt>
      <trkpt lat="48.88175" lon="1.86052">
        <ele>113.72</ele>
        <time>2017-09-17T12:23:58.383Z</time>
      </trkpt>
      <trkpt lat="48.88167" lon="1.8606">
        <ele>114.413</ele>
        <time>2017-09-17T12:24:07.204Z</time>
      </trkpt>
      <trkpt lat="48.8816" lon="1.86068">
        <ele>114.966</ele>
        <time>2017-09-17T12:24:15.307Z</time>
      </trkpt>
      <trkpt lat="48.88152" lon="1.86076">
        <ele>115.393</ele>
        <time>2017-09-17T12:24:23.035Z</time>
      </trkpt>
      <trkpt lat="48.88144" lon="1.86084">
        <ele>115.843</ele>
        <time>2017-09-17T12:24:30.933Z</time>
      </trkpt>
      <trkpt lat="48.88136" lon="1.86094">
        <ele>116.279</ele>
        <time>2017-09-17T12:24:39.287Z</time>
      </trkpt>
      <trkpt lat="48.88128" lon="1.86102">
        <ele>116.588</ele>
        <time>2017-09-17T12:24:47.621Z</time>
      </trkpt>
      <trkpt lat="48.88121" lon="1.86113">
        <ele>116.803</ele>
        <time>2017-09-17T12:24:56.382Z</time>
      </trkpt>
      <trkpt lat="48.88114" lon="1.86121">
        <ele>116.953</ele>
        <time>2017-09-17T12:25:03.887Z</time>
      </trkpt>
      <trkpt lat="48.88105" lon="1.86129">
        <ele>117.021</ele>
        <time>2017-09-17T12:25:12.047Z</time>
      </trkpt>
      <trkpt lat="48.88098" lon="1.86138">
        <ele>117.014</ele>
        <time>2017-09-17T12:25:19.966Z</time>
      </trkpt>
      <trkpt lat="48.8809" lon="1.86145">
        <ele>116.979</ele>
        <time>2017-09-17T12:25:27.571Z</time>
      </trkpt>
      <trkpt lat="48.88082" lon="1.86152">
        <ele>116.964</ele>
        <time>2017-09-17T12:25:36.031Z</time>
      </trkpt>
      <trkpt lat="48.88073" lon="1.86154">
        <ele>116.997</ele>
        <time>2017-09-17T12:25:44.532Z</time>
      </trkpt>
      <trkpt lat="48.88064" lon="1.86152">
        <ele>117.114</ele>
        <time>2017-09-17T12:25:52.462Z</time>
      </trkpt>
      <trkpt lat="48.88054" lon="1.86152">
        <ele>117.307</ele>
        <time>2017-09-17T12:26:00.708Z</time>
      </trkpt>
      <trkpt lat="48.88045" lon="1.86151">
        <ele>117.503</ele>
        <time>2017-09-17T12:26:09.421Z</time>
      </trkpt>
      <trkpt lat="48.88034" lon="1.86151">
        <ele>117.654</ele>
        <time>2017-09-17T12:26:18.521Z</time>
      </trkpt>
      <trkpt lat="48.88025" lon="1.86152">
        <ele>117.747</ele>
        <time>2017-09-17T12:26:27.437Z</time>
      </trkpt>
      <trkpt lat="48.88016" lon="1.86153">
        <ele>117.789</ele>
        <time>2017-09-17T12:26:36.436Z</time>
      </trkpt>
      <trkpt lat="48.88007" lon="1.86152">
        <ele>117.811</ele>
        <time>2017-09-17T12:26:44.648Z</time>
      </trkpt>
      <trkpt lat="48.87997" lon="1.86152">
        <ele>117.826</ele>
        <time>2017-09-17T12:26:54.343Z</time>
      </trkpt>
      <trkpt lat="48.87988" lon="1.86158">
        <ele>117.834</ele>
        <time>2017-09-17T12:27:05.063Z</time>
      </trkpt>
      <trkpt lat="48.87978" lon="1.8616">
        <ele>117.827</ele>
        <time>2017-09-17T12:27:15.236Z</time>
      </trkpt>
      <trkpt lat="48.87969" lon="1.86163">
        <ele>117.785</ele>
        <time>2017-09-17T12:27:24.652Z</time>
      </trkpt>
      <trkpt lat="48.87961" lon="1.86172">
        <ele>117.695</ele>
        <time>2017-09-17T12:27:33.568Z</time>
      </trkpt>
      <trkpt lat="48.87954" lon="1.8618">
        <ele>117.513</ele>
        <time>2017-09-17T12:27:41.247Z</time>
      </trkpt>
      <trkpt lat="48.87944" lon="1.86186">
        <ele>117.183</ele>
        <time>2017-09-17T12:27:49.890Z</time>
      </trkpt>
      <trkpt lat="48.87937" lon="1.86193">
        <ele>116.768</ele>
        <time>2017-09-17T12:27:57.491Z</time>
      </trkpt>
      <trkpt lat="48.8793" lon="1.86204">
        <ele>116.415</ele>
        <time>2017-09-17T12:28:05.828Z</time>
      </trkpt>
      <trkpt lat="48.87922" lon="1.86213">
        <ele>116.149</ele>
        <time>2017-09-17T12:28:14.248Z</time>
      </trkpt>
      <trkpt lat="48.87915" lon="1.86222">
        <ele>115.854</ele>
        <time>2017-09-17T12:28:22.235Z</time>
      </trkpt>
      <trkpt lat="48.87906" lon="1.86227">
        <ele>115.506</ele>
        <time>2017-09-17T12:28:30.160Z</time>
      </trkpt>
      <trkpt lat="48.87897" lon="1.86235">
        <ele>115.246</ele>
        <time>2017-09-17T12:28:38.444Z</time>
      </trkpt>
      <trkpt lat="48.87888" lon="1.86241">
        <ele>115.327</ele>
        <time>2017-09-17T12:28:46.967Z</time>
      </trkpt>
      <trkpt lat="48.87879" lon="1.86246">
        <ele>115.794</ele>
        <time>2017-09-17T12:28:55.548Z</time>
      </trkpt>
      <trkpt lat="48.8787" lon="1.8625">
        <ele>116.21</ele>
        <time>2017-09-17T12:29:03.994Z</time>
      </trkpt>
      <trkpt lat="48.8786" lon="1.86251">
        <ele>116.204</ele>
        <time>2017-09-17T12:29:13.210Z</time>
      </trkpt>
      <trkpt lat="48.87851" lon="1.8625">
        <ele>115.873</ele>
        <time>2017-09-17T12:29:21.913Z</time>
      </trkpt>
      <trkpt lat="48.87841" lon="1.86249">
        <ele>115.411</ele>
        <time>2017-09-17T12:29:30.402Z</time>
      </trkpt>
      <trkpt lat="48.87832" lon="1.86246">
        <ele>114.984</ele>
        <time>2017-09-17T12:29:39.200Z</time>
      </trkpt>
      <trkpt lat="48.87822" lon="1.86243">
        <ele>114.639</ele>
        <time>2017-09-17T12:29:47.396Z</time>
      </trkpt>
      <trkpt lat="48.87813" lon="1.8624">
        <ele>114.252</ele>
        <time>2017-09-17T12:29:55.178Z</time>
      </trkpt>
      <trkpt lat="48.87804" lon="1.86238">
        <ele>113.807</ele>
        <time>2017-09-17T12:30:03.134Z</time>
      </trkpt>
      <trkpt lat="48.87794" lon="1.86236">
        <ele>113.381</ele>
        <time>2017-09-17T12:30:11.685Z</time>
      </trkpt>
      <trkpt lat="48.87785" lon="1.86233">
        <ele>112.983</ele>
        <time>2017-09-17T12:30:20.860Z</time>
      </trkpt>
      <trkpt lat="48.87775" lon="1.86231">
        <ele>112.626</ele>
        <time>2017-09-17T12:30:30.083Z</time>
      </trkpt>
      <trkpt lat="48.87766" lon="1.86229">
        <ele>112.318</ele>
        <time>2017-09-17T12:30:38.516Z</time>
      </trkpt>
      <trkpt lat="48.87757" lon="1.86227">
        <ele>111.934</ele>
        <time>2017-09-17T12:30:46.599Z</time>
      </trkpt>
      <trkpt lat="48.87748" lon="1.86224">
        <ele>111.381</ele>
        <time>2017-09-17T12:30:54.878Z</time>
      </trkpt>
      <trkpt lat="48.87737" lon="1.86222">
        <ele>110.813</ele>
        <time>2017-09-17T12:31:03.734Z</time>
      </trkpt>
      <trkpt lat="48.87728" lon="1.8622">
        <ele>110.421</ele>
        <time>2017-09-17T12:31:11.665Z</time>
      </trkpt>
      <trkpt lat="48.87719" lon="1.8622">
        <ele>110.179</ele>
        <time>2017-09-17T12:31:19.782Z</time>
      </trkpt>
      <trkpt lat="48.87709" lon="1.86222">
        <ele>109.988</ele>
        <time>2017-09-17T12:31:27.826Z</time>
      </trkpt>
      <trkpt lat="48.877" lon="1.86223">
        <ele>109.777</ele>
        <time>2017-09-17T12:31:35.650Z</time>
      </trkpt>
      <trkpt lat="48.8769" lon="1.86225">
        <ele>109.474</ele>
        <time>2017-09-17T12:31:43.989Z</time>
      </trkpt>
      <trkpt lat="48.8768" lon="1.86229">
        <ele>109.009</ele>
        <time>2017-09-17T12:31:52.188Z</time>
      </trkpt>
      <trkpt lat="48.87671" lon="1.86234">
        <ele>108.395</ele>
        <time>2017-09-17T12:31:59.944Z</time>
      </trkpt>
      <trkpt lat="48.87663" lon="1.86239">
        <ele>107.681</ele>
        <time>2017-09-17T12:32:07.378Z</time>
      </trkpt>
      <trkpt lat="48.87654" lon="1.86245">
        <ele>106.898</ele>
        <time>2017-09-17T12:32:15.650Z</time>
      </trkpt>
      <trkpt lat="48.87645" lon="1.86251">
        <ele>106.129</ele>
        <time>2017-09-17T12:32:23.925Z</time>
      </trkpt>
      <trkpt lat="48.87636" lon="1.86257">
        <ele>105.491</ele>
        <time>2017-09-17T12:32:31.986Z</time>
      </trkpt>
      <trkpt lat="48.87627" lon="1.86263">
        <ele>104.957</ele>
        <time>2017-09-17T12:32:39.886Z</time>
      </trkpt>
      <trkpt lat="48.87618" lon="1.8627">
        <ele>104.326</ele>
        <time>2017-09-17T12:32:49.039Z</time>
      </trkpt>
      <trkpt lat="48.87611" lon="1.86279">
        <ele>103.497</ele>
        <time>2017-09-17T12:32:58.965Z</time>
      </trkpt>
      <trkpt lat="48.87604" lon="1.86288">
        <ele>102.599</ele>
        <time>2017-09-17T12:33:07.853Z</time>
      </trkpt>
      <trkpt lat="48.87598" lon="1.86299">
        <ele>101.71</ele>
        <time>2017-09-17T12:33:15.744Z</time>
      </trkpt>
      <trkpt lat="48.87597" lon="1.86314">
        <ele>100.684</ele>
        <time>2017-09-17T12:33:24.004Z</time>
      </trkpt>
      <trkpt lat="48.87596" lon="1.86328">
        <ele>99.473</ele>
        <time>2017-09-17T12:33:31.479Z</time>
      </trkpt>
      <trkpt lat="48.87598" lon="1.86343">
        <ele>98.343</ele>
        <time>2017-09-17T12:33:39.493Z</time>
      </trkpt>
      <trkpt lat="48.876" lon="1.86358">
        <ele>97.499</ele>
        <time>2017-09-17T12:33:47.665Z</time>
      </trkpt>
      <trkpt lat="48.87603" lon="1.86371">
        <ele>96.806</ele>
        <time>2017-09-17T12:33:55.108Z</time>
      </trkpt>
      <trkpt lat="48.87605" lon="1.86384">
        <ele>96.116</ele>
        <time>2017-09-17T12:34:03.087Z</time>
      </trkpt>
      <trkpt lat="48.87608" lon="1.86398">
        <ele>95.39</ele>
        <time>2017-09-17T12:34:12.010Z</time>
      </trkpt>
      <trkpt lat="48.87611" lon="1.86412">
        <ele>94.618</ele>
        <time>2017-09-17T12:34:20.222Z</time>
      </trkpt>
      <trkpt lat="48.87615" lon="1.86424">
        <ele>93.819</ele>
        <time>2017-09-17T12:34:27.680Z</time>
      </trkpt>
      <trkpt lat="48.87619" lon="1.86438">
        <ele>92.987</ele>
        <time>2017-09-17T12:34:36.353Z</time>
      </trkpt>
      <trkpt lat="48.87623" lon="1.86452">
        <ele>92.015</ele>
        <time>2017-09-17T12:34:46.044Z</time>
      </trkpt>
      <trkpt lat="48.87627" lon="1.86466">
        <ele>90.865</ele>
        <time>2017-09-17T12:34:57.482Z</time>
      </trkpt>
      <trkpt lat="48.87632" lon="1.86478">
        <ele>89.745</ele>
        <time>2017-09-17T12:35:10.063Z</time>
      </trkpt>
      <trkpt lat="48.87637" lon="1.86489">
        <ele>88.908</ele>
        <time>2017-09-17T12:35:25.475Z</time>
      </trkpt>
      <trkpt lat="48.8764" lon="1.86502">
        <ele>88.426</ele>
        <time>2017-09-17T12:35:40.411Z</time>
      </trkpt>
      <trkpt lat="48.87637" lon="1.86515">
        <ele>88.079</ele>
        <time>2017-09-17T12:35:56.002Z</time>
      </trkpt>
      <trkpt lat="48.87629" lon="1.86525">
        <ele>87.563</ele>
        <time>2017-09-17T12:36:12.590Z</time>
      </trkpt>
      <trkpt lat="48.87622" lon="1.86534">
        <ele>86.758</ele>
        <time>2017-09-17T12:36:25.906Z</time>
      </trkpt>
      <trkpt lat="48.87615" lon="1.86543">
        <ele>85.752</ele>
        <time>2017-09-17T12:36:34.315Z</time>
      </trkpt>
      <trkpt lat="48.87609" lon="1.86554">
        <ele>84.702</ele>
        <time>2017-09-17T12:36:42.427Z</time>
      </trkpt>
      <trkpt lat="48.87602" lon="1.86563">
        <ele>83.721</ele>
        <time>2017-09-17T12:36:51.498Z</time>
      </trkpt>
      <trkpt lat="48.87595" lon="1.86572">
        <ele>82.704</ele>
        <time>2017-09-17T12:37:01.744Z</time>
      </trkpt>
      <trkpt lat="48.87587" lon="1.86583">
        <ele>81.594</ele>
        <time>2017-09-17T12:37:12.922Z</time>
      </trkpt>
      <trkpt lat="48.87581" lon="1.86593">
        <ele>80.511</ele>
        <time>2017-09-17T12:37:22.731Z</time>
      </trkpt>
      <trkpt lat="48.87575" lon="1.86603">
        <ele>79.484</ele>
        <time>2017-09-17T12:37:31.748Z</time>
      </trkpt>
      <trkpt lat="48.87567" lon="1.86613">
        <ele>78.386</ele>
        <time>2017-09-17T12:37:41.818Z</time>
      </trkpt>
      <trkpt lat="48.8756" lon="1.86624">
        <ele>77.224</ele>
        <time>2017-09-17T12:37:51.520Z</time>
      </trkpt>
      <trkpt lat="48.87553" lon="1.86633">
        <ele>76.07</ele>
        <time>2017-09-17T12:37:59.899Z</time>
      </trkpt>
      <trkpt lat="48.87546" lon="1.86641">
        <ele>75.006</ele>
        <time>2017-09-17T12:38:07.659Z</time>
      </trkpt>
      <trkpt lat="48.87539" lon="1.86652">
        <ele>74.128</ele>
        <time>2017-09-17T12:38:15.437Z</time>
      </trkpt>
      <trkpt lat="48.87533" lon="1.86663">
        <ele>73.389</ele>
        <time>2017-09-17T12:38:23.321Z</time>
      </trkpt>
      <trkpt lat="48.87525" lon="1.86674">
        <ele>72.647</ele>
        <time>2017-09-17T12:38:31.643Z</time>
      </trkpt>
      <trkpt lat="48.87519" lon="1.86684">
        <ele>71.848</ele>
        <time>2017-09-17T12:38:39.685Z</time>
      </trkpt>
      <trkpt lat="48.87512" lon="1.86694">
        <ele>70.967</ele>
        <time>2017-09-17T12:38:47.554Z</time>
      </trkpt>
      <trkpt lat="48.87505" lon="1.86703">
        <ele>69.992</ele>
        <time>2017-09-17T12:38:55.244Z</time>
      </trkpt>
      <trkpt lat="48.87498" lon="1.86714">
        <ele>68.932</ele>
        <time>2017-09-17T12:39:03.706Z</time>
      </trkpt>
      <trkpt lat="48.87492" lon="1.86723">
        <ele>67.786</ele>
        <time>2017-09-17T12:39:11.745Z</time>
      </trkpt>
      <trkpt lat="48.87484" lon="1.86733">
        <ele>66.568</ele>
        <time>2017-09-17T12:39:20.053Z</time>
      </trkpt>
      <trkpt lat="48.87478" lon="1.86743">
        <ele>65.403</ele>
        <time>2017-09-17T12:39:28.474Z</time>
      </trkpt>
      <trkpt lat="48.87471" lon="1.86753">
        <ele>64.477</ele>
        <time>2017-09-17T12:39:36.084Z</time>
      </trkpt>
      <trkpt lat="48.87463" lon="1.86763">
        <ele>63.848</ele>
        <time>2017-09-17T12:39:44.297Z</time>
      </trkpt>
      <trkpt lat="48.87455" lon="1.86771">
        <ele>63.398</ele>
        <time>2017-09-17T12:39:52.142Z</time>
      </trkpt>
      <trkpt lat="48.8745" lon="1.8676">
        <ele>63.043</ele>
        <time>2017-09-17T12:40:00.711Z</time>
      </trkpt>
      <trkpt lat="48.87446" lon="1.86747">
        <ele>62.825</ele>
        <time>2017-09-17T12:40:10.297Z</time>
      </trkpt>
      <trkpt lat="48.87442" lon="1.86733">
        <ele>62.783</ele>
        <time>2017-09-17T12:40:19.447Z</time>
      </trkpt>
      <trkpt lat="48.87438" lon="1.8672">
        <ele>62.857</ele>
        <time>2017-09-17T12:40:28.046Z</time>
      </trkpt>
      <trkpt lat="48.87432" lon="1.86707">
        <ele>62.956</ele>
        <time>2017-09-17T12:40:37.413Z</time>
      </trkpt>
      <trkpt lat="48.87428" lon="1.86694">
        <ele>63.044</ele>
        <time>2017-09-17T12:40:45.828Z</time>
      </trkpt>
      <trkpt lat="48.87424" lon="1.8668">
        <ele>63.174</ele>
        <time>2017-09-17T12:40:54.036Z</time>
      </trkpt>
      <trkpt lat="48.8742" lon="1.86666">
        <ele>63.391</ele>
        <time>2017-09-17T12:41:02.976Z</time>
      </trkpt>
      <trkpt lat="48.87417" lon="1.86653">
        <ele>63.689</ele>
        <time>2017-09-17T12:41:11.716Z</time>
      </trkpt>
      <trkpt lat="48.87412" lon="1.86639">
        <ele>64.076</ele>
        <time>2017-09-17T12:41:21.338Z</time>
      </trkpt>
      <trkpt lat="48.87408" lon="1.86627">
        <ele>64.604</ele>
        <time>2017-09-17T12:41:29.792Z</time>
      </trkpt>
      <trkpt lat="48.87405" lon="1.86613">
        <ele>65.202</ele>
        <time>2017-09-17T12:41:38.032Z</time>
      </trkpt>
      <trkpt lat="48.87403" lon="1.86599">
        <ele>65.737</ele>
        <time>2017-09-17T12:41:46.484Z</time>
      </trkpt>
      <trkpt lat="48.87401" lon="1.86584">
        <ele>66.178</ele>
        <time>2017-09-17T12:41:54.955Z</time>
      </trkpt>
      <trkpt lat="48.87398" lon="1.8657">
        <ele>66.585</ele>
        <time>2017-09-17T12:42:02.966Z</time>
      </trkpt>
      <trkpt lat="48.87398" lon="1.86555">
        <ele>66.973</ele>
        <time>2017-09-17T12:42:11.554Z</time>
      </trkpt>
      <trkpt lat="48.87397" lon="1.86541">
        <ele>67.273</ele>
        <time>2017-09-17T12:42:20.720Z</time>
      </trkpt>
      <trkpt lat="48.87395" lon="1.86526">
        <ele>67.47</ele>
        <time>2017-09-17T12:42:30.090Z</time>
      </trkpt>
      <trkpt lat="48.87393" lon="1.86512">
        <ele>67.697</ele>
        <time>2017-09-17T12:42:38.203Z</time>
      </trkpt>
      <trkpt lat="48.87393" lon="1.86498">
        <ele>68.095</ele>
        <time>2017-09-17T12:42:45.680Z</time>
      </trkpt>
      <trkpt lat="48.87393" lon="1.86484">
        <ele>68.726</ele>
        <time>2017-09-17T12:42:53.994Z</time>
      </trkpt>
      <trkpt lat="48.87392" lon="1.8647">
        <ele>69.464</ele>
        <time>2017-09-17T12:43:03.358Z</time>
      </trkpt>
      <trkpt lat="48.87388" lon="1.86457">
        <ele>70.155</ele>
        <time>2017-09-17T12:43:12.461Z</time>
      </trkpt>
      <trkpt lat="48.87384" lon="1.86443">
        <ele>70.812</ele>
        <time>2017-09-17T12:43:20.986Z</time>
      </trkpt>
      <trkpt lat="48.87381" lon="1.8643">
        <ele>71.475</ele>
        <time>2017-09-17T12:43:29.571Z</time>
      </trkpt>
      <trkpt lat="48.87377" lon="1.86418">
        <ele>72.153</ele>
        <time>2017-09-17T12:43:38.437Z</time>
      </trkpt>
      <trkpt lat="48.87374" lon="1.86404">
        <ele>72.771</ele>
        <time>2017-09-17T12:43:47.603Z</time>
      </trkpt>
      <trkpt lat="48.87371" lon="1.86391">
        <ele>72.697</ele>
        <time>2017-09-17T12:43:56.488Z</time>
      </trkpt>
      <trkpt lat="48.87368" lon="1.86376">
        <ele>71.631</ele>
        <time>2017-09-17T12:44:05.943Z</time>
      </trkpt>
      <trkpt lat="48.87364" lon="1.86364">
        <ele>70.464</ele>
        <time>2017-09-17T12:44:14.140Z</time>
      </trkpt>
      <trkpt lat="48.8736" lon="1.8635">
        <ele>70.056</ele>
        <time>2017-09-17T12:44:23.000Z</time>
      </trkpt>
      <trkpt lat="48.8736" lon="1.8635">
        <ele>70.232</ele>
        <time>2017-09-17T12:44:33.000Z</time>
      </trkpt>
      <trkpt lat="48.8736" lon="1.8635">
        <ele>70.45</ele>
        <time>2017-09-17T12:45:16.323Z</time>
      </trkpt>
      <trkpt lat="48.8735" lon="1.86345">
        <ele>70.403</ele>
        <time>2017-09-17T12:45:33.289Z</time>
      </trkpt>
      <trkpt lat="48.87341" lon="1.86351">
        <ele>70.045</ele>
        <time>2017-09-17T12:45:42.000Z</time>
      </trkpt>
      <trkpt lat="48.87341" lon="1.86351">
        <ele>69.503</ele>
        <time>2017-09-17T12:45:47.000Z</time>
      </trkpt>
      <trkpt lat="48.87341" lon="1.86351">
        <ele>69.121</ele>
        <time>2017-09-17T12:49:25.922Z</time>
      </trkpt>
      <trkpt lat="48.87331" lon="1.86356">
        <ele>69.272</ele>
        <time>2017-09-17T12:49:47.903Z</time>
      </trkpt>
      <trkpt lat="48.87323" lon="1.86362">
        <ele>69.326</ele>
        <time>2017-09-17T12:49:58.423Z</time>
      </trkpt>
      <trkpt lat="48.87315" lon="1.86368">
        <ele>69.183</ele>
        <time>2017-09-17T12:50:07.542Z</time>
      </trkpt>
      <trkpt lat="48.87307" lon="1.86375">
        <ele>69.168</ele>
        <time>2017-09-17T12:50:16.487Z</time>
      </trkpt>
      <trkpt lat="48.87298" lon="1.8638">
        <ele>69.701</ele>
        <time>2017-09-17T12:50:25.859Z</time>
      </trkpt>
      <trkpt lat="48.87289" lon="1.86386">
        <ele>70.793</ele>
        <time>2017-09-17T12:50:35.017Z</time>
      </trkpt>
      <trkpt lat="48.87281" lon="1.86392">
        <ele>72.217</ele>
        <time>2017-09-17T12:50:44.529Z</time>
      </trkpt>
      <trkpt lat="48.87272" lon="1.86398">
        <ele>73.791</ele>
        <time>2017-09-17T12:50:54.432Z</time>
      </trkpt>
      <trkpt lat="48.87263" lon="1.86404">
        <ele>75.369</ele>
        <time>2017-09-17T12:51:03.889Z</time>
      </trkpt>
      <trkpt lat="48.87254" lon="1.8641">
        <ele>76.899</ele>
        <time>2017-09-17T12:51:13.609Z</time>
      </trkpt>
      <trkpt lat="48.87245" lon="1.86417">
        <ele>78.301</ele>
        <time>2017-09-17T12:51:22.575Z</time>
      </trkpt>
      <trkpt lat="48.87237" lon="1.86423">
        <ele>79.465</ele>
        <time>2017-09-17T12:51:31.278Z</time>
      </trkpt>
      <trkpt lat="48.87229" lon="1.8643">
        <ele>80.5</ele>
        <time>2017-09-17T12:51:40.068Z</time>
      </trkpt>
      <trkpt lat="48.8722" lon="1.86438">
        <ele>81.576</ele>
        <time>2017-09-17T12:51:49.578Z</time>
      </trkpt>
      <trkpt lat="48.87212" lon="1.86444">
        <ele>82.721</ele>
        <time>2017-09-17T12:51:59.091Z</time>
      </trkpt>
      <trkpt lat="48.87203" lon="1.86449">
        <ele>83.892</ele>
        <time>2017-09-17T12:52:08.225Z</time>
      </trkpt>
      <trkpt lat="48.87194" lon="1.86455">
        <ele>84.944</ele>
        <time>2017-09-17T12:52:16.927Z</time>
      </trkpt>
      <trkpt lat="48.87186" lon="1.86463">
        <ele>85.799</ele>
        <time>2017-09-17T12:52:25.899Z</time>
      </trkpt>
      <trkpt lat="48.87177" lon="1.86469">
        <ele>86.599</ele>
        <time>2017-09-17T12:52:34.487Z</time>
      </trkpt>
      <trkpt lat="48.87169" lon="1.86476">
        <ele>87.47</ele>
        <time>2017-09-17T12:52:43.252Z</time>
      </trkpt>
      <trkpt lat="48.8716" lon="1.86483">
        <ele>88.387</ele>
        <time>2017-09-17T12:52:51.726Z</time>
      </trkpt>
      <trkpt lat="48.87151" lon="1.86489">
        <ele>89.315</ele>
        <time>2017-09-17T12:53:00.678Z</time>
      </trkpt>
      <trkpt lat="48.87143" lon="1.86495">
        <ele>90.231</ele>
        <time>2017-09-17T12:53:08.453Z</time>
      </trkpt>
      <trkpt lat="48.87134" lon="1.86502">
        <ele>91.121</ele>
        <time>2017-09-17T12:53:16.863Z</time>
      </trkpt>
      <trkpt lat="48.87126" lon="1.86508">
        <ele>91.976</ele>
        <time>2017-09-17T12:53:24.928Z</time>
      </trkpt>
      <trkpt lat="48.87118" lon="1.86513">
        <ele>92.741</ele>
        <time>2017-09-17T12:53:32.767Z</time>
      </trkpt>
      <trkpt lat="48.87109" lon="1.8652">
        <ele>93.401</ele>
        <time>2017-09-17T12:53:41.238Z</time>
      </trkpt>
      <trkpt lat="48.87101" lon="1.86527">
        <ele>94.093</ele>
        <time>2017-09-17T12:53:50.000Z</time>
      </trkpt>
      <trkpt lat="48.87101" lon="1.86527">
        <ele>94.798</ele>
        <time>2017-09-17T12:53:56.000Z</time>
      </trkpt>
      <trkpt lat="48.87101" lon="1.86527">
        <ele>95.183</ele>
        <time>2017-09-17T12:54:47.743Z</time>
      </trkpt>
      <trkpt lat="48.87104" lon="1.8654">
        <ele>94.868</ele>
        <time>2017-09-17T12:55:09.307Z</time>
      </trkpt>
      <trkpt lat="48.87111" lon="1.86552">
        <ele>94.912</ele>
        <time>2017-09-17T12:55:19.566Z</time>
      </trkpt>
      <trkpt lat="48.87117" lon="1.86563">
        <ele>95.403</ele>
        <time>2017-09-17T12:55:27.946Z</time>
      </trkpt>
      <trkpt lat="48.87122" lon="1.86574">
        <ele>95.97</ele>
        <time>2017-09-17T12:55:36.662Z</time>
      </trkpt>
      <trkpt lat="48.87125" lon="1.86588">
        <ele>96.25</ele>
        <time>2017-09-17T12:55:46.271Z</time>
      </trkpt>
      <trkpt lat="48.87129" lon="1.86601">
        <ele>96.304</ele>
        <time>2017-09-17T12:55:54.269Z</time>
      </trkpt>
      <trkpt lat="48.87132" lon="1.86615">
        <ele>96.295</ele>
        <time>2017-09-17T12:56:02.410Z</time>
      </trkpt>
      <trkpt lat="48.87136" lon="1.86628">
        <ele>96.354</ele>
        <time>2017-09-17T12:56:10.363Z</time>
      </trkpt>
      <trkpt lat="48.87139" lon="1.86641">
        <ele>96.498</ele>
        <time>2017-09-17T12:56:18.782Z</time>
      </trkpt>
      <trkpt lat="48.87143" lon="1.86654">
        <ele>96.558</ele>
        <time>2017-09-17T12:56:27.091Z</time>
      </trkpt>
      <trkpt lat="48.87147" lon="1.86667">
        <ele>96.366</ele>
        <time>2017-09-17T12:56:35.791Z</time>
      </trkpt>
      <trkpt lat="48.87151" lon="1.86681">
        <ele>95.979</ele>
        <time>2017-09-17T12:56:44.691Z</time>
      </trkpt>
      <trkpt lat="48.87155" lon="1.86695">
        <ele>95.557</ele>
        <time>2017-09-17T12:56:53.611Z</time>
      </trkpt>
      <trkpt lat="48.8716" lon="1.86706">
        <ele>95.185</ele>
        <time>2017-09-17T12:57:01.573Z</time>
      </trkpt>
      <trkpt lat="48.87165" lon="1.86719">
        <ele>94.887</ele>
        <time>2017-09-17T12:57:10.117Z</time>
      </trkpt>
      <trkpt lat="48.87171" lon="1.8673">
        <ele>94.662</ele>
        <time>2017-09-17T12:57:18.153Z</time>
      </trkpt>
      <trkpt lat="48.87177" lon="1.86742">
        <ele>94.427</ele>
        <time>2017-09-17T12:57:26.564Z</time>
      </trkpt>
      <trkpt lat="48.87183" lon="1.86753">
        <ele>94.124</ele>
        <time>2017-09-17T12:57:34.513Z</time>
      </trkpt>
      <trkpt lat="48.87191" lon="1.86762">
        <ele>93.843</ele>
        <time>2017-09-17T12:57:43.020Z</time>
      </trkpt>
      <trkpt lat="48.87196" lon="1.86774">
        <ele>93.663</ele>
        <time>2017-09-17T12:57:51.060Z</time>
      </trkpt>
      <trkpt lat="48.87199" lon="1.86787">
        <ele>93.565</ele>
        <time>2017-09-17T12:57:58.953Z</time>
      </trkpt>
      <trkpt lat="48.87204" lon="1.86801">
        <ele>93.485</ele>
        <time>2017-09-17T12:58:07.617Z</time>
      </trkpt>
      <trkpt lat="48.87206" lon="1.86815">
        <ele>93.259</ele>
        <time>2017-09-17T12:58:16.433Z</time>
      </trkpt>
      <trkpt lat="48.87211" lon="1.86828">
        <ele>92.82</ele>
        <time>2017-09-17T12:58:24.344Z</time>
      </trkpt>
      <trkpt lat="48.87213" lon="1.86843">
        <ele>92.288</ele>
        <time>2017-09-17T12:58:31.870Z</time>
      </trkpt>
      <trkpt lat="48.87213" lon="1.86858">
        <ele>91.805</ele>
        <time>2017-09-17T12:58:39.340Z</time>
      </trkpt>
      <trkpt lat="48.87213" lon="1.86872">
        <ele>91.484</ele>
        <time>2017-09-17T12:58:46.384Z</time>
      </trkpt>
      <trkpt lat="48.87215" lon="1.86886">
        <ele>91.25</ele>
        <time>2017-09-17T12:58:53.996Z</time>
      </trkpt>
      <trkpt lat="48.87217" lon="1.86899">
        <ele>90.839</ele>
        <time>2017-09-17T12:59:01.909Z</time>
      </trkpt>
      <trkpt lat="48.87215" lon="1.86914">
        <ele>90.166</ele>
        <time>2017-09-17T12:59:10.559Z</time>
      </trkpt>
      <trkpt lat="48.87206" lon="1.86907">
        <ele>89.367</ele>
        <time>2017-09-17T12:59:19.642Z</time>
      </trkpt>
      <trkpt lat="48.87201" lon="1.86895">
        <ele>88.679</ele>
        <time>2017-09-17T12:59:28.817Z</time>
      </trkpt>
      <trkpt lat="48.87194" lon="1.86886">
        <ele>88.352</ele>
        <time>2017-09-17T12:59:37.049Z</time>
      </trkpt>
      <trkpt lat="48.87187" lon="1.86877">
        <ele>88.417</ele>
        <time>2017-09-17T12:59:44.762Z</time>
      </trkpt>
      <trkpt lat="48.8718" lon="1.86868">
        <ele>88.649</ele>
        <time>2017-09-17T12:59:52.236Z</time>
      </trkpt>
      <trkpt lat="48.87174" lon="1.86857">
        <ele>88.861</ele>
        <time>2017-09-17T12:59:59.576Z</time>
      </trkpt>
      <trkpt lat="48.87168" lon="1.86847">
        <ele>89.016</ele>
        <time>2017-09-17T13:00:07.156Z</time>
      </trkpt>
      <trkpt lat="48.87162" lon="1.86836">
        <ele>89.117</ele>
        <time>2017-09-17T13:00:15.659Z</time>
      </trkpt>
      <trkpt lat="48.87154" lon="1.86829">
        <ele>89.2</ele>
        <time>2017-09-17T13:00:24.180Z</time>
      </trkpt>
      <trkpt lat="48.87147" lon="1.8682">
        <ele>89.346</ele>
        <time>2017-09-17T13:00:31.366Z</time>
      </trkpt>
      <trkpt lat="48.87138" lon="1.86812">
        <ele>89.607</ele>
        <time>2017-09-17T13:00:39.426Z</time>
      </trkpt>
      <trkpt lat="48.87132" lon="1.86802">
        <ele>89.991</ele>
        <time>2017-09-17T13:00:47.514Z</time>
      </trkpt>
      <trkpt lat="48.87123" lon="1.86796">
        <ele>90.43</ele>
        <time>2017-09-17T13:00:56.170Z</time>
      </trkpt>
      <trkpt lat="48.87115" lon="1.86789">
        <ele>90.791</ele>
        <time>2017-09-17T13:01:04.627Z</time>
      </trkpt>
      <trkpt lat="48.87107" lon="1.86781">
        <ele>91.018</ele>
        <time>2017-09-17T13:01:12.556Z</time>
      </trkpt>
      <trkpt lat="48.87099" lon="1.8677">
        <ele>91.137</ele>
        <time>2017-09-17T13:01:20.593Z</time>
      </trkpt>
      <trkpt lat="48.87093" lon="1.86759">
        <ele>91.204</ele>
        <time>2017-09-17T13:01:28.414Z</time>
      </trkpt>
      <trkpt lat="48.87087" lon="1.86748">
        <ele>91.355</ele>
        <time>2017-09-17T13:01:36.185Z</time>
      </trkpt>
      <trkpt lat="48.87081" lon="1.86736">
        <ele>91.687</ele>
        <time>2017-09-17T13:01:44.621Z</time>
      </trkpt>
      <trkpt lat="48.87075" lon="1.86725">
        <ele>92.262</ele>
        <time>2017-09-17T13:01:53.766Z</time>
      </trkpt>
      <trkpt lat="48.87066" lon="1.86718">
        <ele>93.041</ele>
        <time>2017-09-17T13:02:02.673Z</time>
      </trkpt>
      <trkpt lat="48.87058" lon="1.86711">
        <ele>93.821</ele>
        <time>2017-09-17T13:02:09.759Z</time>
      </trkpt>
      <trkpt lat="48.87049" lon="1.86705">
        <ele>94.409</ele>
        <time>2017-09-17T13:02:17.258Z</time>
      </trkpt>
      <trkpt lat="48.87041" lon="1.86698">
        <ele>94.751</ele>
        <time>2017-09-17T13:02:24.966Z</time>
      </trkpt>
      <trkpt lat="48.87032" lon="1.8669">
        <ele>94.962</ele>
        <time>2017-09-17T13:02:33.105Z</time>
      </trkpt>
      <trkpt lat="48.87024" lon="1.86684">
        <ele>95.226</ele>
        <time>2017-09-17T13:02:40.243Z</time>
      </trkpt>
      <trkpt lat="48.87015" lon="1.86681">
        <ele>95.519</ele>
        <time>2017-09-17T13:02:47.095Z</time>
      </trkpt>
      <trkpt lat="48.87005" lon="1.86681">
        <ele>95.711</ele>
        <time>2017-09-17T13:02:54.004Z</time>
      </trkpt>
      <trkpt lat="48.86996" lon="1.86679">
        <ele>95.754</ele>
        <time>2017-09-17T13:03:00.965Z</time>
      </trkpt>
      <trkpt lat="48.86986" lon="1.86677">
        <ele>95.65</ele>
        <time>2017-09-17T13:03:08.373Z</time>
      </trkpt>
      <trkpt lat="48.86977" lon="1.86674">
        <ele>95.471</ele>
        <time>2017-09-17T13:03:15.849Z</time>
      </trkpt>
      <trkpt lat="48.86968" lon="1.86671">
        <ele>95.31</ele>
        <time>2017-09-17T13:03:23.644Z</time>
      </trkpt>
      <trkpt lat="48.86959" lon="1.86666">
        <ele>95.165</ele>
        <time>2017-09-17T13:03:30.398Z</time>
      </trkpt>
      <trkpt lat="48.8695" lon="1.8666">
        <ele>94.998</ele>
        <time>2017-09-17T13:03:37.780Z</time>
      </trkpt>
      <trkpt lat="48.86941" lon="1.86658">
        <ele>94.804</ele>
        <time>2017-09-17T13:03:45.532Z</time>
      </trkpt>
      <trkpt lat="48.86932" lon="1.86655">
        <ele>94.516</ele>
        <time>2017-09-17T13:03:53.358Z</time>
      </trkpt>
      <trkpt lat="48.86922" lon="1.8665">
        <ele>94.132</ele>
        <time>2017-09-17T13:04:02.000Z</time>
      </trkpt>
      <trkpt lat="48.86922" lon="1.8665">
        <ele>93.814</ele>
        <time>2017-09-17T13:04:10.000Z</time>
      </trkpt>
      <trkpt lat="48.86922" lon="1.8665">
        <ele>93.674</ele>
        <time>2017-09-17T13:04:23.534Z</time>
      </trkpt>
      <trkpt lat="48.8691" lon="1.86645">
        <ele>93.657</ele>
        <time>2017-09-17T13:04:41.839Z</time>
      </trkpt>
      <trkpt lat="48.86901" lon="1.86644">
        <ele>93.669</ele>
        <time>2017-09-17T13:04:50.094Z</time>
      </trkpt>
      <trkpt lat="48.86892" lon="1.86639">
        <ele>93.66</ele>
        <time>2017-09-17T13:04:57.352Z</time>
      </trkpt>
      <trkpt lat="48.86883" lon="1.86634">
        <ele>93.641</ele>
        <time>2017-09-17T13:05:03.180Z</time>
      </trkpt>
      <trkpt lat="48.86874" lon="1.86631">
        <ele>93.648</ele>
        <time>2017-09-17T13:05:09.000Z</time>
      </trkpt>
      <trkpt lat="48.86874" lon="1.86631">
        <ele>93.672</ele>
        <time>2017-09-17T13:05:17.000Z</time>
      </trkpt>
      <trkpt lat="48.86874" lon="1.86631">
        <ele>93.667</ele>
        <time>2017-09-17T13:05:17.100Z</time>
      </trkpt>
      <trkpt lat="48.8686" lon="1.8663">
        <ele>93.618</ele>
        <time>2017-09-17T13:05:29.428Z</time>
      </trkpt>
      <trkpt lat="48.8685" lon="1.86627">
        <ele>93.534</ele>
        <time>2017-09-17T13:05:34.999Z</time>
      </trkpt>
      <trkpt lat="48.8685" lon="1.86627">
        <ele>93.424</ele>
        <time>2017-09-17T13:05:41.000Z</time>
      </trkpt>
      <trkpt lat="48.8685" lon="1.86627">
        <ele>93.333</ele>
        <time>2017-09-17T13:05:41.349Z</time>
      </trkpt>
      <trkpt lat="48.86838" lon="1.86625">
        <ele>93.298</ele>
        <time>2017-09-17T13:05:57.314Z</time>
      </trkpt>
      <trkpt lat="48.86829" lon="1.86622">
        <ele>93.189</ele>
        <time>2017-09-17T13:06:05.229Z</time>
      </trkpt>
      <trkpt lat="48.8682" lon="1.8662">
        <ele>92.894</ele>
        <time>2017-09-17T13:06:12.567Z</time>
      </trkpt>
      <trkpt lat="48.8681" lon="1.86617">
        <ele>92.504</ele>
        <time>2017-09-17T13:06:20.087Z</time>
      </trkpt>
      <trkpt lat="48.868" lon="1.86615">
        <ele>92.148</ele>
        <time>2017-09-17T13:06:27.200Z</time>
      </trkpt>
      <trkpt lat="48.86791" lon="1.86613">
        <ele>91.826</ele>
        <time>2017-09-17T13:06:33.803Z</time>
      </trkpt>
      <trkpt lat="48.86782" lon="1.86612">
        <ele>91.543</ele>
        <time>2017-09-17T13:06:40.529Z</time>
      </trkpt>
      <trkpt lat="48.86773" lon="1.86609">
        <ele>91.354</ele>
        <time>2017-09-17T13:06:47.501Z</time>
      </trkpt>
      <trkpt lat="48.86764" lon="1.86606">
        <ele>91.253</ele>
        <time>2017-09-17T13:06:54.629Z</time>
      </trkpt>
      <trkpt lat="48.86755" lon="1.86604">
        <ele>91.124</ele>
        <time>2017-09-17T13:07:01.672Z</time>
      </trkpt>
      <trkpt lat="48.86746" lon="1.86603">
        <ele>90.891</ele>
        <time>2017-09-17T13:07:09.247Z</time>
      </trkpt>
      <trkpt lat="48.86736" lon="1.86602">
        <ele>90.622</ele>
        <time>2017-09-17T13:07:17.243Z</time>
      </trkpt>
      <trkpt lat="48.86726" lon="1.86602">
        <ele>90.457</ele>
        <time>2017-09-17T13:07:25.385Z</time>
      </trkpt>
      <trkpt lat="48.86716" lon="1.86603">
        <ele>90.441</ele>
        <time>2017-09-17T13:07:33.119Z</time>
      </trkpt>
      <trkpt lat="48.86704" lon="1.86603">
        <ele>90.48</ele>
        <time>2017-09-17T13:07:43.914Z</time>
      </trkpt>
      <trkpt lat="48.86695" lon="1.86601">
        <ele>90.37</ele>
        <time>2017-09-17T13:07:51.291Z</time>
      </trkpt>
      <trkpt lat="48.86685" lon="1.86601">
        <ele>89.977</ele>
        <time>2017-09-17T13:07:59.196Z</time>
      </trkpt>
      <trkpt lat="48.86675" lon="1.86601">
        <ele>89.403</ele>
        <time>2017-09-17T13:08:07.030Z</time>
      </trkpt>
      <trkpt lat="48.86666" lon="1.86601">
        <ele>88.817</ele>
        <time>2017-09-17T13:08:14.154Z</time>
      </trkpt>
      <trkpt lat="48.86656" lon="1.866">
        <ele>88.314</ele>
        <time>2017-09-17T13:08:22.161Z</time>
      </trkpt>
      <trkpt lat="48.86647" lon="1.866">
        <ele>87.946</ele>
        <time>2017-09-17T13:08:29.819Z</time>
      </trkpt>
      <trkpt lat="48.86637" lon="1.86598">
        <ele>87.647</ele>
        <time>2017-09-17T13:08:38.747Z</time>
      </trkpt>
      <trkpt lat="48.86628" lon="1.86595">
        <ele>87.279</ele>
        <time>2017-09-17T13:08:47.390Z</time>
      </trkpt>
      <trkpt lat="48.86619" lon="1.86592">
        <ele>86.789</ele>
        <time>2017-09-17T13:08:56.411Z</time>
      </trkpt>
      <trkpt lat="48.8661" lon="1.8659">
        <ele>86.273</ele>
        <time>2017-09-17T13:09:04.407Z</time>
      </trkpt>
      <trkpt lat="48.866" lon="1.86588">
        <ele>85.821</ele>
        <time>2017-09-17T13:09:12.791Z</time>
      </trkpt>
      <trkpt lat="48.86591" lon="1.86585">
        <ele>85.401</ele>
        <time>2017-09-17T13:09:20.381Z</time>
      </trkpt>
      <trkpt lat="48.86581" lon="1.86583">
        <ele>84.996</ele>
        <time>2017-09-17T13:09:28.387Z</time>
      </trkpt>
      <trkpt lat="48.86572" lon="1.86582">
        <ele>84.686</ele>
        <time>2017-09-17T13:09:36.360Z</time>
      </trkpt>
      <trkpt lat="48.86562" lon="1.86584">
        <ele>84.476</ele>
        <time>2017-09-17T13:09:44.348Z</time>
      </trkpt>
      <trkpt lat="48.86553" lon="1.86586">
        <ele>84.255</ele>
        <time>2017-09-17T13:09:52.470Z</time>
      </trkpt>
      <trkpt lat="48.86543" lon="1.86589">
        <ele>83.995</ele>
        <time>2017-09-17T13:10:00.447Z</time>
      </trkpt>
      <trkpt lat="48.86534" lon="1.86591">
        <ele>83.782</ele>
        <time>2017-09-17T13:10:08.130Z</time>
      </trkpt>
      <trkpt lat="48.86525" lon="1.86593">
        <ele>83.662</ele>
        <time>2017-09-17T13:10:15.952Z</time>
      </trkpt>
      <trkpt lat="48.86516" lon="1.86596">
        <ele>83.598</ele>
        <time>2017-09-17T13:10:24.171Z</time>
      </trkpt>
      <trkpt lat="48.86507" lon="1.86599">
        <ele>83.462</ele>
        <time>2017-09-17T13:10:31.957Z</time>
      </trkpt>
      <trkpt lat="48.86497" lon="1.86601">
        <ele>83.132</ele>
        <time>2017-09-17T13:10:40.548Z</time>
      </trkpt>
      <trkpt lat="48.86488" lon="1.86604">
        <ele>82.58</ele>
        <time>2017-09-17T13:10:48.570Z</time>
      </trkpt>
      <trkpt lat="48.86478" lon="1.86606">
        <ele>81.918</ele>
        <time>2017-09-17T13:10:56.743Z</time>
      </trkpt>
      <trkpt lat="48.86469" lon="1.86609">
        <ele>81.375</ele>
        <time>2017-09-17T13:11:03.950Z</time>
      </trkpt>
      <trkpt lat="48.86459" lon="1.86612">
        <ele>81.098</ele>
        <time>2017-09-17T13:11:11.795Z</time>
      </trkpt>
      <trkpt lat="48.86451" lon="1.86615">
        <ele>81.063</ele>
        <time>2017-09-17T13:11:19.314Z</time>
      </trkpt>
      <trkpt lat="48.86441" lon="1.86619">
        <ele>81.208</ele>
        <time>2017-09-17T13:11:27.448Z</time>
      </trkpt>
      <trkpt lat="48.86432" lon="1.86623">
        <ele>81.43</ele>
        <time>2017-09-17T13:11:35.536Z</time>
      </trkpt>
      <trkpt lat="48.86422" lon="1.86625">
        <ele>81.66</ele>
        <time>2017-09-17T13:11:44.037Z</time>
      </trkpt>
      <trkpt lat="48.86414" lon="1.86631">
        <ele>81.946</ele>
        <time>2017-09-17T13:11:52.089Z</time>
      </trkpt>
      <trkpt lat="48.86405" lon="1.86635">
        <ele>82.308</ele>
        <time>2017-09-17T13:12:00.321Z</time>
      </trkpt>
      <trkpt lat="48.86395" lon="1.86638">
        <ele>82.688</ele>
        <time>2017-09-17T13:12:09.403Z</time>
      </trkpt>
      <trkpt lat="48.86386" lon="1.86643">
        <ele>83.118</ele>
        <time>2017-09-17T13:12:18.219Z</time>
      </trkpt>
      <trkpt lat="48.86377" lon="1.86648">
        <ele>83.695</ele>
        <time>2017-09-17T13:12:27.544Z</time>
      </trkpt>
      <trkpt lat="48.86368" lon="1.86652">
        <ele>84.423</ele>
        <time>2017-09-17T13:12:37.086Z</time>
      </trkpt>
      <trkpt lat="48.86359" lon="1.86656">
        <ele>85.219</ele>
        <time>2017-09-17T13:12:45.736Z</time>
      </trkpt>
      <trkpt lat="48.86349" lon="1.8666">
        <ele>85.958</ele>
        <time>2017-09-17T13:12:53.657Z</time>
      </trkpt>
      <trkpt lat="48.8634" lon="1.86663">
        <ele>86.491</ele>
        <time>2017-09-17T13:13:01.904Z</time>
      </trkpt>
      <trkpt lat="48.86331" lon="1.86667">
        <ele>86.779</ele>
        <time>2017-09-17T13:13:10.564Z</time>
      </trkpt>
      <trkpt lat="48.86323" lon="1.86671">
        <ele>86.907</ele>
        <time>2017-09-17T13:13:19.582Z</time>
      </trkpt>
      <trkpt lat="48.86313" lon="1.86673">
        <ele>86.672</ele>
        <time>2017-09-17T13:13:29.387Z</time>
      </trkpt>
      <trkpt lat="48.86304" lon="1.86678">
        <ele>85.724</ele>
        <time>2017-09-17T13:13:39.988Z</time>
      </trkpt>
      <trkpt lat="48.86295" lon="1.86681">
        <ele>84.178</ele>
        <time>2017-09-17T13:13:49.086Z</time>
      </trkpt>
      <trkpt lat="48.86285" lon="1.8668">
        <ele>82.486</ele>
        <time>2017-09-17T13:13:59.000Z</time>
      </trkpt>
      <trkpt lat="48.86285" lon="1.8668">
        <ele>81.101</ele>
        <time>2017-09-17T13:14:04.000Z</time>
      </trkpt>
      <trkpt lat="48.86285" lon="1.8668">
        <ele>80.436</ele>
        <time>2017-09-17T13:15:17.000Z</time>
      </trkpt>
      <trkpt lat="48.86285" lon="1.8668">
        <ele>80.474</ele>
        <time>2017-09-17T13:15:17.100Z</time>
      </trkpt>
      <trkpt lat="48.86281" lon="1.86695">
        <ele>80.649</ele>
        <time>2017-09-17T13:15:27.000Z</time>
      </trkpt>
      <trkpt lat="48.86281" lon="1.86695">
        <ele>80.478</ele>
        <time>2017-09-17T13:15:32.000Z</time>
      </trkpt>
      <trkpt lat="48.86281" lon="1.86695">
        <ele>80.364</ele>
        <time>2017-09-17T13:15:36.427Z</time>
      </trkpt>
      <trkpt lat="48.86279" lon="1.8671">
        <ele>80.337</ele>
        <time>2017-09-17T13:15:49.360Z</time>
      </trkpt>
      <trkpt lat="48.86278" lon="1.86723">
        <ele>79.727</ele>
        <time>2017-09-17T13:15:57.654Z</time>
      </trkpt>
      <trkpt lat="48.86277" lon="1.86738">
        <ele>77.93</ele>
        <time>2017-09-17T13:16:06.169Z</time>
      </trkpt>
      <trkpt lat="48.86277" lon="1.86752">
        <ele>75.669</ele>
        <time>2017-09-17T13:16:13.615Z</time>
      </trkpt>
      <trkpt lat="48.86276" lon="1.86766">
        <ele>73.935</ele>
        <time>2017-09-17T13:16:21.239Z</time>
      </trkpt>
      <trkpt lat="48.86276" lon="1.86781">
        <ele>72.702</ele>
        <time>2017-09-17T13:16:28.905Z</time>
      </trkpt>
      <trkpt lat="48.86277" lon="1.86794">
        <ele>71.645</ele>
        <time>2017-09-17T13:16:36.454Z</time>
      </trkpt>
      <trkpt lat="48.86279" lon="1.86809">
        <ele>70.606</ele>
        <time>2017-09-17T13:16:44.190Z</time>
      </trkpt>
      <trkpt lat="48.86282" lon="1.86822">
        <ele>69.571</ele>
        <time>2017-09-17T13:16:51.230Z</time>
      </trkpt>
      <trkpt lat="48.86284" lon="1.86836">
        <ele>68.572</ele>
        <time>2017-09-17T13:16:58.507Z</time>
      </trkpt>
      <trkpt lat="48.86286" lon="1.8685">
        <ele>67.596</ele>
        <time>2017-09-17T13:17:06.034Z</time>
      </trkpt>
      <trkpt lat="48.86289" lon="1.86864">
        <ele>66.717</ele>
        <time>2017-09-17T13:17:13.570Z</time>
      </trkpt>
      <trkpt lat="48.8629" lon="1.86879">
        <ele>66.063</ele>
        <time>2017-09-17T13:17:21.494Z</time>
      </trkpt>
      <trkpt lat="48.8629" lon="1.86893">
        <ele>65.442</ele>
        <time>2017-09-17T13:17:29.150Z</time>
      </trkpt>
      <trkpt lat="48.86292" lon="1.86908">
        <ele>64.682</ele>
        <time>2017-09-17T13:17:36.338Z</time>
      </trkpt>
      <trkpt lat="48.86295" lon="1.86922">
        <ele>63.875</ele>
        <time>2017-09-17T13:17:43.457Z</time>
      </trkpt>
      <trkpt lat="48.86296" lon="1.86936">
        <ele>63.002</ele>
        <time>2017-09-17T13:17:50.811Z</time>
      </trkpt>
      <trkpt lat="48.86291" lon="1.86948">
        <ele>62.042</ele>
        <time>2017-09-17T13:17:59.061Z</time>
      </trkpt>
      <trkpt lat="48.86282" lon="1.86951">
        <ele>61.252</ele>
        <time>2017-09-17T13:18:07.000Z</time>
      </trkpt>
      <trkpt lat="48.86282" lon="1.86951">
        <ele>60.843</ele>
        <time>2017-09-17T13:18:11.000Z</time>
      </trkpt>
      <trkpt lat="48.86282" lon="1.86951">
        <ele>60.759</ele>
        <time>2017-09-17T13:18:11.022Z</time>
      </trkpt>
      <trkpt lat="48.8627" lon="1.86954">
        <ele>60.85</ele>
        <time>2017-09-17T13:18:28.667Z</time>
      </trkpt>
      <trkpt lat="48.8626" lon="1.86956">
        <ele>61.169</ele>
        <time>2017-09-17T13:18:37.562Z</time>
      </trkpt>
      <trkpt lat="48.8625" lon="1.86958">
        <ele>61.853</ele>
        <time>2017-09-17T13:18:46.301Z</time>
      </trkpt>
      <trkpt lat="48.86241" lon="1.86962">
        <ele>62.864</ele>
        <time>2017-09-17T13:18:54.682Z</time>
      </trkpt>
      <trkpt lat="48.86232" lon="1.86963">
        <ele>64.037</ele>
        <time>2017-09-17T13:19:02.595Z</time>
      </trkpt>
      <trkpt lat="48.86222" lon="1.86965">
        <ele>65.192</ele>
        <time>2017-09-17T13:19:10.750Z</time>
      </trkpt>
      <trkpt lat="48.86212" lon="1.86968">
        <ele>66.134</ele>
        <time>2017-09-17T13:19:19.058Z</time>
      </trkpt>
      <trkpt lat="48.86203" lon="1.86968">
        <ele>66.878</ele>
        <time>2017-09-17T13:19:26.989Z</time>
      </trkpt>
      <trkpt lat="48.86194" lon="1.86969">
        <ele>67.588</ele>
        <time>2017-09-17T13:19:34.786Z</time>
      </trkpt>
      <trkpt lat="48.86184" lon="1.86971">
        <ele>68.296</ele>
        <time>2017-09-17T13:19:42.598Z</time>
      </trkpt>
      <trkpt lat="48.86175" lon="1.86973">
        <ele>68.974</ele>
        <time>2017-09-17T13:19:50.618Z</time>
      </trkpt>
      <trkpt lat="48.86165" lon="1.86975">
        <ele>69.683</ele>
        <time>2017-09-17T13:19:59.009Z</time>
      </trkpt>
      <trkpt lat="48.86156" lon="1.86978">
        <ele>70.449</ele>
        <time>2017-09-17T13:20:06.544Z</time>
      </trkpt>
      <trkpt lat="48.86146" lon="1.86981">
        <ele>71.257</ele>
        <time>2017-09-17T13:20:15.082Z</time>
      </trkpt>
      <trkpt lat="48.86137" lon="1.86983">
        <ele>72.025</ele>
        <time>2017-09-17T13:20:23.455Z</time>
      </trkpt>
      <trkpt lat="48.86127" lon="1.86986">
        <ele>72.592</ele>
        <time>2017-09-17T13:20:31.855Z</time>
      </trkpt>
      <trkpt lat="48.86118" lon="1.86987">
        <ele>72.855</ele>
        <time>2017-09-17T13:20:39.445Z</time>
      </trkpt>
      <trkpt lat="48.86108" lon="1.86988">
        <ele>72.894</ele>
        <time>2017-09-17T13:20:47.333Z</time>
      </trkpt>
      <trkpt lat="48.86098" lon="1.86989">
        <ele>72.926</ele>
        <time>2017-09-17T13:20:55.312Z</time>
      </trkpt>
      <trkpt lat="48.86088" lon="1.86991">
        <ele>73.159</ele>
        <time>2017-09-17T13:21:03.290Z</time>
      </trkpt>
      <trkpt lat="48.86079" lon="1.86993">
        <ele>73.57</ele>
        <time>2017-09-17T13:21:11.122Z</time>
      </trkpt>
      <trkpt lat="48.8607" lon="1.86998">
        <ele>73.987</ele>
        <time>2017-09-17T13:21:18.700Z</time>
      </trkpt>
      <trkpt lat="48.8606" lon="1.87">
        <ele>74.37</ele>
        <time>2017-09-17T13:21:26.721Z</time>
      </trkpt>
      <trkpt lat="48.86051" lon="1.87003">
        <ele>74.757</ele>
        <time>2017-09-17T13:21:34.377Z</time>
      </trkpt>
      <trkpt lat="48.86042" lon="1.87006">
        <ele>75.103</ele>
        <time>2017-09-17T13:21:42.191Z</time>
      </trkpt>
      <trkpt lat="48.86032" lon="1.87008">
        <ele>75.337</ele>
        <time>2017-09-17T13:21:50.741Z</time>
      </trkpt>
      <trkpt lat="48.86023" lon="1.87012">
        <ele>75.447</ele>
        <time>2017-09-17T13:21:58.834Z</time>
      </trkpt>
      <trkpt lat="48.86015" lon="1.87017">
        <ele>75.468</ele>
        <time>2017-09-17T13:22:06.730Z</time>
      </trkpt>
      <trkpt lat="48.86006" lon="1.87022">
        <ele>75.436</ele>
        <time>2017-09-17T13:22:14.538Z</time>
      </trkpt>
      <trkpt lat="48.85997" lon="1.87028">
        <ele>75.373</ele>
        <time>2017-09-17T13:22:23.265Z</time>
      </trkpt>
      <trkpt lat="48.85988" lon="1.87033">
        <ele>75.29</ele>
        <time>2017-09-17T13:22:31.167Z</time>
      </trkpt>
      <trkpt lat="48.85979" lon="1.87038">
        <ele>75.201</ele>
        <time>2017-09-17T13:22:38.980Z</time>
      </trkpt>
      <trkpt lat="48.8597" lon="1.87044">
        <ele>75.116</ele>
        <time>2017-09-17T13:22:47.274Z</time>
      </trkpt>
      <trkpt lat="48.8596" lon="1.87049">
        <ele>74.962</ele>
        <time>2017-09-17T13:22:55.999Z</time>
      </trkpt>
      <trkpt lat="48.8596" lon="1.87049">
        <ele>74.702</ele>
        <time>2017-09-17T13:23:04.999Z</time>
      </trkpt>
      <trkpt lat="48.8596" lon="1.87049">
        <ele>74.499</ele>
        <time>2017-09-17T13:23:21.409Z</time>
      </trkpt>
      <trkpt lat="48.85959" lon="1.87066">
        <ele>74.543</ele>
        <time>2017-09-17T13:23:38.334Z</time>
      </trkpt>
      <trkpt lat="48.85964" lon="1.87079">
        <ele>74.311</ele>
        <time>2017-09-17T13:23:46.792Z</time>
      </trkpt>
      <trkpt lat="48.85968" lon="1.87093">
        <ele>73.548</ele>
        <time>2017-09-17T13:23:54.775Z</time>
      </trkpt>
      <trkpt lat="48.85973" lon="1.87105">
        <ele>72.536</ele>
        <time>2017-09-17T13:24:02.321Z</time>
      </trkpt>
      <trkpt lat="48.85977" lon="1.87117">
        <ele>71.546</ele>
        <time>2017-09-17T13:24:09.764Z</time>
      </trkpt>
      <trkpt lat="48.85982" lon="1.87131">
        <ele>70.644</ele>
        <time>2017-09-17T13:24:18.058Z</time>
      </trkpt>
      <trkpt lat="48.85986" lon="1.87144">
        <ele>69.956</ele>
        <time>2017-09-17T13:24:25.788Z</time>
      </trkpt>
      <trkpt lat="48.8599" lon="1.87157">
        <ele>69.438</ele>
        <time>2017-09-17T13:24:33.707Z</time>
      </trkpt>
      <trkpt lat="48.85994" lon="1.87169">
        <ele>68.917</ele>
        <time>2017-09-17T13:24:41.565Z</time>
      </trkpt>
      <trkpt lat="48.85993" lon="1.87183">
        <ele>68.353</ele>
        <time>2017-09-17T13:24:49.722Z</time>
      </trkpt>
      <trkpt lat="48.85984" lon="1.87189">
        <ele>67.864</ele>
        <time>2017-09-17T13:24:57.595Z</time>
      </trkpt>
      <trkpt lat="48.85975" lon="1.87196">
        <ele>67.55</ele>
        <time>2017-09-17T13:25:05.162Z</time>
      </trkpt>
      <trkpt lat="48.85967" lon="1.87205">
        <ele>67.419</ele>
        <time>2017-09-17T13:25:12.248Z</time>
      </trkpt>
      <trkpt lat="48.8596" lon="1.87213">
        <ele>67.373</ele>
        <time>2017-09-17T13:25:19.155Z</time>
      </trkpt>
      <trkpt lat="48.85952" lon="1.87221">
        <ele>67.252</ele>
        <time>2017-09-17T13:25:26.794Z</time>
      </trkpt>
      <trkpt lat="48.85943" lon="1.87228">
        <ele>66.987</ele>
        <time>2017-09-17T13:25:34.471Z</time>
      </trkpt>
      <trkpt lat="48.85935" lon="1.87235">
        <ele>66.581</ele>
        <time>2017-09-17T13:25:42.020Z</time>
      </trkpt>
      <trkpt lat="48.85928" lon="1.87243">
        <ele>66.081</ele>
        <time>2017-09-17T13:25:49.703Z</time>
      </trkpt>
      <trkpt lat="48.85919" lon="1.87251">
        <ele>65.463</ele>
        <time>2017-09-17T13:25:58.008Z</time>
      </trkpt>
      <trkpt lat="48.85911" lon="1.8726">
        <ele>64.672</ele>
        <time>2017-09-17T13:26:05.625Z</time>
      </trkpt>
      <trkpt lat="48.85904" lon="1.87269">
        <ele>63.77</ele>
        <time>2017-09-17T13:26:13.499Z</time>
      </trkpt>
      <trkpt lat="48.85896" lon="1.87276">
        <ele>62.912</ele>
        <time>2017-09-17T13:26:21.378Z</time>
      </trkpt>
      <trkpt lat="48.85888" lon="1.87283">
        <ele>62.06</ele>
        <time>2017-09-17T13:26:29.497Z</time>
      </trkpt>
      <trkpt lat="48.85879" lon="1.87287">
        <ele>61.07</ele>
        <time>2017-09-17T13:26:37.458Z</time>
      </trkpt>
      <trkpt lat="48.8587" lon="1.87288">
        <ele>59.952</ele>
        <time>2017-09-17T13:26:46.249Z</time>
      </trkpt>
      <trkpt lat="48.85859" lon="1.87288">
        <ele>58.852</ele>
        <time>2017-09-17T13:26:55.996Z</time>
      </trkpt>
      <trkpt lat="48.8585" lon="1.87287">
        <ele>57.792</ele>
        <time>2017-09-17T13:27:04.335Z</time>
      </trkpt>
      <trkpt lat="48.85841" lon="1.87285">
        <ele>56.782</ele>
        <time>2017-09-17T13:27:12.000Z</time>
      </trkpt>
      <trkpt lat="48.85841" lon="1.87285">
        <ele>55.986</ele>
        <time>2017-09-17T13:27:19.000Z</time>
      </trkpt>
      <trkpt lat="48.85841" lon="1.87285">
        <ele>55.615</ele>
        <time>2017-09-17T13:27:19.670Z</time>
      </trkpt>
      <trkpt lat="48.8583" lon="1.87284">
        <ele>55.793</ele>
        <time>2017-09-17T13:27:36.783Z</time>
      </trkpt>
      <trkpt lat="48.85823" lon="1.87275">
        <ele>55.937</ele>
        <time>2017-09-17T13:27:45.863Z</time>
      </trkpt>
      <trkpt lat="48.85817" lon="1.87264">
        <ele>56.115</ele>
        <time>2017-09-17T13:27:54.435Z</time>
      </trkpt>
      <trkpt lat="48.85807" lon="1.87259">
        <ele>56.349</ele>
        <time>2017-09-17T13:28:02.042Z</time>
      </trkpt>
      <trkpt lat="48.85797" lon="1.87253">
        <ele>56.54</ele>
        <time>2017-09-17T13:28:09.251Z</time>
      </trkpt>
      <trkpt lat="48.85788" lon="1.8725">
        <ele>56.615</ele>
        <time>2017-09-17T13:28:16.159Z</time>
      </trkpt>
      <trkpt lat="48.85779" lon="1.87246">
        <ele>56.589</ele>
        <time>2017-09-17T13:28:23.687Z</time>
      </trkpt>
      <trkpt lat="48.85769" lon="1.8725">
        <ele>56.464</ele>
        <time>2017-09-17T13:28:31.971Z</time>
      </trkpt>
      <trkpt lat="48.8576" lon="1.87249">
        <ele>56.204</ele>
        <time>2017-09-17T13:28:39.093Z</time>
      </trkpt>
      <trkpt lat="48.8575" lon="1.87245">
        <ele>55.847</ele>
        <time>2017-09-17T13:28:46.629Z</time>
      </trkpt>
      <trkpt lat="48.8574" lon="1.87241">
        <ele>55.497</ele>
        <time>2017-09-17T13:28:54.202Z</time>
      </trkpt>
      <trkpt lat="48.85731" lon="1.87239">
        <ele>55.171</ele>
        <time>2017-09-17T13:29:01.531Z</time>
      </trkpt>
      <trkpt lat="48.85721" lon="1.87239">
        <ele>54.795</ele>
        <time>2017-09-17T13:29:09.145Z</time>
      </trkpt>
      <trkpt lat="48.85712" lon="1.87239">
        <ele>54.39</ele>
        <time>2017-09-17T13:29:15.927Z</time>
      </trkpt>
      <trkpt lat="48.85702" lon="1.87239">
        <ele>54.042</ele>
        <time>2017-09-17T13:29:23.768Z</time>
      </trkpt>
      <trkpt lat="48.85692" lon="1.87238">
        <ele>53.755</ele>
        <time>2017-09-17T13:29:32.217Z</time>
      </trkpt>
      <trkpt lat="48.85683" lon="1.87239">
        <ele>53.45</ele>
        <time>2017-09-17T13:29:40.198Z</time>
      </trkpt>
      <trkpt lat="48.85673" lon="1.87239">
        <ele>53.143</ele>
        <time>2017-09-17T13:29:49.066Z</time>
      </trkpt>
      <trkpt lat="48.85664" lon="1.87244">
        <ele>52.836</ele>
        <time>2017-09-17T13:29:57.238Z</time>
      </trkpt>
      <trkpt lat="48.85661" lon="1.87258">
        <ele>52.506</ele>
        <time>2017-09-17T13:30:04.929Z</time>
      </trkpt>
      <trkpt lat="48.85656" lon="1.87269">
        <ele>52.245</ele>
        <time>2017-09-17T13:30:11.711Z</time>
      </trkpt>
      <trkpt lat="48.85652" lon="1.87284">
        <ele>52.071</ele>
        <time>2017-09-17T13:30:19.499Z</time>
      </trkpt>
      <trkpt lat="48.8565" lon="1.87299">
        <ele>51.802</ele>
        <time>2017-09-17T13:30:27.442Z</time>
      </trkpt>
      <trkpt lat="48.85648" lon="1.87312">
        <ele>51.419</ele>
        <time>2017-09-17T13:30:34.974Z</time>
      </trkpt>
      <trkpt lat="48.85641" lon="1.87322">
        <ele>51.001</ele>
        <time>2017-09-17T13:30:42.308Z</time>
      </trkpt>
      <trkpt lat="48.85639" lon="1.87336">
        <ele>50.54</ele>
        <time>2017-09-17T13:30:50.047Z</time>
      </trkpt>
      <trkpt lat="48.85638" lon="1.8735">
        <ele>50.108</ele>
        <time>2017-09-17T13:30:57.832Z</time>
      </trkpt>
      <trkpt lat="48.8564" lon="1.87364">
        <ele>49.849</ele>
        <time>2017-09-17T13:31:05.971Z</time>
      </trkpt>
      <trkpt lat="48.85639" lon="1.87379">
        <ele>49.707</ele>
        <time>2017-09-17T13:31:14.645Z</time>
      </trkpt>
      <trkpt lat="48.85638" lon="1.87393">
        <ele>49.559</ele>
        <time>2017-09-17T13:31:24.000Z</time>
      </trkpt>
      <trkpt lat="48.85638" lon="1.87393">
        <ele>49.425</ele>
        <time>2017-09-17T13:31:29.000Z</time>
      </trkpt>
      <trkpt lat="48.85638" lon="1.87393">
        <ele>49.367</ele>
        <time>2017-09-17T13:36:07.731Z</time>
      </trkpt>
      <trkpt lat="48.85647" lon="1.87402">
        <ele>49.358</ele>
        <time>2017-09-17T13:36:25.175Z</time>
      </trkpt>
      <trkpt lat="48.85655" lon="1.8741">
        <ele>49.028</ele>
        <time>2017-09-17T13:36:33.000Z</time>
      </trkpt>
      <trkpt lat="48.85655" lon="1.8741">
        <ele>48.157</ele>
        <time>2017-09-17T13:36:39.000Z</time>
      </trkpt>
      <trkpt lat="48.85655" lon="1.8741">
        <ele>47.421</ele>
        <time>2017-09-17T13:36:41.672Z</time>
      </trkpt>
      <trkpt lat="48.85665" lon="1.87417">
        <ele>47.414</ele>
        <time>2017-09-17T13:37:00.344Z</time>
      </trkpt>
      <trkpt lat="48.85672" lon="1.87426">
        <ele>47.611</ele>
        <time>2017-09-17T13:37:09.659Z</time>
      </trkpt>
      <trkpt lat="48.85677" lon="1.87438">
        <ele>47.393</ele>
        <time>2017-09-17T13:37:17.579Z</time>
      </trkpt>
      <trkpt lat="48.85679" lon="1.87452">
        <ele>46.782</ele>
        <time>2017-09-17T13:37:25.161Z</time>
      </trkpt>
      <trkpt lat="48.85683" lon="1.87466">
        <ele>46.095</ele>
        <time>2017-09-17T13:37:32.678Z</time>
      </trkpt>
      <trkpt lat="48.85685" lon="1.8748">
        <ele>45.573</ele>
        <time>2017-09-17T13:37:40.009Z</time>
      </trkpt>
      <trkpt lat="48.85688" lon="1.87493">
        <ele>45.299</ele>
        <time>2017-09-17T13:37:47.522Z</time>
      </trkpt>
      <trkpt lat="48.8569" lon="1.87508">
        <ele>45.201</ele>
        <time>2017-09-17T13:37:55.354Z</time>
      </trkpt>
      <trkpt lat="48.85694" lon="1.87521">
        <ele>45.194</ele>
        <time>2017-09-17T13:38:02.397Z</time>
      </trkpt>
      <trkpt lat="48.85693" lon="1.87535">
        <ele>45.201</ele>
        <time>2017-09-17T13:38:09.688Z</time>
      </trkpt>
      <trkpt lat="48.85691" lon="1.87549">
        <ele>45.184</ele>
        <time>2017-09-17T13:38:17.667Z</time>
      </trkpt>
      <trkpt lat="48.85682" lon="1.87557">
        <ele>45.214</ele>
        <time>2017-09-17T13:38:25.717Z</time>
      </trkpt>
      <trkpt lat="48.85673" lon="1.87564">
        <ele>45.365</ele>
        <time>2017-09-17T13:38:33.702Z</time>
      </trkpt>
      <trkpt lat="48.85664" lon="1.87571">
        <ele>45.581</ele>
        <time>2017-09-17T13:38:41.000Z</time>
      </trkpt>
      <trkpt lat="48.85655" lon="1.87576">
        <ele>45.757</ele>
        <time>2017-09-17T13:38:49.000Z</time>
      </trkpt>
    </trkseg>
  </trk>
</gpx>